<?xml version="1.0" encoding="UTF-8" standalone="no" ?>
<gpx xmlns="http://www.topografix.com/GPX/1/1" xmlns:xsi="http://www.w3.org/2001/XMLSchema-instance" xsi:schemaLocation="http://www.topografix.com/GPX/1/1 http://www.topografix.com/GPX/1/1/gpx.xsd" version="1.1" creator="VisuGPX - https://www.visugpx.com">
  <metadata>
    <name>2011-03-12 - SORTIE VTT N°10 - MERCUREY   CHAMILLY</name>
    <desc><![CDATA[Sortie VTT du 2011-03-12 à MERCUREY   CHAMILLY]]></desc>
  </metadata>
  <trk>
    <name><![CDATA[2011-03-12 - MERCUREY]]></name>
    <desc><![CDATA[12 mars 2011 11:04 am]]></desc>
    <trkseg>
      <trkpt lat="46.83295" lon="4.72447">
        <ele>197.535887</ele>
        <time>2011-03-12T10:04:58Z</time>
      </trkpt>
      <trkpt lat="46.83303" lon="4.7246">
        <ele>197.578219</ele>
        <time>2011-03-12T10:05:01Z</time>
      </trkpt>
      <trkpt lat="46.83312" lon="4.72466">
        <ele>197.60468</ele>
        <time>2011-03-12T10:05:04Z</time>
      </trkpt>
      <trkpt lat="46.83323" lon="4.7247">
        <ele>199.91733</ele>
        <time>2011-03-12T10:05:07Z</time>
      </trkpt>
      <trkpt lat="46.83334" lon="4.72474">
        <ele>205.925632</ele>
        <time>2011-03-12T10:05:10Z</time>
      </trkpt>
      <trkpt lat="46.83346" lon="4.7248">
        <ele>212.111711</ele>
        <time>2011-03-12T10:05:13Z</time>
      </trkpt>
      <trkpt lat="46.83357" lon="4.72487">
        <ele>215.086205</ele>
        <time>2011-03-12T10:05:16Z</time>
      </trkpt>
      <trkpt lat="46.83368" lon="4.72494">
        <ele>215.635708</ele>
        <time>2011-03-12T10:05:19Z</time>
      </trkpt>
      <trkpt lat="46.83378" lon="4.72499">
        <ele>215.301715</ele>
        <time>2011-03-12T10:05:22Z</time>
      </trkpt>
      <trkpt lat="46.83389" lon="4.72505">
        <ele>214.947061</ele>
        <time>2011-03-12T10:05:25Z</time>
      </trkpt>
      <trkpt lat="46.83399" lon="4.72511">
        <ele>214.779031</ele>
        <time>2011-03-12T10:05:28Z</time>
      </trkpt>
      <trkpt lat="46.83411" lon="4.72516">
        <ele>214.753727</ele>
        <time>2011-03-12T10:05:31Z</time>
      </trkpt>
      <trkpt lat="46.83422" lon="4.72522">
        <ele>214.777608</ele>
        <time>2011-03-12T10:05:34Z</time>
      </trkpt>
      <trkpt lat="46.83432" lon="4.72526">
        <ele>214.793572</ele>
        <time>2011-03-12T10:05:37Z</time>
      </trkpt>
      <trkpt lat="46.83443" lon="4.72532">
        <ele>214.793805</ele>
        <time>2011-03-12T10:05:40Z</time>
      </trkpt>
      <trkpt lat="46.83454" lon="4.72536">
        <ele>214.789432</ele>
        <time>2011-03-12T10:05:43Z</time>
      </trkpt>
      <trkpt lat="46.83464" lon="4.72541">
        <ele>214.786077</ele>
        <time>2011-03-12T10:05:46Z</time>
      </trkpt>
      <trkpt lat="46.83475" lon="4.72545">
        <ele>214.7848</ele>
        <time>2011-03-12T10:05:49Z</time>
      </trkpt>
      <trkpt lat="46.83486" lon="4.72548">
        <ele>214.784796</ele>
        <time>2011-03-12T10:05:52Z</time>
      </trkpt>
      <trkpt lat="46.83497" lon="4.72551">
        <ele>214.785152</ele>
        <time>2011-03-12T10:05:55Z</time>
      </trkpt>
      <trkpt lat="46.83508" lon="4.72553">
        <ele>214.782504</ele>
        <time>2011-03-12T10:05:58Z</time>
      </trkpt>
      <trkpt lat="46.83519" lon="4.72555">
        <ele>214.76843</ele>
        <time>2011-03-12T10:06:01Z</time>
      </trkpt>
      <trkpt lat="46.83528" lon="4.72559">
        <ele>214.735063</ele>
        <time>2011-03-12T10:06:04Z</time>
      </trkpt>
      <trkpt lat="46.83539" lon="4.72563">
        <ele>214.685075</ele>
        <time>2011-03-12T10:06:07Z</time>
      </trkpt>
      <trkpt lat="46.83551" lon="4.72569">
        <ele>214.632798</ele>
        <time>2011-03-12T10:06:10Z</time>
      </trkpt>
      <trkpt lat="46.83565" lon="4.72577">
        <ele>214.594846</ele>
        <time>2011-03-12T10:06:13Z</time>
      </trkpt>
      <trkpt lat="46.83579" lon="4.72585">
        <ele>214.577871</ele>
        <time>2011-03-12T10:06:16Z</time>
      </trkpt>
      <trkpt lat="46.83588" lon="4.72591">
        <ele>214.575919</ele>
        <time>2011-03-12T10:06:18Z</time>
      </trkpt>
      <trkpt lat="46.836" lon="4.72599">
        <ele>214.629102</ele>
        <time>2011-03-12T10:06:21Z</time>
      </trkpt>
      <trkpt lat="46.83612" lon="4.72608">
        <ele>214.799174</ele>
        <time>2011-03-12T10:06:24Z</time>
      </trkpt>
      <trkpt lat="46.8362" lon="4.72614">
        <ele>215.03096</ele>
        <time>2011-03-12T10:06:26Z</time>
      </trkpt>
      <trkpt lat="46.83633" lon="4.72623">
        <ele>215.204184</ele>
        <time>2011-03-12T10:06:29Z</time>
      </trkpt>
      <trkpt lat="46.83641" lon="4.72629">
        <ele>215.300224</ele>
        <time>2011-03-12T10:06:31Z</time>
      </trkpt>
      <trkpt lat="46.83653" lon="4.72637">
        <ele>215.366962</ele>
        <time>2011-03-12T10:06:34Z</time>
      </trkpt>
      <trkpt lat="46.83665" lon="4.72646">
        <ele>215.433011</ele>
        <time>2011-03-12T10:06:37Z</time>
      </trkpt>
      <trkpt lat="46.83677" lon="4.72655">
        <ele>215.553407</ele>
        <time>2011-03-12T10:06:40Z</time>
      </trkpt>
      <trkpt lat="46.83688" lon="4.72663">
        <ele>215.789789</ele>
        <time>2011-03-12T10:06:43Z</time>
      </trkpt>
      <trkpt lat="46.83697" lon="4.72672">
        <ele>216.129182</ele>
        <time>2011-03-12T10:06:46Z</time>
      </trkpt>
      <trkpt lat="46.83701" lon="4.72685">
        <ele>216.544246</ele>
        <time>2011-03-12T10:06:49Z</time>
      </trkpt>
      <trkpt lat="46.83697" lon="4.72702">
        <ele>217.027481</ele>
        <time>2011-03-12T10:06:53Z</time>
      </trkpt>
      <trkpt lat="46.83696" lon="4.72717">
        <ele>217.474411</ele>
        <time>2011-03-12T10:06:56Z</time>
      </trkpt>
      <trkpt lat="46.83699" lon="4.72732">
        <ele>217.747235</ele>
        <time>2011-03-12T10:07:00Z</time>
      </trkpt>
      <trkpt lat="46.83708" lon="4.72742">
        <ele>217.85313</ele>
        <time>2011-03-12T10:07:04Z</time>
      </trkpt>
      <trkpt lat="46.83718" lon="4.72751">
        <ele>217.950486</ele>
        <time>2011-03-12T10:07:08Z</time>
      </trkpt>
      <trkpt lat="46.83727" lon="4.72756">
        <ele>218.137555</ele>
        <time>2011-03-12T10:07:12Z</time>
      </trkpt>
      <trkpt lat="46.83739" lon="4.72758">
        <ele>218.347736</ele>
        <time>2011-03-12T10:07:16Z</time>
      </trkpt>
      <trkpt lat="46.83748" lon="4.72758">
        <ele>218.501654</ele>
        <time>2011-03-12T10:07:19Z</time>
      </trkpt>
      <trkpt lat="46.83759" lon="4.72759">
        <ele>218.618039</ele>
        <time>2011-03-12T10:07:22Z</time>
      </trkpt>
      <trkpt lat="46.83768" lon="4.72758">
        <ele>218.737598</ele>
        <time>2011-03-12T10:07:25Z</time>
      </trkpt>
      <trkpt lat="46.83778" lon="4.72759">
        <ele>218.875593</ele>
        <time>2011-03-12T10:07:28Z</time>
      </trkpt>
      <trkpt lat="46.83788" lon="4.72761">
        <ele>219.024428</ele>
        <time>2011-03-12T10:07:31Z</time>
      </trkpt>
      <trkpt lat="46.83798" lon="4.72762">
        <ele>219.187466</ele>
        <time>2011-03-12T10:07:34Z</time>
      </trkpt>
      <trkpt lat="46.83808" lon="4.72761">
        <ele>219.39584</ele>
        <time>2011-03-12T10:07:37Z</time>
      </trkpt>
      <trkpt lat="46.83819" lon="4.72763">
        <ele>219.671871</ele>
        <time>2011-03-12T10:07:40Z</time>
      </trkpt>
      <trkpt lat="46.83828" lon="4.72765">
        <ele>219.998243</ele>
        <time>2011-03-12T10:07:43Z</time>
      </trkpt>
      <trkpt lat="46.83837" lon="4.72771">
        <ele>220.339083</ele>
        <time>2011-03-12T10:07:47Z</time>
      </trkpt>
      <trkpt lat="46.83846" lon="4.72779">
        <ele>220.671731</ele>
        <time>2011-03-12T10:07:51Z</time>
      </trkpt>
      <trkpt lat="46.83854" lon="4.72788">
        <ele>220.990124</ele>
        <time>2011-03-12T10:07:55Z</time>
      </trkpt>
      <trkpt lat="46.83864" lon="4.72797">
        <ele>221.312695</ele>
        <time>2011-03-12T10:07:59Z</time>
      </trkpt>
      <trkpt lat="46.83873" lon="4.72804">
        <ele>221.664965</ele>
        <time>2011-03-12T10:08:02Z</time>
      </trkpt>
      <trkpt lat="46.83885" lon="4.72812">
        <ele>222.056903</ele>
        <time>2011-03-12T10:08:07Z</time>
      </trkpt>
      <trkpt lat="46.83885" lon="4.72812">
        <ele>222.423209</ele>
        <time>2011-03-12T10:08:08Z</time>
      </trkpt>
      <trkpt lat="46.83913" lon="4.72828">
        <ele>222.715891</ele>
        <time>2011-03-12T10:08:21Z</time>
      </trkpt>
      <trkpt lat="46.83913" lon="4.72828">
        <ele>222.950916</ele>
        <time>2011-03-12T10:08:25Z</time>
      </trkpt>
      <trkpt lat="46.83942" lon="4.72837">
        <ele>223.157921</ele>
        <time>2011-03-12T10:08:53Z</time>
      </trkpt>
      <trkpt lat="46.83942" lon="4.72837">
        <ele>223.337886</ele>
        <time>2011-03-12T10:08:59Z</time>
      </trkpt>
      <trkpt lat="46.8397" lon="4.72838">
        <ele>223.557248</ele>
        <time>2011-03-12T10:09:15Z</time>
      </trkpt>
      <trkpt lat="46.8398" lon="4.72838">
        <ele>224.063859</ele>
        <time>2011-03-12T10:09:24Z</time>
      </trkpt>
      <trkpt lat="46.83988" lon="4.72831">
        <ele>225.602251</ele>
        <time>2011-03-12T10:09:32Z</time>
      </trkpt>
      <trkpt lat="46.83988" lon="4.72831">
        <ele>228.167842</ele>
        <time>2011-03-12T10:09:44Z</time>
      </trkpt>
      <trkpt lat="46.84004" lon="4.72799">
        <ele>231.084735</ele>
        <time>2011-03-12T10:10:06Z</time>
      </trkpt>
      <trkpt lat="46.84011" lon="4.72787">
        <ele>234.117266</ele>
        <time>2011-03-12T10:10:12Z</time>
      </trkpt>
      <trkpt lat="46.84014" lon="4.72772">
        <ele>237.093808</ele>
        <time>2011-03-12T10:10:17Z</time>
      </trkpt>
      <trkpt lat="46.84019" lon="4.7276">
        <ele>239.851626</ele>
        <time>2011-03-12T10:10:22Z</time>
      </trkpt>
      <trkpt lat="46.84023" lon="4.72746">
        <ele>242.425042</ele>
        <time>2011-03-12T10:10:28Z</time>
      </trkpt>
      <trkpt lat="46.84025" lon="4.72734">
        <ele>244.236557</ele>
        <time>2011-03-12T10:10:33Z</time>
      </trkpt>
      <trkpt lat="46.84029" lon="4.72721">
        <ele>244.97426</ele>
        <time>2011-03-12T10:10:38Z</time>
      </trkpt>
      <trkpt lat="46.84033" lon="4.72707">
        <ele>245.076435</ele>
        <time>2011-03-12T10:10:44Z</time>
      </trkpt>
      <trkpt lat="46.84036" lon="4.72693">
        <ele>245.048779</ele>
        <time>2011-03-12T10:10:50Z</time>
      </trkpt>
      <trkpt lat="46.8404" lon="4.72681">
        <ele>245.154451</ele>
        <time>2011-03-12T10:10:54Z</time>
      </trkpt>
      <trkpt lat="46.84042" lon="4.72667">
        <ele>245.470751</ele>
        <time>2011-03-12T10:10:59Z</time>
      </trkpt>
      <trkpt lat="46.84044" lon="4.72652">
        <ele>245.971656</ele>
        <time>2011-03-12T10:11:05Z</time>
      </trkpt>
      <trkpt lat="46.84045" lon="4.72638">
        <ele>246.547549</ele>
        <time>2011-03-12T10:11:12Z</time>
      </trkpt>
      <trkpt lat="46.84049" lon="4.72624">
        <ele>247.110587</ele>
        <time>2011-03-12T10:11:19Z</time>
      </trkpt>
      <trkpt lat="46.84051" lon="4.72609">
        <ele>247.691344</ele>
        <time>2011-03-12T10:11:26Z</time>
      </trkpt>
      <trkpt lat="46.84054" lon="4.72595">
        <ele>248.388895</ele>
        <time>2011-03-12T10:11:32Z</time>
      </trkpt>
      <trkpt lat="46.84055" lon="4.7258">
        <ele>249.291911</ele>
        <time>2011-03-12T10:11:38Z</time>
      </trkpt>
      <trkpt lat="46.84057" lon="4.72566">
        <ele>250.386781</ele>
        <time>2011-03-12T10:11:44Z</time>
      </trkpt>
      <trkpt lat="46.8406" lon="4.72551">
        <ele>251.522026</ele>
        <time>2011-03-12T10:11:50Z</time>
      </trkpt>
      <trkpt lat="46.84063" lon="4.72537">
        <ele>252.58746</ele>
        <time>2011-03-12T10:11:56Z</time>
      </trkpt>
      <trkpt lat="46.84066" lon="4.72521">
        <ele>253.585764</ele>
        <time>2011-03-12T10:12:01Z</time>
      </trkpt>
      <trkpt lat="46.84065" lon="4.72505">
        <ele>254.576084</ele>
        <time>2011-03-12T10:12:06Z</time>
      </trkpt>
      <trkpt lat="46.84066" lon="4.72492">
        <ele>255.632745</ele>
        <time>2011-03-12T10:12:10Z</time>
      </trkpt>
      <trkpt lat="46.84069" lon="4.72478">
        <ele>256.72368</ele>
        <time>2011-03-12T10:12:16Z</time>
      </trkpt>
      <trkpt lat="46.84072" lon="4.72465">
        <ele>257.770633</ele>
        <time>2011-03-12T10:12:22Z</time>
      </trkpt>
      <trkpt lat="46.84078" lon="4.72454">
        <ele>258.844434</ele>
        <time>2011-03-12T10:12:30Z</time>
      </trkpt>
      <trkpt lat="46.84087" lon="4.72449">
        <ele>260.257174</ele>
        <time>2011-03-12T10:12:37Z</time>
      </trkpt>
      <trkpt lat="46.84097" lon="4.72446">
        <ele>262.447567</ele>
        <time>2011-03-12T10:12:44Z</time>
      </trkpt>
      <trkpt lat="46.84107" lon="4.7245">
        <ele>265.525013</ele>
        <time>2011-03-12T10:12:50Z</time>
      </trkpt>
      <trkpt lat="46.84116" lon="4.72455">
        <ele>269.008257</ele>
        <time>2011-03-12T10:12:55Z</time>
      </trkpt>
      <trkpt lat="46.84126" lon="4.7246">
        <ele>272.292147</ele>
        <time>2011-03-12T10:13:00Z</time>
      </trkpt>
      <trkpt lat="46.84136" lon="4.72468">
        <ele>275.054496</ele>
        <time>2011-03-12T10:13:04Z</time>
      </trkpt>
      <trkpt lat="46.84146" lon="4.72473">
        <ele>277.157036</ele>
        <time>2011-03-12T10:13:08Z</time>
      </trkpt>
      <trkpt lat="46.84153" lon="4.72481">
        <ele>278.624466</ele>
        <time>2011-03-12T10:13:13Z</time>
      </trkpt>
      <trkpt lat="46.84162" lon="4.72488">
        <ele>279.69199</ele>
        <time>2011-03-12T10:13:19Z</time>
      </trkpt>
      <trkpt lat="46.84171" lon="4.72487">
        <ele>280.586462</ele>
        <time>2011-03-12T10:13:24Z</time>
      </trkpt>
      <trkpt lat="46.84181" lon="4.72485">
        <ele>281.479799</ele>
        <time>2011-03-12T10:13:30Z</time>
      </trkpt>
      <trkpt lat="46.8419" lon="4.7248">
        <ele>282.550446</ele>
        <time>2011-03-12T10:13:34Z</time>
      </trkpt>
      <trkpt lat="46.842" lon="4.72474">
        <ele>283.791666</ele>
        <time>2011-03-12T10:13:39Z</time>
      </trkpt>
      <trkpt lat="46.84211" lon="4.7247">
        <ele>285.033185</ele>
        <time>2011-03-12T10:13:43Z</time>
      </trkpt>
      <trkpt lat="46.84221" lon="4.72468">
        <ele>286.152566</ele>
        <time>2011-03-12T10:13:46Z</time>
      </trkpt>
      <trkpt lat="46.8423" lon="4.72465">
        <ele>287.120475</ele>
        <time>2011-03-12T10:13:49Z</time>
      </trkpt>
      <trkpt lat="46.8424" lon="4.72461">
        <ele>287.964151</ele>
        <time>2011-03-12T10:13:53Z</time>
      </trkpt>
      <trkpt lat="46.84248" lon="4.72457">
        <ele>288.695099</ele>
        <time>2011-03-12T10:13:57Z</time>
      </trkpt>
      <trkpt lat="46.8426" lon="4.72452">
        <ele>289.288381</ele>
        <time>2011-03-12T10:14:09Z</time>
      </trkpt>
      <trkpt lat="46.84266" lon="4.72441">
        <ele>289.804498</ele>
        <time>2011-03-12T10:14:20Z</time>
      </trkpt>
      <trkpt lat="46.84274" lon="4.72432">
        <ele>290.384453</ele>
        <time>2011-03-12T10:14:30Z</time>
      </trkpt>
      <trkpt lat="46.84281" lon="4.72423">
        <ele>291.394019</ele>
        <time>2011-03-12T10:14:37Z</time>
      </trkpt>
      <trkpt lat="46.8429" lon="4.72416">
        <ele>293.300412</ele>
        <time>2011-03-12T10:14:44Z</time>
      </trkpt>
      <trkpt lat="46.84293" lon="4.72403">
        <ele>296.055912</ele>
        <time>2011-03-12T10:14:51Z</time>
      </trkpt>
      <trkpt lat="46.84299" lon="4.72393">
        <ele>298.983186</ele>
        <time>2011-03-12T10:14:57Z</time>
      </trkpt>
      <trkpt lat="46.84306" lon="4.72383">
        <ele>301.420368</ele>
        <time>2011-03-12T10:15:04Z</time>
      </trkpt>
      <trkpt lat="46.84314" lon="4.72375">
        <ele>303.044927</ele>
        <time>2011-03-12T10:15:09Z</time>
      </trkpt>
      <trkpt lat="46.84322" lon="4.72369">
        <ele>303.830838</ele>
        <time>2011-03-12T10:15:15Z</time>
      </trkpt>
      <trkpt lat="46.84331" lon="4.72362">
        <ele>304.000018</ele>
        <time>2011-03-12T10:15:23Z</time>
      </trkpt>
      <trkpt lat="46.8434" lon="4.72356">
        <ele>303.903313</ele>
        <time>2011-03-12T10:15:29Z</time>
      </trkpt>
      <trkpt lat="46.8435" lon="4.72351">
        <ele>303.622816</ele>
        <time>2011-03-12T10:15:34Z</time>
      </trkpt>
      <trkpt lat="46.84358" lon="4.72345">
        <ele>302.997642</ele>
        <time>2011-03-12T10:15:40Z</time>
      </trkpt>
      <trkpt lat="46.84366" lon="4.72338">
        <ele>302.129729</ele>
        <time>2011-03-12T10:15:47Z</time>
      </trkpt>
      <trkpt lat="46.84373" lon="4.7233">
        <ele>301.421329</ele>
        <time>2011-03-12T10:15:53Z</time>
      </trkpt>
      <trkpt lat="46.84381" lon="4.72325">
        <ele>301.088582</ele>
        <time>2011-03-12T10:15:59Z</time>
      </trkpt>
      <trkpt lat="46.84392" lon="4.7232">
        <ele>301.040206</ele>
        <time>2011-03-12T10:16:05Z</time>
      </trkpt>
      <trkpt lat="46.84402" lon="4.72315">
        <ele>301.222448</ele>
        <time>2011-03-12T10:16:11Z</time>
      </trkpt>
      <trkpt lat="46.84412" lon="4.72311">
        <ele>301.800227</ele>
        <time>2011-03-12T10:16:15Z</time>
      </trkpt>
      <trkpt lat="46.84424" lon="4.72308">
        <ele>302.906925</ele>
        <time>2011-03-12T10:16:22Z</time>
      </trkpt>
      <trkpt lat="46.84435" lon="4.72302">
        <ele>304.503655</ele>
        <time>2011-03-12T10:16:28Z</time>
      </trkpt>
      <trkpt lat="46.84446" lon="4.72297">
        <ele>306.400596</ele>
        <time>2011-03-12T10:16:31Z</time>
      </trkpt>
      <trkpt lat="46.8446" lon="4.72294">
        <ele>308.404111</ele>
        <time>2011-03-12T10:16:34Z</time>
      </trkpt>
      <trkpt lat="46.84473" lon="4.72288">
        <ele>310.395534</ele>
        <time>2011-03-12T10:16:37Z</time>
      </trkpt>
      <trkpt lat="46.84485" lon="4.72282">
        <ele>312.158362</ele>
        <time>2011-03-12T10:16:40Z</time>
      </trkpt>
      <trkpt lat="46.84496" lon="4.72279">
        <ele>313.540031</ele>
        <time>2011-03-12T10:16:43Z</time>
      </trkpt>
      <trkpt lat="46.84506" lon="4.72274">
        <ele>314.648965</ele>
        <time>2011-03-12T10:16:47Z</time>
      </trkpt>
      <trkpt lat="46.84516" lon="4.72267">
        <ele>315.518745</ele>
        <time>2011-03-12T10:16:51Z</time>
      </trkpt>
      <trkpt lat="46.84524" lon="4.7226">
        <ele>316.068436</ele>
        <time>2011-03-12T10:16:55Z</time>
      </trkpt>
      <trkpt lat="46.84533" lon="4.72253">
        <ele>316.364441</ele>
        <time>2011-03-12T10:16:58Z</time>
      </trkpt>
      <trkpt lat="46.84541" lon="4.72245">
        <ele>316.564082</ele>
        <time>2011-03-12T10:17:01Z</time>
      </trkpt>
      <trkpt lat="46.8455" lon="4.72235">
        <ele>316.742346</ele>
        <time>2011-03-12T10:17:05Z</time>
      </trkpt>
      <trkpt lat="46.8456" lon="4.72229">
        <ele>316.988557</ele>
        <time>2011-03-12T10:17:09Z</time>
      </trkpt>
      <trkpt lat="46.84569" lon="4.72222">
        <ele>317.461967</ele>
        <time>2011-03-12T10:17:14Z</time>
      </trkpt>
      <trkpt lat="46.84577" lon="4.72216">
        <ele>318.237676</ele>
        <time>2011-03-12T10:17:17Z</time>
      </trkpt>
      <trkpt lat="46.84586" lon="4.72211">
        <ele>319.263539</ele>
        <time>2011-03-12T10:17:20Z</time>
      </trkpt>
      <trkpt lat="46.84597" lon="4.72205">
        <ele>320.401115</ele>
        <time>2011-03-12T10:17:24Z</time>
      </trkpt>
      <trkpt lat="46.84609" lon="4.72204">
        <ele>321.390842</ele>
        <time>2011-03-12T10:17:28Z</time>
      </trkpt>
      <trkpt lat="46.84619" lon="4.72198">
        <ele>322.041209</ele>
        <time>2011-03-12T10:17:32Z</time>
      </trkpt>
      <trkpt lat="46.84626" lon="4.72189">
        <ele>322.387643</ele>
        <time>2011-03-12T10:17:35Z</time>
      </trkpt>
      <trkpt lat="46.84634" lon="4.72183">
        <ele>322.547667</ele>
        <time>2011-03-12T10:17:38Z</time>
      </trkpt>
      <trkpt lat="46.84646" lon="4.72183">
        <ele>322.597119</ele>
        <time>2011-03-12T10:17:42Z</time>
      </trkpt>
      <trkpt lat="46.84656" lon="4.72189">
        <ele>322.625149</ele>
        <time>2011-03-12T10:17:45Z</time>
      </trkpt>
      <trkpt lat="46.84666" lon="4.72196">
        <ele>322.761198</ele>
        <time>2011-03-12T10:17:48Z</time>
      </trkpt>
      <trkpt lat="46.84666" lon="4.72211">
        <ele>323.163058</ele>
        <time>2011-03-12T10:17:51Z</time>
      </trkpt>
      <trkpt lat="46.84664" lon="4.72226">
        <ele>323.848482</ele>
        <time>2011-03-12T10:17:54Z</time>
      </trkpt>
      <trkpt lat="46.84665" lon="4.72245">
        <ele>324.663846</ele>
        <time>2011-03-12T10:17:57Z</time>
      </trkpt>
      <trkpt lat="46.84665" lon="4.72259">
        <ele>326.389437</ele>
        <time>2011-03-12T10:17:59Z</time>
      </trkpt>
      <trkpt lat="46.84663" lon="4.72285">
        <ele>330.008849</ele>
        <time>2011-03-12T10:18:02Z</time>
      </trkpt>
      <trkpt lat="46.84659" lon="4.72315">
        <ele>334.621557</ele>
        <time>2011-03-12T10:18:05Z</time>
      </trkpt>
      <trkpt lat="46.84655" lon="4.72335">
        <ele>338.236815</ele>
        <time>2011-03-12T10:18:07Z</time>
      </trkpt>
      <trkpt lat="46.84648" lon="4.72356">
        <ele>339.99693</ele>
        <time>2011-03-12T10:18:09Z</time>
      </trkpt>
      <trkpt lat="46.84631" lon="4.72388">
        <ele>340.312261</ele>
        <time>2011-03-12T10:18:12Z</time>
      </trkpt>
      <trkpt lat="46.8461" lon="4.7242">
        <ele>340.047881</ele>
        <time>2011-03-12T10:18:15Z</time>
      </trkpt>
      <trkpt lat="46.84597" lon="4.7246">
        <ele>339.605907</ele>
        <time>2011-03-12T10:18:18Z</time>
      </trkpt>
      <trkpt lat="46.84591" lon="4.72506">
        <ele>338.797387</ele>
        <time>2011-03-12T10:18:21Z</time>
      </trkpt>
      <trkpt lat="46.84589" lon="4.72548">
        <ele>337.403813</ele>
        <time>2011-03-12T10:18:24Z</time>
      </trkpt>
      <trkpt lat="46.8459" lon="4.72571">
        <ele>335.634902</ele>
        <time>2011-03-12T10:18:26Z</time>
      </trkpt>
      <trkpt lat="46.84599" lon="4.72606">
        <ele>333.849751</ele>
        <time>2011-03-12T10:18:29Z</time>
      </trkpt>
      <trkpt lat="46.84606" lon="4.72631">
        <ele>332.140491</ele>
        <time>2011-03-12T10:18:31Z</time>
      </trkpt>
      <trkpt lat="46.84616" lon="4.72655">
        <ele>330.254917</ele>
        <time>2011-03-12T10:18:33Z</time>
      </trkpt>
      <trkpt lat="46.84629" lon="4.72696">
        <ele>327.839461</ele>
        <time>2011-03-12T10:18:36Z</time>
      </trkpt>
      <trkpt lat="46.84646" lon="4.72738">
        <ele>325.050353</ele>
        <time>2011-03-12T10:18:39Z</time>
      </trkpt>
      <trkpt lat="46.8466" lon="4.7276">
        <ele>322.575273</ele>
        <time>2011-03-12T10:18:42Z</time>
      </trkpt>
      <trkpt lat="46.84671" lon="4.72767">
        <ele>320.796895</ele>
        <time>2011-03-12T10:18:45Z</time>
      </trkpt>
      <trkpt lat="46.84681" lon="4.72778">
        <ele>319.580638</ele>
        <time>2011-03-12T10:18:48Z</time>
      </trkpt>
      <trkpt lat="46.84688" lon="4.72791">
        <ele>318.459483</ele>
        <time>2011-03-12T10:18:51Z</time>
      </trkpt>
      <trkpt lat="46.84698" lon="4.72799">
        <ele>317.033977</ele>
        <time>2011-03-12T10:18:54Z</time>
      </trkpt>
      <trkpt lat="46.84709" lon="4.72807">
        <ele>315.303405</ele>
        <time>2011-03-12T10:18:57Z</time>
      </trkpt>
      <trkpt lat="46.84724" lon="4.72816">
        <ele>313.631199</ele>
        <time>2011-03-12T10:19:00Z</time>
      </trkpt>
      <trkpt lat="46.84736" lon="4.7283">
        <ele>312.439481</ele>
        <time>2011-03-12T10:19:03Z</time>
      </trkpt>
      <trkpt lat="46.84746" lon="4.72845">
        <ele>311.4825</ele>
        <time>2011-03-12T10:19:06Z</time>
      </trkpt>
      <trkpt lat="46.84758" lon="4.72857">
        <ele>309.776253</ele>
        <time>2011-03-12T10:19:09Z</time>
      </trkpt>
      <trkpt lat="46.84772" lon="4.72869">
        <ele>307.384457</ele>
        <time>2011-03-12T10:19:12Z</time>
      </trkpt>
      <trkpt lat="46.84788" lon="4.72884">
        <ele>305.540887</ele>
        <time>2011-03-12T10:19:15Z</time>
      </trkpt>
      <trkpt lat="46.84797" lon="4.72892">
        <ele>304.836061</ele>
        <time>2011-03-12T10:19:17Z</time>
      </trkpt>
      <trkpt lat="46.8481" lon="4.72904">
        <ele>304.880992</ele>
        <time>2011-03-12T10:19:20Z</time>
      </trkpt>
      <trkpt lat="46.84818" lon="4.72911">
        <ele>305.277527</ele>
        <time>2011-03-12T10:19:22Z</time>
      </trkpt>
      <trkpt lat="46.84828" lon="4.72923">
        <ele>305.794706</ele>
        <time>2011-03-12T10:19:25Z</time>
      </trkpt>
      <trkpt lat="46.84837" lon="4.72934">
        <ele>306.312821</ele>
        <time>2011-03-12T10:19:28Z</time>
      </trkpt>
      <trkpt lat="46.84847" lon="4.72947">
        <ele>306.793399</ele>
        <time>2011-03-12T10:19:31Z</time>
      </trkpt>
      <trkpt lat="46.84857" lon="4.72959">
        <ele>307.264314</ele>
        <time>2011-03-12T10:19:34Z</time>
      </trkpt>
      <trkpt lat="46.84865" lon="4.72971">
        <ele>307.802897</ele>
        <time>2011-03-12T10:19:37Z</time>
      </trkpt>
      <trkpt lat="46.84873" lon="4.72981">
        <ele>308.930847</ele>
        <time>2011-03-12T10:19:40Z</time>
      </trkpt>
      <trkpt lat="46.84881" lon="4.7299">
        <ele>311.156735</ele>
        <time>2011-03-12T10:19:43Z</time>
      </trkpt>
      <trkpt lat="46.8489" lon="4.72999">
        <ele>313.849322</ele>
        <time>2011-03-12T10:19:46Z</time>
      </trkpt>
      <trkpt lat="46.84899" lon="4.7301">
        <ele>315.776759</ele>
        <time>2011-03-12T10:19:49Z</time>
      </trkpt>
      <trkpt lat="46.84913" lon="4.73029">
        <ele>316.555442</ele>
        <time>2011-03-12T10:19:52Z</time>
      </trkpt>
      <trkpt lat="46.84924" lon="4.73047">
        <ele>316.591814</ele>
        <time>2011-03-12T10:19:54Z</time>
      </trkpt>
      <trkpt lat="46.84936" lon="4.73066">
        <ele>316.360108</ele>
        <time>2011-03-12T10:19:56Z</time>
      </trkpt>
      <trkpt lat="46.84949" lon="4.73085">
        <ele>315.853701</ele>
        <time>2011-03-12T10:19:58Z</time>
      </trkpt>
      <trkpt lat="46.84973" lon="4.73121">
        <ele>314.829157</ele>
        <time>2011-03-12T10:20:01Z</time>
      </trkpt>
      <trkpt lat="46.8499" lon="4.73149">
        <ele>313.385734</ele>
        <time>2011-03-12T10:20:03Z</time>
      </trkpt>
      <trkpt lat="46.85016" lon="4.73185">
        <ele>311.864801</ele>
        <time>2011-03-12T10:20:06Z</time>
      </trkpt>
      <trkpt lat="46.85042" lon="4.73197">
        <ele>310.302713</ele>
        <time>2011-03-12T10:20:09Z</time>
      </trkpt>
      <trkpt lat="46.8506" lon="4.73201">
        <ele>308.569422</ele>
        <time>2011-03-12T10:20:11Z</time>
      </trkpt>
      <trkpt lat="46.85069" lon="4.73209">
        <ele>306.602134</ele>
        <time>2011-03-12T10:20:13Z</time>
      </trkpt>
      <trkpt lat="46.85077" lon="4.73221">
        <ele>304.322789</ele>
        <time>2011-03-12T10:20:16Z</time>
      </trkpt>
      <trkpt lat="46.85086" lon="4.73232">
        <ele>302.035272</ele>
        <time>2011-03-12T10:20:19Z</time>
      </trkpt>
      <trkpt lat="46.85094" lon="4.73242">
        <ele>300.438123</ele>
        <time>2011-03-12T10:20:22Z</time>
      </trkpt>
      <trkpt lat="46.851" lon="4.73252">
        <ele>299.691544</ele>
        <time>2011-03-12T10:20:25Z</time>
      </trkpt>
      <trkpt lat="46.851" lon="4.73252">
        <ele>299.403269</ele>
        <time>2011-03-12T10:20:26Z</time>
      </trkpt>
      <trkpt lat="46.85131" lon="4.7327">
        <ele>299.288274</ele>
        <time>2011-03-12T10:20:44Z</time>
      </trkpt>
      <trkpt lat="46.85136" lon="4.73285">
        <ele>299.239264</ele>
        <time>2011-03-12T10:20:48Z</time>
      </trkpt>
      <trkpt lat="46.85139" lon="4.73304">
        <ele>299.202514</ele>
        <time>2011-03-12T10:20:51Z</time>
      </trkpt>
      <trkpt lat="46.85144" lon="4.73325">
        <ele>299.164656</ele>
        <time>2011-03-12T10:20:54Z</time>
      </trkpt>
      <trkpt lat="46.85155" lon="4.73334">
        <ele>299.140882</ele>
        <time>2011-03-12T10:20:56Z</time>
      </trkpt>
      <trkpt lat="46.85171" lon="4.7333">
        <ele>299.139336</ele>
        <time>2011-03-12T10:20:59Z</time>
      </trkpt>
      <trkpt lat="46.85188" lon="4.73314">
        <ele>299.1437</ele>
        <time>2011-03-12T10:21:02Z</time>
      </trkpt>
      <trkpt lat="46.85208" lon="4.73296">
        <ele>299.074042</ele>
        <time>2011-03-12T10:21:05Z</time>
      </trkpt>
      <trkpt lat="46.85223" lon="4.73284">
        <ele>298.654891</ele>
        <time>2011-03-12T10:21:07Z</time>
      </trkpt>
      <trkpt lat="46.85245" lon="4.73268">
        <ele>297.557364</ele>
        <time>2011-03-12T10:21:10Z</time>
      </trkpt>
      <trkpt lat="46.85261" lon="4.73263">
        <ele>295.749457</ele>
        <time>2011-03-12T10:21:13Z</time>
      </trkpt>
      <trkpt lat="46.85273" lon="4.73267">
        <ele>293.573037</ele>
        <time>2011-03-12T10:21:15Z</time>
      </trkpt>
      <trkpt lat="46.85285" lon="4.73268">
        <ele>291.342666</ele>
        <time>2011-03-12T10:21:17Z</time>
      </trkpt>
      <trkpt lat="46.85305" lon="4.73265">
        <ele>289.082088</ele>
        <time>2011-03-12T10:21:20Z</time>
      </trkpt>
      <trkpt lat="46.85328" lon="4.73268">
        <ele>286.839121</ele>
        <time>2011-03-12T10:21:23Z</time>
      </trkpt>
      <trkpt lat="46.85344" lon="4.73278">
        <ele>284.926051</ele>
        <time>2011-03-12T10:21:25Z</time>
      </trkpt>
      <trkpt lat="46.85368" lon="4.73295">
        <ele>283.516645</ele>
        <time>2011-03-12T10:21:28Z</time>
      </trkpt>
      <trkpt lat="46.85381" lon="4.73305">
        <ele>282.404307</ele>
        <time>2011-03-12T10:21:30Z</time>
      </trkpt>
      <trkpt lat="46.854" lon="4.73322">
        <ele>281.352806</ele>
        <time>2011-03-12T10:21:33Z</time>
      </trkpt>
      <trkpt lat="46.85419" lon="4.73344">
        <ele>280.376653</ele>
        <time>2011-03-12T10:21:36Z</time>
      </trkpt>
      <trkpt lat="46.85433" lon="4.73363">
        <ele>279.571327</ele>
        <time>2011-03-12T10:21:38Z</time>
      </trkpt>
      <trkpt lat="46.85453" lon="4.73397">
        <ele>278.844985</ele>
        <time>2011-03-12T10:21:41Z</time>
      </trkpt>
      <trkpt lat="46.85471" lon="4.73432">
        <ele>278.023776</ele>
        <time>2011-03-12T10:21:44Z</time>
      </trkpt>
      <trkpt lat="46.85479" lon="4.73447">
        <ele>277.167149</ele>
        <time>2011-03-12T10:21:46Z</time>
      </trkpt>
      <trkpt lat="46.8549" lon="4.73449">
        <ele>276.402973</ele>
        <time>2011-03-12T10:21:49Z</time>
      </trkpt>
      <trkpt lat="46.85505" lon="4.73436">
        <ele>275.644641</ele>
        <time>2011-03-12T10:21:52Z</time>
      </trkpt>
      <trkpt lat="46.85515" lon="4.73426">
        <ele>274.706003</ele>
        <time>2011-03-12T10:21:54Z</time>
      </trkpt>
      <trkpt lat="46.85523" lon="4.73415">
        <ele>273.647225</ele>
        <time>2011-03-12T10:21:57Z</time>
      </trkpt>
      <trkpt lat="46.85524" lon="4.73399">
        <ele>272.311952</ele>
        <time>2011-03-12T10:22:00Z</time>
      </trkpt>
      <trkpt lat="46.8552" lon="4.73381">
        <ele>270.323126</ele>
        <time>2011-03-12T10:22:03Z</time>
      </trkpt>
      <trkpt lat="46.85515" lon="4.73364">
        <ele>267.945982</ele>
        <time>2011-03-12T10:22:06Z</time>
      </trkpt>
      <trkpt lat="46.85509" lon="4.73347">
        <ele>266.00397</ele>
        <time>2011-03-12T10:22:09Z</time>
      </trkpt>
      <trkpt lat="46.85502" lon="4.73332">
        <ele>264.489584</ele>
        <time>2011-03-12T10:22:12Z</time>
      </trkpt>
      <trkpt lat="46.85498" lon="4.7332">
        <ele>262.771272</ele>
        <time>2011-03-12T10:22:14Z</time>
      </trkpt>
      <trkpt lat="46.85491" lon="4.73304">
        <ele>260.78671</ele>
        <time>2011-03-12T10:22:17Z</time>
      </trkpt>
      <trkpt lat="46.85485" lon="4.73288">
        <ele>259.091707</ele>
        <time>2011-03-12T10:22:20Z</time>
      </trkpt>
      <trkpt lat="46.85478" lon="4.73277">
        <ele>257.99228</ele>
        <time>2011-03-12T10:22:23Z</time>
      </trkpt>
      <trkpt lat="46.85472" lon="4.73266">
        <ele>257.417992</ele>
        <time>2011-03-12T10:22:26Z</time>
      </trkpt>
      <trkpt lat="46.85465" lon="4.73249">
        <ele>257.117139</ele>
        <time>2011-03-12T10:22:29Z</time>
      </trkpt>
      <trkpt lat="46.85458" lon="4.73234">
        <ele>256.937921</ele>
        <time>2011-03-12T10:22:32Z</time>
      </trkpt>
      <trkpt lat="46.85451" lon="4.73221">
        <ele>256.85353</ele>
        <time>2011-03-12T10:22:35Z</time>
      </trkpt>
      <trkpt lat="46.85443" lon="4.7321">
        <ele>256.841133</ele>
        <time>2011-03-12T10:22:38Z</time>
      </trkpt>
      <trkpt lat="46.85435" lon="4.73199">
        <ele>257.025669</ele>
        <time>2011-03-12T10:22:41Z</time>
      </trkpt>
      <trkpt lat="46.85429" lon="4.73186">
        <ele>257.502902</ele>
        <time>2011-03-12T10:22:44Z</time>
      </trkpt>
      <trkpt lat="46.85424" lon="4.73175">
        <ele>258.038477</ele>
        <time>2011-03-12T10:22:47Z</time>
      </trkpt>
      <trkpt lat="46.85418" lon="4.73162">
        <ele>258.390609</ele>
        <time>2011-03-12T10:22:50Z</time>
      </trkpt>
      <trkpt lat="46.85412" lon="4.7315">
        <ele>258.595042</ele>
        <time>2011-03-12T10:22:53Z</time>
      </trkpt>
      <trkpt lat="46.85405" lon="4.73138">
        <ele>258.741248</ele>
        <time>2011-03-12T10:22:56Z</time>
      </trkpt>
      <trkpt lat="46.85399" lon="4.73127">
        <ele>258.879218</ele>
        <time>2011-03-12T10:22:59Z</time>
      </trkpt>
      <trkpt lat="46.85393" lon="4.73115">
        <ele>259.026957</ele>
        <time>2011-03-12T10:23:02Z</time>
      </trkpt>
      <trkpt lat="46.85387" lon="4.73103">
        <ele>259.19918</ele>
        <time>2011-03-12T10:23:05Z</time>
      </trkpt>
      <trkpt lat="46.85381" lon="4.73091">
        <ele>259.407064</ele>
        <time>2011-03-12T10:23:08Z</time>
      </trkpt>
      <trkpt lat="46.85375" lon="4.7308">
        <ele>259.644238</ele>
        <time>2011-03-12T10:23:11Z</time>
      </trkpt>
      <trkpt lat="46.85367" lon="4.73068">
        <ele>259.890556</ele>
        <time>2011-03-12T10:23:14Z</time>
      </trkpt>
      <trkpt lat="46.8536" lon="4.73058">
        <ele>260.130529</ele>
        <time>2011-03-12T10:23:17Z</time>
      </trkpt>
      <trkpt lat="46.85352" lon="4.73048">
        <ele>260.362249</ele>
        <time>2011-03-12T10:23:20Z</time>
      </trkpt>
      <trkpt lat="46.85345" lon="4.73037">
        <ele>260.579694</ele>
        <time>2011-03-12T10:23:23Z</time>
      </trkpt>
      <trkpt lat="46.85339" lon="4.73026">
        <ele>260.770402</ele>
        <time>2011-03-12T10:23:26Z</time>
      </trkpt>
      <trkpt lat="46.85332" lon="4.73014">
        <ele>260.942234</ele>
        <time>2011-03-12T10:23:29Z</time>
      </trkpt>
      <trkpt lat="46.85325" lon="4.73002">
        <ele>261.12499</ele>
        <time>2011-03-12T10:23:32Z</time>
      </trkpt>
      <trkpt lat="46.85318" lon="4.72993">
        <ele>261.341991</ele>
        <time>2011-03-12T10:23:35Z</time>
      </trkpt>
      <trkpt lat="46.85311" lon="4.72983">
        <ele>261.59957</ele>
        <time>2011-03-12T10:23:38Z</time>
      </trkpt>
      <trkpt lat="46.85305" lon="4.72971">
        <ele>261.894287</ele>
        <time>2011-03-12T10:23:41Z</time>
      </trkpt>
      <trkpt lat="46.853" lon="4.7296">
        <ele>262.220789</ele>
        <time>2011-03-12T10:23:44Z</time>
      </trkpt>
      <trkpt lat="46.85293" lon="4.72949">
        <ele>262.572127</ele>
        <time>2011-03-12T10:23:47Z</time>
      </trkpt>
      <trkpt lat="46.85285" lon="4.7294">
        <ele>262.941647</ele>
        <time>2011-03-12T10:23:50Z</time>
      </trkpt>
      <trkpt lat="46.85278" lon="4.72931">
        <ele>263.318682</ele>
        <time>2011-03-12T10:23:53Z</time>
      </trkpt>
      <trkpt lat="46.85272" lon="4.7292">
        <ele>263.686619</ele>
        <time>2011-03-12T10:23:56Z</time>
      </trkpt>
      <trkpt lat="46.85266" lon="4.7291">
        <ele>264.049332</ele>
        <time>2011-03-12T10:23:59Z</time>
      </trkpt>
      <trkpt lat="46.85259" lon="4.729">
        <ele>264.446614</ele>
        <time>2011-03-12T10:24:03Z</time>
      </trkpt>
      <trkpt lat="46.85252" lon="4.72888">
        <ele>264.908515</ele>
        <time>2011-03-12T10:24:07Z</time>
      </trkpt>
      <trkpt lat="46.85246" lon="4.72878">
        <ele>265.418748</ele>
        <time>2011-03-12T10:24:10Z</time>
      </trkpt>
      <trkpt lat="46.85238" lon="4.72868">
        <ele>265.956433</ele>
        <time>2011-03-12T10:24:13Z</time>
      </trkpt>
      <trkpt lat="46.85232" lon="4.72856">
        <ele>266.510489</ele>
        <time>2011-03-12T10:24:16Z</time>
      </trkpt>
      <trkpt lat="46.85225" lon="4.72846">
        <ele>267.032398</ele>
        <time>2011-03-12T10:24:19Z</time>
      </trkpt>
      <trkpt lat="46.85217" lon="4.72838">
        <ele>267.471417</ele>
        <time>2011-03-12T10:24:22Z</time>
      </trkpt>
      <trkpt lat="46.85208" lon="4.7283">
        <ele>267.844377</ele>
        <time>2011-03-12T10:24:25Z</time>
      </trkpt>
      <trkpt lat="46.85198" lon="4.72823">
        <ele>268.19204</ele>
        <time>2011-03-12T10:24:28Z</time>
      </trkpt>
      <trkpt lat="46.85189" lon="4.72817">
        <ele>268.519908</ele>
        <time>2011-03-12T10:24:31Z</time>
      </trkpt>
      <trkpt lat="46.8518" lon="4.72813">
        <ele>268.826605</ele>
        <time>2011-03-12T10:24:34Z</time>
      </trkpt>
      <trkpt lat="46.85168" lon="4.7281">
        <ele>269.134074</ele>
        <time>2011-03-12T10:24:38Z</time>
      </trkpt>
      <trkpt lat="46.85159" lon="4.72809">
        <ele>269.469298</ele>
        <time>2011-03-12T10:24:41Z</time>
      </trkpt>
      <trkpt lat="46.85149" lon="4.7281">
        <ele>269.847621</ele>
        <time>2011-03-12T10:24:44Z</time>
      </trkpt>
      <trkpt lat="46.85139" lon="4.72809">
        <ele>270.299786</ele>
        <time>2011-03-12T10:24:48Z</time>
      </trkpt>
      <trkpt lat="46.8514" lon="4.72795">
        <ele>270.839079</ele>
        <time>2011-03-12T10:24:57Z</time>
      </trkpt>
      <trkpt lat="46.85143" lon="4.72779">
        <ele>271.417596</ele>
        <time>2011-03-12T10:25:01Z</time>
      </trkpt>
      <trkpt lat="46.85148" lon="4.72766">
        <ele>272.011458</ele>
        <time>2011-03-12T10:25:04Z</time>
      </trkpt>
      <trkpt lat="46.85152" lon="4.72752">
        <ele>272.790625</ele>
        <time>2011-03-12T10:25:07Z</time>
      </trkpt>
      <trkpt lat="46.85156" lon="4.72739">
        <ele>273.848775</ele>
        <time>2011-03-12T10:25:11Z</time>
      </trkpt>
      <trkpt lat="46.85162" lon="4.72724">
        <ele>274.931515</ele>
        <time>2011-03-12T10:25:15Z</time>
      </trkpt>
      <trkpt lat="46.85165" lon="4.7271">
        <ele>275.775265</ele>
        <time>2011-03-12T10:25:19Z</time>
      </trkpt>
      <trkpt lat="46.85165" lon="4.7271">
        <ele>276.326602</ele>
        <time>2011-03-12T10:25:22Z</time>
      </trkpt>
      <trkpt lat="46.85165" lon="4.72676">
        <ele>276.685273</ele>
        <time>2011-03-12T10:25:33Z</time>
      </trkpt>
      <trkpt lat="46.85159" lon="4.72664">
        <ele>277.093809</ele>
        <time>2011-03-12T10:25:38Z</time>
      </trkpt>
      <trkpt lat="46.85153" lon="4.72651">
        <ele>277.690437</ele>
        <time>2011-03-12T10:25:42Z</time>
      </trkpt>
      <trkpt lat="46.85147" lon="4.72639">
        <ele>278.653824</ele>
        <time>2011-03-12T10:25:46Z</time>
      </trkpt>
      <trkpt lat="46.8514" lon="4.72627">
        <ele>280.093487</ele>
        <time>2011-03-12T10:25:50Z</time>
      </trkpt>
      <trkpt lat="46.85138" lon="4.72612">
        <ele>281.610143</ele>
        <time>2011-03-12T10:25:54Z</time>
      </trkpt>
      <trkpt lat="46.85142" lon="4.72599">
        <ele>282.747441</ele>
        <time>2011-03-12T10:25:57Z</time>
      </trkpt>
      <trkpt lat="46.85147" lon="4.72586">
        <ele>283.497862</ele>
        <time>2011-03-12T10:26:00Z</time>
      </trkpt>
      <trkpt lat="46.85154" lon="4.72572">
        <ele>284.02804</ele>
        <time>2011-03-12T10:26:03Z</time>
      </trkpt>
      <trkpt lat="46.85161" lon="4.72557">
        <ele>284.478998</ele>
        <time>2011-03-12T10:26:06Z</time>
      </trkpt>
      <trkpt lat="46.85168" lon="4.72544">
        <ele>285.154212</ele>
        <time>2011-03-12T10:26:09Z</time>
      </trkpt>
      <trkpt lat="46.85175" lon="4.72532">
        <ele>286.656543</ele>
        <time>2011-03-12T10:26:12Z</time>
      </trkpt>
      <trkpt lat="46.85181" lon="4.7252">
        <ele>289.304673</ele>
        <time>2011-03-12T10:26:15Z</time>
      </trkpt>
      <trkpt lat="46.85187" lon="4.72506">
        <ele>292.288846</ele>
        <time>2011-03-12T10:26:18Z</time>
      </trkpt>
      <trkpt lat="46.85193" lon="4.72491">
        <ele>294.361234</ele>
        <time>2011-03-12T10:26:21Z</time>
      </trkpt>
      <trkpt lat="46.85199" lon="4.72475">
        <ele>295.22523</ele>
        <time>2011-03-12T10:26:24Z</time>
      </trkpt>
      <trkpt lat="46.85204" lon="4.72461">
        <ele>295.44396</ele>
        <time>2011-03-12T10:26:27Z</time>
      </trkpt>
      <trkpt lat="46.85211" lon="4.72447">
        <ele>295.51365</ele>
        <time>2011-03-12T10:26:30Z</time>
      </trkpt>
      <trkpt lat="46.85217" lon="4.72435">
        <ele>295.637729</ele>
        <time>2011-03-12T10:26:33Z</time>
      </trkpt>
      <trkpt lat="46.85223" lon="4.72422">
        <ele>295.821236</ele>
        <time>2011-03-12T10:26:36Z</time>
      </trkpt>
      <trkpt lat="46.85228" lon="4.7241">
        <ele>296.016971</ele>
        <time>2011-03-12T10:26:39Z</time>
      </trkpt>
      <trkpt lat="46.85234" lon="4.72398">
        <ele>296.199944</ele>
        <time>2011-03-12T10:26:42Z</time>
      </trkpt>
      <trkpt lat="46.85241" lon="4.72387">
        <ele>296.366787</ele>
        <time>2011-03-12T10:26:45Z</time>
      </trkpt>
      <trkpt lat="46.85248" lon="4.72376">
        <ele>296.522915</ele>
        <time>2011-03-12T10:26:48Z</time>
      </trkpt>
      <trkpt lat="46.85254" lon="4.72365">
        <ele>296.683265</ele>
        <time>2011-03-12T10:26:51Z</time>
      </trkpt>
      <trkpt lat="46.85261" lon="4.72354">
        <ele>296.871791</ele>
        <time>2011-03-12T10:26:54Z</time>
      </trkpt>
      <trkpt lat="46.85267" lon="4.72344">
        <ele>297.111586</ele>
        <time>2011-03-12T10:26:57Z</time>
      </trkpt>
      <trkpt lat="46.85275" lon="4.72334">
        <ele>297.409339</ele>
        <time>2011-03-12T10:27:01Z</time>
      </trkpt>
      <trkpt lat="46.85283" lon="4.72324">
        <ele>297.747779</ele>
        <time>2011-03-12T10:27:06Z</time>
      </trkpt>
      <trkpt lat="46.85293" lon="4.72316">
        <ele>298.101126</ele>
        <time>2011-03-12T10:27:11Z</time>
      </trkpt>
      <trkpt lat="46.85303" lon="4.72324">
        <ele>298.483342</ele>
        <time>2011-03-12T10:27:15Z</time>
      </trkpt>
      <trkpt lat="46.85311" lon="4.72336">
        <ele>298.960366</ele>
        <time>2011-03-12T10:27:18Z</time>
      </trkpt>
      <trkpt lat="46.8532" lon="4.72351">
        <ele>299.575491</ele>
        <time>2011-03-12T10:27:21Z</time>
      </trkpt>
      <trkpt lat="46.85329" lon="4.72366">
        <ele>300.27052</ele>
        <time>2011-03-12T10:27:24Z</time>
      </trkpt>
      <trkpt lat="46.85335" lon="4.72376">
        <ele>300.920342</ele>
        <time>2011-03-12T10:27:26Z</time>
      </trkpt>
      <trkpt lat="46.85341" lon="4.72388">
        <ele>301.848166</ele>
        <time>2011-03-12T10:27:28Z</time>
      </trkpt>
      <trkpt lat="46.85346" lon="4.724">
        <ele>303.489372</ele>
        <time>2011-03-12T10:27:30Z</time>
      </trkpt>
      <trkpt lat="46.85355" lon="4.72417">
        <ele>305.41387</ele>
        <time>2011-03-12T10:27:33Z</time>
      </trkpt>
      <trkpt lat="46.85363" lon="4.72434">
        <ele>306.790446</ele>
        <time>2011-03-12T10:27:36Z</time>
      </trkpt>
      <trkpt lat="46.85372" lon="4.72455">
        <ele>307.404553</ele>
        <time>2011-03-12T10:27:39Z</time>
      </trkpt>
      <trkpt lat="46.85379" lon="4.7247">
        <ele>307.501658</ele>
        <time>2011-03-12T10:27:41Z</time>
      </trkpt>
      <trkpt lat="46.85389" lon="4.72493">
        <ele>307.399706</ele>
        <time>2011-03-12T10:27:44Z</time>
      </trkpt>
      <trkpt lat="46.85395" lon="4.72509">
        <ele>307.257291</ele>
        <time>2011-03-12T10:27:46Z</time>
      </trkpt>
      <trkpt lat="46.85405" lon="4.72533">
        <ele>307.087811</ele>
        <time>2011-03-12T10:27:49Z</time>
      </trkpt>
      <trkpt lat="46.85411" lon="4.72549">
        <ele>306.881224</ele>
        <time>2011-03-12T10:27:51Z</time>
      </trkpt>
      <trkpt lat="46.85417" lon="4.72566">
        <ele>306.631035</ele>
        <time>2011-03-12T10:27:53Z</time>
      </trkpt>
      <trkpt lat="46.85424" lon="4.72584">
        <ele>306.320388</ele>
        <time>2011-03-12T10:27:55Z</time>
      </trkpt>
      <trkpt lat="46.85433" lon="4.72611">
        <ele>305.974119</ele>
        <time>2011-03-12T10:27:58Z</time>
      </trkpt>
      <trkpt lat="46.85439" lon="4.72631">
        <ele>305.651742</ele>
        <time>2011-03-12T10:28:00Z</time>
      </trkpt>
      <trkpt lat="46.85446" lon="4.7265">
        <ele>305.381919</ele>
        <time>2011-03-12T10:28:02Z</time>
      </trkpt>
      <trkpt lat="46.85452" lon="4.72669">
        <ele>305.143801</ele>
        <time>2011-03-12T10:28:04Z</time>
      </trkpt>
      <trkpt lat="46.85463" lon="4.72694">
        <ele>304.948738</ele>
        <time>2011-03-12T10:28:07Z</time>
      </trkpt>
      <trkpt lat="46.85474" lon="4.7272">
        <ele>304.836645</ele>
        <time>2011-03-12T10:28:10Z</time>
      </trkpt>
      <trkpt lat="46.85483" lon="4.72738">
        <ele>304.802156</ele>
        <time>2011-03-12T10:28:12Z</time>
      </trkpt>
      <trkpt lat="46.85496" lon="4.72765">
        <ele>304.799342</ele>
        <time>2011-03-12T10:28:15Z</time>
      </trkpt>
      <trkpt lat="46.85509" lon="4.72791">
        <ele>304.794715</ele>
        <time>2011-03-12T10:28:18Z</time>
      </trkpt>
      <trkpt lat="46.85517" lon="4.72807">
        <ele>304.745764</ele>
        <time>2011-03-12T10:28:20Z</time>
      </trkpt>
      <trkpt lat="46.85531" lon="4.72831">
        <ele>304.528651</ele>
        <time>2011-03-12T10:28:23Z</time>
      </trkpt>
      <trkpt lat="46.8554" lon="4.72845">
        <ele>304.01481</ele>
        <time>2011-03-12T10:28:25Z</time>
      </trkpt>
      <trkpt lat="46.85549" lon="4.72859">
        <ele>303.281925</ele>
        <time>2011-03-12T10:28:27Z</time>
      </trkpt>
      <trkpt lat="46.85557" lon="4.72875">
        <ele>302.528973</ele>
        <time>2011-03-12T10:28:29Z</time>
      </trkpt>
      <trkpt lat="46.85564" lon="4.72891">
        <ele>301.887629</ele>
        <time>2011-03-12T10:28:31Z</time>
      </trkpt>
      <trkpt lat="46.85572" lon="4.72918">
        <ele>301.434719</ele>
        <time>2011-03-12T10:28:34Z</time>
      </trkpt>
      <trkpt lat="46.8558" lon="4.72945">
        <ele>301.185812</ele>
        <time>2011-03-12T10:28:37Z</time>
      </trkpt>
      <trkpt lat="46.85587" lon="4.72955">
        <ele>301.075012</ele>
        <time>2011-03-12T10:28:39Z</time>
      </trkpt>
      <trkpt lat="46.85598" lon="4.72952">
        <ele>301.022115</ele>
        <time>2011-03-12T10:28:42Z</time>
      </trkpt>
      <trkpt lat="46.85608" lon="4.72945">
        <ele>300.954506</ele>
        <time>2011-03-12T10:28:45Z</time>
      </trkpt>
      <trkpt lat="46.85617" lon="4.72937">
        <ele>300.835304</ele>
        <time>2011-03-12T10:28:48Z</time>
      </trkpt>
      <trkpt lat="46.85628" lon="4.72926">
        <ele>300.635639</ele>
        <time>2011-03-12T10:28:51Z</time>
      </trkpt>
      <trkpt lat="46.85638" lon="4.72914">
        <ele>300.346597</ele>
        <time>2011-03-12T10:28:53Z</time>
      </trkpt>
      <trkpt lat="46.85653" lon="4.729">
        <ele>300.054945</ele>
        <time>2011-03-12T10:28:56Z</time>
      </trkpt>
      <trkpt lat="46.85661" lon="4.72893">
        <ele>299.842887</ele>
        <time>2011-03-12T10:28:58Z</time>
      </trkpt>
      <trkpt lat="46.85676" lon="4.72878">
        <ele>299.576274</ele>
        <time>2011-03-12T10:29:01Z</time>
      </trkpt>
      <trkpt lat="46.85689" lon="4.72871">
        <ele>298.91771</ele>
        <time>2011-03-12T10:29:04Z</time>
      </trkpt>
      <trkpt lat="46.85698" lon="4.7288">
        <ele>297.768725</ele>
        <time>2011-03-12T10:29:07Z</time>
      </trkpt>
      <trkpt lat="46.85705" lon="4.72892">
        <ele>296.450162</ele>
        <time>2011-03-12T10:29:09Z</time>
      </trkpt>
      <trkpt lat="46.85716" lon="4.72912">
        <ele>295.239168</ele>
        <time>2011-03-12T10:29:12Z</time>
      </trkpt>
      <trkpt lat="46.85723" lon="4.72926">
        <ele>294.045375</ele>
        <time>2011-03-12T10:29:14Z</time>
      </trkpt>
      <trkpt lat="46.85731" lon="4.72941">
        <ele>292.545724</ele>
        <time>2011-03-12T10:29:16Z</time>
      </trkpt>
      <trkpt lat="46.85742" lon="4.72966">
        <ele>290.411403</ele>
        <time>2011-03-12T10:29:19Z</time>
      </trkpt>
      <trkpt lat="46.85754" lon="4.72992">
        <ele>287.773707</ele>
        <time>2011-03-12T10:29:22Z</time>
      </trkpt>
      <trkpt lat="46.85767" lon="4.73018">
        <ele>285.210299</ele>
        <time>2011-03-12T10:29:25Z</time>
      </trkpt>
      <trkpt lat="46.8578" lon="4.73041">
        <ele>283.041023</ele>
        <time>2011-03-12T10:29:28Z</time>
      </trkpt>
      <trkpt lat="46.85788" lon="4.73056">
        <ele>281.240807</ele>
        <time>2011-03-12T10:29:30Z</time>
      </trkpt>
      <trkpt lat="46.85796" lon="4.73072">
        <ele>279.904591</ele>
        <time>2011-03-12T10:29:32Z</time>
      </trkpt>
      <trkpt lat="46.85805" lon="4.73081">
        <ele>279.15846</ele>
        <time>2011-03-12T10:29:35Z</time>
      </trkpt>
      <trkpt lat="46.85817" lon="4.73063">
        <ele>278.869152</ele>
        <time>2011-03-12T10:29:38Z</time>
      </trkpt>
      <trkpt lat="46.85826" lon="4.73042">
        <ele>278.722609</ele>
        <time>2011-03-12T10:29:40Z</time>
      </trkpt>
      <trkpt lat="46.85841" lon="4.73011">
        <ele>278.401288</ele>
        <time>2011-03-12T10:29:43Z</time>
      </trkpt>
      <trkpt lat="46.85852" lon="4.72991">
        <ele>277.817705</ele>
        <time>2011-03-12T10:29:45Z</time>
      </trkpt>
      <trkpt lat="46.85867" lon="4.72963">
        <ele>277.212642</ele>
        <time>2011-03-12T10:29:48Z</time>
      </trkpt>
      <trkpt lat="46.85877" lon="4.72945">
        <ele>276.860244</ele>
        <time>2011-03-12T10:29:50Z</time>
      </trkpt>
      <trkpt lat="46.85891" lon="4.7292">
        <ele>276.767649</ele>
        <time>2011-03-12T10:29:53Z</time>
      </trkpt>
      <trkpt lat="46.85904" lon="4.729">
        <ele>276.798427</ele>
        <time>2011-03-12T10:29:56Z</time>
      </trkpt>
      <trkpt lat="46.8592" lon="4.72896">
        <ele>276.813033</ele>
        <time>2011-03-12T10:29:59Z</time>
      </trkpt>
      <trkpt lat="46.85938" lon="4.72899">
        <ele>276.750555</ele>
        <time>2011-03-12T10:30:02Z</time>
      </trkpt>
      <trkpt lat="46.85951" lon="4.72903">
        <ele>276.573354</ele>
        <time>2011-03-12T10:30:04Z</time>
      </trkpt>
      <trkpt lat="46.8597" lon="4.72909">
        <ele>276.174697</ele>
        <time>2011-03-12T10:30:07Z</time>
      </trkpt>
      <trkpt lat="46.85983" lon="4.72916">
        <ele>275.534899</ele>
        <time>2011-03-12T10:30:09Z</time>
      </trkpt>
      <trkpt lat="46.86001" lon="4.72928">
        <ele>274.850531</ele>
        <time>2011-03-12T10:30:12Z</time>
      </trkpt>
      <trkpt lat="46.86018" lon="4.72941">
        <ele>274.27889</ele>
        <time>2011-03-12T10:30:15Z</time>
      </trkpt>
      <trkpt lat="46.86036" lon="4.72954">
        <ele>273.829911</ele>
        <time>2011-03-12T10:30:18Z</time>
      </trkpt>
      <trkpt lat="46.86056" lon="4.72963">
        <ele>273.474363</ele>
        <time>2011-03-12T10:30:21Z</time>
      </trkpt>
      <trkpt lat="46.86068" lon="4.72967">
        <ele>273.146117</ele>
        <time>2011-03-12T10:30:23Z</time>
      </trkpt>
      <trkpt lat="46.86087" lon="4.72974">
        <ele>272.727348</ele>
        <time>2011-03-12T10:30:26Z</time>
      </trkpt>
      <trkpt lat="46.861" lon="4.7298">
        <ele>272.133598</ele>
        <time>2011-03-12T10:30:28Z</time>
      </trkpt>
      <trkpt lat="46.8612" lon="4.7299">
        <ele>271.424366</ele>
        <time>2011-03-12T10:30:31Z</time>
      </trkpt>
      <trkpt lat="46.86132" lon="4.72997">
        <ele>270.731389</ele>
        <time>2011-03-12T10:30:33Z</time>
      </trkpt>
      <trkpt lat="46.8615" lon="4.73009">
        <ele>270.056538</ele>
        <time>2011-03-12T10:30:36Z</time>
      </trkpt>
      <trkpt lat="46.86168" lon="4.7302">
        <ele>269.317521</ele>
        <time>2011-03-12T10:30:39Z</time>
      </trkpt>
      <trkpt lat="46.86187" lon="4.73031">
        <ele>268.568431</ele>
        <time>2011-03-12T10:30:42Z</time>
      </trkpt>
      <trkpt lat="46.86207" lon="4.73052">
        <ele>267.998023</ele>
        <time>2011-03-12T10:30:45Z</time>
      </trkpt>
      <trkpt lat="46.86226" lon="4.7308">
        <ele>267.720026</ele>
        <time>2011-03-12T10:30:48Z</time>
      </trkpt>
      <trkpt lat="46.86243" lon="4.73108">
        <ele>267.61565</ele>
        <time>2011-03-12T10:30:51Z</time>
      </trkpt>
      <trkpt lat="46.86254" lon="4.73125">
        <ele>267.522265</ele>
        <time>2011-03-12T10:30:53Z</time>
      </trkpt>
      <trkpt lat="46.86274" lon="4.73145">
        <ele>267.357202</ele>
        <time>2011-03-12T10:30:56Z</time>
      </trkpt>
      <trkpt lat="46.86293" lon="4.73164">
        <ele>266.994691</ele>
        <time>2011-03-12T10:30:59Z</time>
      </trkpt>
      <trkpt lat="46.86305" lon="4.73177">
        <ele>266.379714</ele>
        <time>2011-03-12T10:31:01Z</time>
      </trkpt>
      <trkpt lat="46.86322" lon="4.73195">
        <ele>265.674765</ele>
        <time>2011-03-12T10:31:04Z</time>
      </trkpt>
      <trkpt lat="46.86339" lon="4.73213">
        <ele>265.041574</ele>
        <time>2011-03-12T10:31:07Z</time>
      </trkpt>
      <trkpt lat="46.86357" lon="4.73229">
        <ele>264.475998</ele>
        <time>2011-03-12T10:31:10Z</time>
      </trkpt>
      <trkpt lat="46.86369" lon="4.73239">
        <ele>263.878755</ele>
        <time>2011-03-12T10:31:12Z</time>
      </trkpt>
      <trkpt lat="46.86381" lon="4.73249">
        <ele>263.187248</ele>
        <time>2011-03-12T10:31:14Z</time>
      </trkpt>
      <trkpt lat="46.86394" lon="4.73259">
        <ele>262.449457</ele>
        <time>2011-03-12T10:31:16Z</time>
      </trkpt>
      <trkpt lat="46.86414" lon="4.73272">
        <ele>261.770809</ele>
        <time>2011-03-12T10:31:19Z</time>
      </trkpt>
      <trkpt lat="46.86437" lon="4.73286">
        <ele>261.192513</ele>
        <time>2011-03-12T10:31:22Z</time>
      </trkpt>
      <trkpt lat="46.86454" lon="4.73296">
        <ele>260.66495</ele>
        <time>2011-03-12T10:31:24Z</time>
      </trkpt>
      <trkpt lat="46.86478" lon="4.7331">
        <ele>260.110261</ele>
        <time>2011-03-12T10:31:27Z</time>
      </trkpt>
      <trkpt lat="46.86494" lon="4.7332">
        <ele>259.508243</ele>
        <time>2011-03-12T10:31:29Z</time>
      </trkpt>
      <trkpt lat="46.86518" lon="4.73338">
        <ele>258.951193</ele>
        <time>2011-03-12T10:31:32Z</time>
      </trkpt>
      <trkpt lat="46.86532" lon="4.7335">
        <ele>258.515808</ele>
        <time>2011-03-12T10:31:34Z</time>
      </trkpt>
      <trkpt lat="46.86551" lon="4.73363">
        <ele>258.115029</ele>
        <time>2011-03-12T10:31:37Z</time>
      </trkpt>
      <trkpt lat="46.86572" lon="4.73366">
        <ele>257.57896</ele>
        <time>2011-03-12T10:31:40Z</time>
      </trkpt>
      <trkpt lat="46.86595" lon="4.73369">
        <ele>256.862295</ele>
        <time>2011-03-12T10:31:43Z</time>
      </trkpt>
      <trkpt lat="46.8662" lon="4.73377">
        <ele>256.120144</ele>
        <time>2011-03-12T10:31:46Z</time>
      </trkpt>
      <trkpt lat="46.86635" lon="4.73388">
        <ele>255.565941</ele>
        <time>2011-03-12T10:31:48Z</time>
      </trkpt>
      <trkpt lat="46.86657" lon="4.73408">
        <ele>255.278055</ele>
        <time>2011-03-12T10:31:51Z</time>
      </trkpt>
      <trkpt lat="46.86686" lon="4.73417">
        <ele>255.161442</ele>
        <time>2011-03-12T10:31:54Z</time>
      </trkpt>
      <trkpt lat="46.86707" lon="4.73421">
        <ele>255.075842</ele>
        <time>2011-03-12T10:31:56Z</time>
      </trkpt>
      <trkpt lat="46.86727" lon="4.73424">
        <ele>254.987062</ele>
        <time>2011-03-12T10:31:58Z</time>
      </trkpt>
      <trkpt lat="46.86746" lon="4.73426">
        <ele>254.889947</ele>
        <time>2011-03-12T10:32:00Z</time>
      </trkpt>
      <trkpt lat="46.86764" lon="4.73427">
        <ele>254.68516</ele>
        <time>2011-03-12T10:32:02Z</time>
      </trkpt>
      <trkpt lat="46.86779" lon="4.73428">
        <ele>254.283165</ele>
        <time>2011-03-12T10:32:05Z</time>
      </trkpt>
      <trkpt lat="46.86789" lon="4.73433">
        <ele>253.732656</ele>
        <time>2011-03-12T10:32:07Z</time>
      </trkpt>
      <trkpt lat="46.86803" lon="4.73443">
        <ele>253.151</ele>
        <time>2011-03-12T10:32:10Z</time>
      </trkpt>
      <trkpt lat="46.86813" lon="4.73443">
        <ele>252.512023</ele>
        <time>2011-03-12T10:32:14Z</time>
      </trkpt>
      <trkpt lat="46.86815" lon="4.73427">
        <ele>251.574925</ele>
        <time>2011-03-12T10:32:16Z</time>
      </trkpt>
      <trkpt lat="46.86816" lon="4.73407">
        <ele>250.051624</ele>
        <time>2011-03-12T10:32:18Z</time>
      </trkpt>
      <trkpt lat="46.86819" lon="4.73375">
        <ele>248.184103</ele>
        <time>2011-03-12T10:32:21Z</time>
      </trkpt>
      <trkpt lat="46.86821" lon="4.73355">
        <ele>246.414205</ele>
        <time>2011-03-12T10:32:23Z</time>
      </trkpt>
      <trkpt lat="46.86829" lon="4.73324">
        <ele>244.764179</ele>
        <time>2011-03-12T10:32:26Z</time>
      </trkpt>
      <trkpt lat="46.86837" lon="4.73301">
        <ele>243.313193</ele>
        <time>2011-03-12T10:32:28Z</time>
      </trkpt>
      <trkpt lat="46.86852" lon="4.7327">
        <ele>242.419892</ele>
        <time>2011-03-12T10:32:31Z</time>
      </trkpt>
      <trkpt lat="46.86864" lon="4.73255">
        <ele>242.108096</ele>
        <time>2011-03-12T10:32:33Z</time>
      </trkpt>
      <trkpt lat="46.86889" lon="4.7325">
        <ele>242.113931</ele>
        <time>2011-03-12T10:32:36Z</time>
      </trkpt>
      <trkpt lat="46.86907" lon="4.73258">
        <ele>242.192388</ele>
        <time>2011-03-12T10:32:38Z</time>
      </trkpt>
      <trkpt lat="46.8693" lon="4.73267">
        <ele>242.178876</ele>
        <time>2011-03-12T10:32:41Z</time>
      </trkpt>
      <trkpt lat="46.86951" lon="4.73275">
        <ele>241.717215</ele>
        <time>2011-03-12T10:32:44Z</time>
      </trkpt>
      <trkpt lat="46.86972" lon="4.73279">
        <ele>240.353042</ele>
        <time>2011-03-12T10:32:47Z</time>
      </trkpt>
      <trkpt lat="46.86985" lon="4.7328">
        <ele>237.91108</ele>
        <time>2011-03-12T10:32:49Z</time>
      </trkpt>
      <trkpt lat="46.86997" lon="4.7328">
        <ele>234.54111</ele>
        <time>2011-03-12T10:32:51Z</time>
      </trkpt>
      <trkpt lat="46.87008" lon="4.73276">
        <ele>230.806538</ele>
        <time>2011-03-12T10:32:53Z</time>
      </trkpt>
      <trkpt lat="46.87022" lon="4.7326">
        <ele>227.687068</ele>
        <time>2011-03-12T10:32:56Z</time>
      </trkpt>
      <trkpt lat="46.87029" lon="4.73247">
        <ele>225.86471</ele>
        <time>2011-03-12T10:32:58Z</time>
      </trkpt>
      <trkpt lat="46.87039" lon="4.73229">
        <ele>225.236079</ele>
        <time>2011-03-12T10:33:01Z</time>
      </trkpt>
      <trkpt lat="46.87047" lon="4.73213">
        <ele>225.256679</ele>
        <time>2011-03-12T10:33:04Z</time>
      </trkpt>
      <trkpt lat="46.87055" lon="4.73197">
        <ele>225.451281</ele>
        <time>2011-03-12T10:33:07Z</time>
      </trkpt>
      <trkpt lat="46.87061" lon="4.73182">
        <ele>225.659018</ele>
        <time>2011-03-12T10:33:10Z</time>
      </trkpt>
      <trkpt lat="46.87068" lon="4.73168">
        <ele>225.945915</ele>
        <time>2011-03-12T10:33:13Z</time>
      </trkpt>
      <trkpt lat="46.87073" lon="4.73155">
        <ele>226.342019</ele>
        <time>2011-03-12T10:33:16Z</time>
      </trkpt>
      <trkpt lat="46.87078" lon="4.73142">
        <ele>226.776619</ele>
        <time>2011-03-12T10:33:19Z</time>
      </trkpt>
      <trkpt lat="46.87082" lon="4.7313">
        <ele>227.14034</ele>
        <time>2011-03-12T10:33:22Z</time>
      </trkpt>
      <trkpt lat="46.87086" lon="4.73117">
        <ele>227.340473</ele>
        <time>2011-03-12T10:33:25Z</time>
      </trkpt>
      <trkpt lat="46.8709" lon="4.73105">
        <ele>227.388169</ele>
        <time>2011-03-12T10:33:28Z</time>
      </trkpt>
      <trkpt lat="46.87095" lon="4.7309">
        <ele>227.367012</ele>
        <time>2011-03-12T10:33:32Z</time>
      </trkpt>
      <trkpt lat="46.87099" lon="4.73075">
        <ele>227.332415</ele>
        <time>2011-03-12T10:33:36Z</time>
      </trkpt>
      <trkpt lat="46.87102" lon="4.73061">
        <ele>227.289227</ele>
        <time>2011-03-12T10:33:40Z</time>
      </trkpt>
      <trkpt lat="46.87105" lon="4.73046">
        <ele>227.219004</ele>
        <time>2011-03-12T10:33:44Z</time>
      </trkpt>
      <trkpt lat="46.87115" lon="4.7304">
        <ele>227.119025</ele>
        <time>2011-03-12T10:33:49Z</time>
      </trkpt>
      <trkpt lat="46.87125" lon="4.73038">
        <ele>227.020549</ele>
        <time>2011-03-12T10:33:53Z</time>
      </trkpt>
      <trkpt lat="46.87135" lon="4.73035">
        <ele>226.9608</ele>
        <time>2011-03-12T10:33:57Z</time>
      </trkpt>
      <trkpt lat="46.87145" lon="4.73031">
        <ele>226.943928</ele>
        <time>2011-03-12T10:34:01Z</time>
      </trkpt>
      <trkpt lat="46.87155" lon="4.73027">
        <ele>226.949222</ele>
        <time>2011-03-12T10:34:05Z</time>
      </trkpt>
      <trkpt lat="46.87166" lon="4.73026">
        <ele>226.979506</ele>
        <time>2011-03-12T10:34:09Z</time>
      </trkpt>
      <trkpt lat="46.87166" lon="4.73026">
        <ele>227.038264</ele>
        <time>2011-03-12T10:34:12Z</time>
      </trkpt>
      <trkpt lat="46.87201" lon="4.7303">
        <ele>227.119396</ele>
        <time>2011-03-12T10:34:26Z</time>
      </trkpt>
      <trkpt lat="46.87201" lon="4.7303">
        <ele>227.211558</ele>
        <time>2011-03-12T10:34:29Z</time>
      </trkpt>
      <trkpt lat="46.8721" lon="4.73011">
        <ele>227.317034</ele>
        <time>2011-03-12T10:34:33Z</time>
      </trkpt>
      <trkpt lat="46.87211" lon="4.72996">
        <ele>227.485151</ele>
        <time>2011-03-12T10:34:37Z</time>
      </trkpt>
      <trkpt lat="46.87216" lon="4.72982">
        <ele>228.043023</ele>
        <time>2011-03-12T10:34:41Z</time>
      </trkpt>
      <trkpt lat="46.87216" lon="4.72982">
        <ele>229.07847</ele>
        <time>2011-03-12T10:34:47Z</time>
      </trkpt>
      <trkpt lat="46.87234" lon="4.72931">
        <ele>230.241264</ele>
        <time>2011-03-12T10:34:58Z</time>
      </trkpt>
      <trkpt lat="46.87236" lon="4.72917">
        <ele>231.338057</ele>
        <time>2011-03-12T10:35:02Z</time>
      </trkpt>
      <trkpt lat="46.87233" lon="4.72891">
        <ele>232.38887</ele>
        <time>2011-03-12T10:35:09Z</time>
      </trkpt>
      <trkpt lat="46.87226" lon="4.72882">
        <ele>233.553982</ele>
        <time>2011-03-12T10:35:14Z</time>
      </trkpt>
      <trkpt lat="46.87219" lon="4.72871">
        <ele>234.927952</ele>
        <time>2011-03-12T10:35:19Z</time>
      </trkpt>
      <trkpt lat="46.87213" lon="4.7286">
        <ele>236.142833</ele>
        <time>2011-03-12T10:35:23Z</time>
      </trkpt>
      <trkpt lat="46.87208" lon="4.72848">
        <ele>236.973539</ele>
        <time>2011-03-12T10:35:27Z</time>
      </trkpt>
      <trkpt lat="46.87207" lon="4.72828">
        <ele>237.616069</ele>
        <time>2011-03-12T10:35:33Z</time>
      </trkpt>
      <trkpt lat="46.87208" lon="4.72802">
        <ele>238.217089</ele>
        <time>2011-03-12T10:35:45Z</time>
      </trkpt>
      <trkpt lat="46.87212" lon="4.72789">
        <ele>238.809096</ele>
        <time>2011-03-12T10:35:53Z</time>
      </trkpt>
      <trkpt lat="46.87218" lon="4.72778">
        <ele>239.373371</ele>
        <time>2011-03-12T10:36:01Z</time>
      </trkpt>
      <trkpt lat="46.87223" lon="4.72765">
        <ele>239.978785</ele>
        <time>2011-03-12T10:36:08Z</time>
      </trkpt>
      <trkpt lat="46.87229" lon="4.72755">
        <ele>240.70777</ele>
        <time>2011-03-12T10:36:16Z</time>
      </trkpt>
      <trkpt lat="46.87232" lon="4.72741">
        <ele>241.455959</ele>
        <time>2011-03-12T10:36:26Z</time>
      </trkpt>
      <trkpt lat="46.87235" lon="4.72727">
        <ele>242.058112</ele>
        <time>2011-03-12T10:36:33Z</time>
      </trkpt>
      <trkpt lat="46.87237" lon="4.72713">
        <ele>242.460208</ele>
        <time>2011-03-12T10:36:41Z</time>
      </trkpt>
      <trkpt lat="46.87235" lon="4.727">
        <ele>242.654001</ele>
        <time>2011-03-12T10:36:49Z</time>
      </trkpt>
      <trkpt lat="46.87234" lon="4.72686">
        <ele>242.686066</ele>
        <time>2011-03-12T10:36:57Z</time>
      </trkpt>
      <trkpt lat="46.87232" lon="4.72671">
        <ele>242.709593</ele>
        <time>2011-03-12T10:37:08Z</time>
      </trkpt>
      <trkpt lat="46.87231" lon="4.72656">
        <ele>242.817151</ele>
        <time>2011-03-12T10:37:15Z</time>
      </trkpt>
      <trkpt lat="46.87228" lon="4.72644">
        <ele>242.944279</ele>
        <time>2011-03-12T10:37:22Z</time>
      </trkpt>
      <trkpt lat="46.87222" lon="4.72631">
        <ele>243.146657</ele>
        <time>2011-03-12T10:37:29Z</time>
      </trkpt>
      <trkpt lat="46.87221" lon="4.72618">
        <ele>243.621331</ele>
        <time>2011-03-12T10:37:36Z</time>
      </trkpt>
      <trkpt lat="46.8722" lon="4.72598">
        <ele>244.332302</ele>
        <time>2011-03-12T10:37:47Z</time>
      </trkpt>
      <trkpt lat="46.87218" lon="4.72584">
        <ele>245.088665</ele>
        <time>2011-03-12T10:37:53Z</time>
      </trkpt>
      <trkpt lat="46.87215" lon="4.72571">
        <ele>245.85884</ele>
        <time>2011-03-12T10:38:01Z</time>
      </trkpt>
      <trkpt lat="46.87212" lon="4.72554">
        <ele>246.827359</ele>
        <time>2011-03-12T10:38:12Z</time>
      </trkpt>
      <trkpt lat="46.87212" lon="4.72536">
        <ele>248.160033</ele>
        <time>2011-03-12T10:38:28Z</time>
      </trkpt>
      <trkpt lat="46.87209" lon="4.72523">
        <ele>249.772425</ele>
        <time>2011-03-12T10:38:35Z</time>
      </trkpt>
      <trkpt lat="46.87205" lon="4.72509">
        <ele>251.538997</ele>
        <time>2011-03-12T10:38:47Z</time>
      </trkpt>
      <trkpt lat="46.87206" lon="4.72495">
        <ele>253.463252</ele>
        <time>2011-03-12T10:38:57Z</time>
      </trkpt>
      <trkpt lat="46.87208" lon="4.72481">
        <ele>255.262632</ele>
        <time>2011-03-12T10:39:09Z</time>
      </trkpt>
      <trkpt lat="46.87208" lon="4.72481">
        <ele>256.420201</ele>
        <time>2011-03-12T10:39:19Z</time>
      </trkpt>
      <trkpt lat="46.87198" lon="4.72444">
        <ele>257.048775</ele>
        <time>2011-03-12T10:40:10Z</time>
      </trkpt>
      <trkpt lat="46.87203" lon="4.72432">
        <ele>258.004449</ele>
        <time>2011-03-12T10:40:19Z</time>
      </trkpt>
      <trkpt lat="46.87203" lon="4.72432">
        <ele>259.48204</ele>
        <time>2011-03-12T10:40:34Z</time>
      </trkpt>
      <trkpt lat="46.8721" lon="4.72467">
        <ele>261.046465</ele>
        <time>2011-03-12T10:41:22Z</time>
      </trkpt>
      <trkpt lat="46.87205" lon="4.72479">
        <ele>265.366111</ele>
        <time>2011-03-12T10:41:30Z</time>
      </trkpt>
      <trkpt lat="46.87203" lon="4.72492">
        <ele>274.479835</ele>
        <time>2011-03-12T10:41:38Z</time>
      </trkpt>
      <trkpt lat="46.87202" lon="4.72507">
        <ele>286.25999</ele>
        <time>2011-03-12T10:41:49Z</time>
      </trkpt>
      <trkpt lat="46.87202" lon="4.72521">
        <ele>297.225976</ele>
        <time>2011-03-12T10:42:00Z</time>
      </trkpt>
      <trkpt lat="46.87203" lon="4.72534">
        <ele>304.421339</ele>
        <time>2011-03-12T10:42:07Z</time>
      </trkpt>
      <trkpt lat="46.87203" lon="4.72534">
        <ele>306.754879</ele>
        <time>2011-03-12T10:42:24Z</time>
      </trkpt>
      <trkpt lat="46.87232" lon="4.72566">
        <ele>306.4595</ele>
        <time>2011-03-12T10:43:09Z</time>
      </trkpt>
      <trkpt lat="46.8724" lon="4.72574">
        <ele>305.531412</ele>
        <time>2011-03-12T10:43:23Z</time>
      </trkpt>
      <trkpt lat="46.87248" lon="4.72582">
        <ele>304.760624</ele>
        <time>2011-03-12T10:43:33Z</time>
      </trkpt>
      <trkpt lat="46.87248" lon="4.72582">
        <ele>304.254431</ele>
        <time>2011-03-12T10:43:40Z</time>
      </trkpt>
      <trkpt lat="46.87266" lon="4.72611">
        <ele>303.403094</ele>
        <time>2011-03-12T10:44:36Z</time>
      </trkpt>
      <trkpt lat="46.87266" lon="4.72611">
        <ele>301.778204</ele>
        <time>2011-03-12T10:44:37Z</time>
      </trkpt>
      <trkpt lat="46.87266" lon="4.72611">
        <ele>300.189523</ele>
        <time>2011-03-12T10:44:38Z</time>
      </trkpt>
      <trkpt lat="46.87266" lon="4.72611">
        <ele>299.482496</ele>
        <time>2011-03-12T10:44:38Z</time>
      </trkpt>
      <trkpt lat="46.87264" lon="4.72572">
        <ele>299.668656</ele>
        <time>2011-03-12T10:46:46Z</time>
      </trkpt>
      <trkpt lat="46.87264" lon="4.72572">
        <ele>300.441412</ele>
        <time>2011-03-12T10:46:46Z</time>
      </trkpt>
      <trkpt lat="46.87264" lon="4.72572">
        <ele>301.004263</ele>
        <time>2011-03-12T10:46:47Z</time>
      </trkpt>
      <trkpt lat="46.87264" lon="4.72572">
        <ele>300.942905</ele>
        <time>2011-03-12T10:46:47Z</time>
      </trkpt>
      <trkpt lat="46.87264" lon="4.72572">
        <ele>300.687285</ele>
        <time>2011-03-12T10:46:48Z</time>
      </trkpt>
      <trkpt lat="46.87264" lon="4.72572">
        <ele>300.539296</ele>
        <time>2011-03-12T10:46:50Z</time>
      </trkpt>
      <trkpt lat="46.87264" lon="4.72572">
        <ele>300.426931</ele>
        <time>2011-03-12T10:47:18Z</time>
      </trkpt>
      <trkpt lat="46.87289" lon="4.72554">
        <ele>300.349281</ele>
        <time>2011-03-12T10:53:27Z</time>
      </trkpt>
      <trkpt lat="46.87298" lon="4.72556">
        <ele>300.358227</ele>
        <time>2011-03-12T10:53:32Z</time>
      </trkpt>
      <trkpt lat="46.87308" lon="4.72558">
        <ele>300.460992</ele>
        <time>2011-03-12T10:53:36Z</time>
      </trkpt>
      <trkpt lat="46.87319" lon="4.72556">
        <ele>304.255932</ele>
        <time>2011-03-12T10:53:41Z</time>
      </trkpt>
      <trkpt lat="46.87328" lon="4.72557">
        <ele>313.886291</ele>
        <time>2011-03-12T10:53:46Z</time>
      </trkpt>
      <trkpt lat="46.87338" lon="4.72557">
        <ele>323.715921</ele>
        <time>2011-03-12T10:53:54Z</time>
      </trkpt>
      <trkpt lat="46.87348" lon="4.72561">
        <ele>328.363566</ele>
        <time>2011-03-12T10:54:02Z</time>
      </trkpt>
      <trkpt lat="46.87356" lon="4.7257">
        <ele>328.950301</ele>
        <time>2011-03-12T10:54:07Z</time>
      </trkpt>
      <trkpt lat="46.87365" lon="4.72577">
        <ele>327.756362</ele>
        <time>2011-03-12T10:54:13Z</time>
      </trkpt>
      <trkpt lat="46.87378" lon="4.72577">
        <ele>326.306302</ele>
        <time>2011-03-12T10:54:19Z</time>
      </trkpt>
      <trkpt lat="46.87391" lon="4.72576">
        <ele>325.193037</ele>
        <time>2011-03-12T10:54:23Z</time>
      </trkpt>
      <trkpt lat="46.87401" lon="4.72579">
        <ele>324.392279</ele>
        <time>2011-03-12T10:54:34Z</time>
      </trkpt>
      <trkpt lat="46.87409" lon="4.72585">
        <ele>323.833459</ele>
        <time>2011-03-12T10:54:41Z</time>
      </trkpt>
      <trkpt lat="46.87418" lon="4.72591">
        <ele>323.558753</ele>
        <time>2011-03-12T10:54:45Z</time>
      </trkpt>
      <trkpt lat="46.87427" lon="4.72596">
        <ele>323.511404</ele>
        <time>2011-03-12T10:54:51Z</time>
      </trkpt>
      <trkpt lat="46.87437" lon="4.72601">
        <ele>323.853702</ele>
        <time>2011-03-12T10:54:56Z</time>
      </trkpt>
      <trkpt lat="46.87447" lon="4.72602">
        <ele>324.808823</ele>
        <time>2011-03-12T10:55:01Z</time>
      </trkpt>
      <trkpt lat="46.87457" lon="4.72605">
        <ele>326.125842</ele>
        <time>2011-03-12T10:55:06Z</time>
      </trkpt>
      <trkpt lat="46.87464" lon="4.72614">
        <ele>327.346966</ele>
        <time>2011-03-12T10:55:09Z</time>
      </trkpt>
      <trkpt lat="46.87473" lon="4.72622">
        <ele>328.267536</ele>
        <time>2011-03-12T10:55:12Z</time>
      </trkpt>
      <trkpt lat="46.87482" lon="4.72628">
        <ele>328.83222</ele>
        <time>2011-03-12T10:55:15Z</time>
      </trkpt>
      <trkpt lat="46.87491" lon="4.72631">
        <ele>329.085192</ele>
        <time>2011-03-12T10:55:19Z</time>
      </trkpt>
      <trkpt lat="46.87501" lon="4.72632">
        <ele>329.1267</ele>
        <time>2011-03-12T10:55:27Z</time>
      </trkpt>
      <trkpt lat="46.87511" lon="4.72636">
        <ele>329.085836</ele>
        <time>2011-03-12T10:55:33Z</time>
      </trkpt>
      <trkpt lat="46.87521" lon="4.72641">
        <ele>329.007358</ele>
        <time>2011-03-12T10:55:38Z</time>
      </trkpt>
      <trkpt lat="46.87531" lon="4.72647">
        <ele>328.77953</ele>
        <time>2011-03-12T10:55:42Z</time>
      </trkpt>
      <trkpt lat="46.87542" lon="4.72652">
        <ele>328.350699</ele>
        <time>2011-03-12T10:55:45Z</time>
      </trkpt>
      <trkpt lat="46.87551" lon="4.72655">
        <ele>327.918235</ele>
        <time>2011-03-12T10:55:47Z</time>
      </trkpt>
      <trkpt lat="46.87563" lon="4.72657">
        <ele>327.68229</ele>
        <time>2011-03-12T10:55:50Z</time>
      </trkpt>
      <trkpt lat="46.87574" lon="4.72656">
        <ele>327.628087</ele>
        <time>2011-03-12T10:55:53Z</time>
      </trkpt>
      <trkpt lat="46.87586" lon="4.72658">
        <ele>327.683237</ele>
        <time>2011-03-12T10:55:56Z</time>
      </trkpt>
      <trkpt lat="46.87606" lon="4.72662">
        <ele>327.860654</ele>
        <time>2011-03-12T10:55:59Z</time>
      </trkpt>
      <trkpt lat="46.87616" lon="4.72664">
        <ele>328.131833</ele>
        <time>2011-03-12T10:56:01Z</time>
      </trkpt>
      <trkpt lat="46.87627" lon="4.72666">
        <ele>328.352565</ele>
        <time>2011-03-12T10:56:04Z</time>
      </trkpt>
      <trkpt lat="46.87637" lon="4.72669">
        <ele>328.441283</ele>
        <time>2011-03-12T10:56:07Z</time>
      </trkpt>
      <trkpt lat="46.87637" lon="4.72669">
        <ele>328.408709</ele>
        <time>2011-03-12T10:56:09Z</time>
      </trkpt>
      <trkpt lat="46.87654" lon="4.72678">
        <ele>328.281196</ele>
        <time>2011-03-12T10:56:13Z</time>
      </trkpt>
      <trkpt lat="46.87662" lon="4.72685">
        <ele>328.13667</ele>
        <time>2011-03-12T10:56:16Z</time>
      </trkpt>
      <trkpt lat="46.87673" lon="4.72692">
        <ele>328.039771</ele>
        <time>2011-03-12T10:56:19Z</time>
      </trkpt>
      <trkpt lat="46.87683" lon="4.72698">
        <ele>327.936884</ele>
        <time>2011-03-12T10:56:21Z</time>
      </trkpt>
      <trkpt lat="46.877" lon="4.72707">
        <ele>327.733034</ele>
        <time>2011-03-12T10:56:24Z</time>
      </trkpt>
      <trkpt lat="46.87712" lon="4.72713">
        <ele>327.464984</ele>
        <time>2011-03-12T10:56:26Z</time>
      </trkpt>
      <trkpt lat="46.87737" lon="4.7272">
        <ele>327.271096</ele>
        <time>2011-03-12T10:56:29Z</time>
      </trkpt>
      <trkpt lat="46.87761" lon="4.72728">
        <ele>327.201672</ele>
        <time>2011-03-12T10:56:32Z</time>
      </trkpt>
      <trkpt lat="46.87772" lon="4.72733">
        <ele>327.313869</ele>
        <time>2011-03-12T10:56:34Z</time>
      </trkpt>
      <trkpt lat="46.87787" lon="4.72745">
        <ele>327.690726</ele>
        <time>2011-03-12T10:56:37Z</time>
      </trkpt>
      <trkpt lat="46.87798" lon="4.72762">
        <ele>328.18188</ele>
        <time>2011-03-12T10:56:40Z</time>
      </trkpt>
      <trkpt lat="46.8781" lon="4.72781">
        <ele>328.51432</ele>
        <time>2011-03-12T10:56:43Z</time>
      </trkpt>
      <trkpt lat="46.87815" lon="4.72795">
        <ele>328.624364</ele>
        <time>2011-03-12T10:56:45Z</time>
      </trkpt>
      <trkpt lat="46.87822" lon="4.72815">
        <ele>328.393913</ele>
        <time>2011-03-12T10:56:48Z</time>
      </trkpt>
      <trkpt lat="46.87831" lon="4.72835">
        <ele>327.318005</ele>
        <time>2011-03-12T10:56:51Z</time>
      </trkpt>
      <trkpt lat="46.87837" lon="4.72847">
        <ele>325.325577</ele>
        <time>2011-03-12T10:56:53Z</time>
      </trkpt>
      <trkpt lat="46.87845" lon="4.72856">
        <ele>323.103937</ele>
        <time>2011-03-12T10:56:55Z</time>
      </trkpt>
      <trkpt lat="46.87858" lon="4.72865">
        <ele>321.017305</ele>
        <time>2011-03-12T10:56:58Z</time>
      </trkpt>
      <trkpt lat="46.87867" lon="4.72871">
        <ele>318.963378</ele>
        <time>2011-03-12T10:57:00Z</time>
      </trkpt>
      <trkpt lat="46.87877" lon="4.72875">
        <ele>317.092381</ele>
        <time>2011-03-12T10:57:02Z</time>
      </trkpt>
      <trkpt lat="46.87892" lon="4.7288">
        <ele>315.74839</ele>
        <time>2011-03-12T10:57:05Z</time>
      </trkpt>
      <trkpt lat="46.87892" lon="4.7288">
        <ele>315.110123</ele>
        <time>2011-03-12T10:57:07Z</time>
      </trkpt>
      <trkpt lat="46.87914" lon="4.72885">
        <ele>315.013101</ele>
        <time>2011-03-12T10:57:11Z</time>
      </trkpt>
      <trkpt lat="46.87926" lon="4.72885">
        <ele>315.138017</ele>
        <time>2011-03-12T10:57:14Z</time>
      </trkpt>
      <trkpt lat="46.87938" lon="4.7289">
        <ele>315.455485</ele>
        <time>2011-03-12T10:57:17Z</time>
      </trkpt>
      <trkpt lat="46.87946" lon="4.72899">
        <ele>316.041759</ele>
        <time>2011-03-12T10:57:20Z</time>
      </trkpt>
      <trkpt lat="46.87958" lon="4.72909">
        <ele>316.75105</ele>
        <time>2011-03-12T10:57:23Z</time>
      </trkpt>
      <trkpt lat="46.87969" lon="4.72916">
        <ele>317.427352</ele>
        <time>2011-03-12T10:57:26Z</time>
      </trkpt>
      <trkpt lat="46.87981" lon="4.72918">
        <ele>318.068385</ele>
        <time>2011-03-12T10:57:29Z</time>
      </trkpt>
      <trkpt lat="46.87993" lon="4.72922">
        <ele>318.605678</ele>
        <time>2011-03-12T10:57:32Z</time>
      </trkpt>
      <trkpt lat="46.88005" lon="4.72933">
        <ele>318.931949</ele>
        <time>2011-03-12T10:57:35Z</time>
      </trkpt>
      <trkpt lat="46.8802" lon="4.72946">
        <ele>319.042035</ele>
        <time>2011-03-12T10:57:38Z</time>
      </trkpt>
      <trkpt lat="46.88036" lon="4.72965">
        <ele>319.031855</ele>
        <time>2011-03-12T10:57:41Z</time>
      </trkpt>
      <trkpt lat="46.88053" lon="4.72987">
        <ele>318.915159</ele>
        <time>2011-03-12T10:57:44Z</time>
      </trkpt>
      <trkpt lat="46.88069" lon="4.73008">
        <ele>318.686409</ele>
        <time>2011-03-12T10:57:47Z</time>
      </trkpt>
      <trkpt lat="46.88084" lon="4.73029">
        <ele>318.469971</ele>
        <time>2011-03-12T10:57:50Z</time>
      </trkpt>
      <trkpt lat="46.88096" lon="4.73053">
        <ele>318.372394</ele>
        <time>2011-03-12T10:57:53Z</time>
      </trkpt>
      <trkpt lat="46.8811" lon="4.7307">
        <ele>318.637447</ele>
        <time>2011-03-12T10:57:55Z</time>
      </trkpt>
      <trkpt lat="46.88128" lon="4.73095">
        <ele>319.406174</ele>
        <time>2011-03-12T10:57:58Z</time>
      </trkpt>
      <trkpt lat="46.88138" lon="4.73113">
        <ele>320.240815</ele>
        <time>2011-03-12T10:58:00Z</time>
      </trkpt>
      <trkpt lat="46.88148" lon="4.73134">
        <ele>321.015454</ele>
        <time>2011-03-12T10:58:03Z</time>
      </trkpt>
      <trkpt lat="46.88148" lon="4.73134">
        <ele>321.98033</ele>
        <time>2011-03-12T10:58:05Z</time>
      </trkpt>
      <trkpt lat="46.88177" lon="4.73115">
        <ele>323.152186</ele>
        <time>2011-03-12T10:58:22Z</time>
      </trkpt>
      <trkpt lat="46.88177" lon="4.73115">
        <ele>324.375811</ele>
        <time>2011-03-12T10:58:26Z</time>
      </trkpt>
      <trkpt lat="46.88191" lon="4.7307">
        <ele>325.408575</ele>
        <time>2011-03-12T10:58:39Z</time>
      </trkpt>
      <trkpt lat="46.88199" lon="4.73052">
        <ele>326.070473</ele>
        <time>2011-03-12T10:58:46Z</time>
      </trkpt>
      <trkpt lat="46.88204" lon="4.73039">
        <ele>326.50557</ele>
        <time>2011-03-12T10:58:52Z</time>
      </trkpt>
      <trkpt lat="46.88208" lon="4.73026">
        <ele>326.806859</ele>
        <time>2011-03-12T10:58:58Z</time>
      </trkpt>
      <trkpt lat="46.88215" lon="4.73016">
        <ele>326.994195</ele>
        <time>2011-03-12T10:59:07Z</time>
      </trkpt>
      <trkpt lat="46.88218" lon="4.73003">
        <ele>327.064766</ele>
        <time>2011-03-12T10:59:14Z</time>
      </trkpt>
      <trkpt lat="46.88224" lon="4.72992">
        <ele>327.109219</ele>
        <time>2011-03-12T10:59:22Z</time>
      </trkpt>
      <trkpt lat="46.88231" lon="4.72978">
        <ele>327.191872</ele>
        <time>2011-03-12T10:59:31Z</time>
      </trkpt>
      <trkpt lat="46.88237" lon="4.72967">
        <ele>327.322756</ele>
        <time>2011-03-12T10:59:38Z</time>
      </trkpt>
      <trkpt lat="46.88242" lon="4.72955">
        <ele>327.513762</ele>
        <time>2011-03-12T10:59:44Z</time>
      </trkpt>
      <trkpt lat="46.88246" lon="4.72943">
        <ele>327.772591</ele>
        <time>2011-03-12T10:59:50Z</time>
      </trkpt>
      <trkpt lat="46.88251" lon="4.72931">
        <ele>328.034662</ele>
        <time>2011-03-12T10:59:57Z</time>
      </trkpt>
      <trkpt lat="46.88257" lon="4.7292">
        <ele>328.211972</ele>
        <time>2011-03-12T11:00:04Z</time>
      </trkpt>
      <trkpt lat="46.88261" lon="4.72907">
        <ele>328.279896</ele>
        <time>2011-03-12T11:00:10Z</time>
      </trkpt>
      <trkpt lat="46.88266" lon="4.72894">
        <ele>328.310509</ele>
        <time>2011-03-12T11:00:17Z</time>
      </trkpt>
      <trkpt lat="46.88273" lon="4.72883">
        <ele>328.404875</ele>
        <time>2011-03-12T11:00:23Z</time>
      </trkpt>
      <trkpt lat="46.88279" lon="4.72871">
        <ele>328.606124</ele>
        <time>2011-03-12T11:00:30Z</time>
      </trkpt>
      <trkpt lat="46.88283" lon="4.72858">
        <ele>328.887069</ele>
        <time>2011-03-12T11:00:36Z</time>
      </trkpt>
      <trkpt lat="46.88288" lon="4.72846">
        <ele>329.205227</ele>
        <time>2011-03-12T11:00:42Z</time>
      </trkpt>
      <trkpt lat="46.88293" lon="4.72833">
        <ele>329.532906</ele>
        <time>2011-03-12T11:00:48Z</time>
      </trkpt>
      <trkpt lat="46.88293" lon="4.72818">
        <ele>329.87681</ele>
        <time>2011-03-12T11:00:54Z</time>
      </trkpt>
      <trkpt lat="46.88286" lon="4.72806">
        <ele>330.311182</ele>
        <time>2011-03-12T11:00:59Z</time>
      </trkpt>
      <trkpt lat="46.8828" lon="4.72795">
        <ele>330.914761</ele>
        <time>2011-03-12T11:01:03Z</time>
      </trkpt>
      <trkpt lat="46.88273" lon="4.72783">
        <ele>331.722473</ele>
        <time>2011-03-12T11:01:07Z</time>
      </trkpt>
      <trkpt lat="46.88266" lon="4.72773">
        <ele>332.745016</ele>
        <time>2011-03-12T11:01:10Z</time>
      </trkpt>
      <trkpt lat="46.88259" lon="4.72761">
        <ele>333.943781</ele>
        <time>2011-03-12T11:01:13Z</time>
      </trkpt>
      <trkpt lat="46.88252" lon="4.72749">
        <ele>335.228435</ele>
        <time>2011-03-12T11:01:16Z</time>
      </trkpt>
      <trkpt lat="46.88242" lon="4.7274">
        <ele>336.88159</ele>
        <time>2011-03-12T11:01:19Z</time>
      </trkpt>
      <trkpt lat="46.88231" lon="4.72731">
        <ele>339.018723</ele>
        <time>2011-03-12T11:01:22Z</time>
      </trkpt>
      <trkpt lat="46.8822" lon="4.7272">
        <ele>340.997766</ele>
        <time>2011-03-12T11:01:25Z</time>
      </trkpt>
      <trkpt lat="46.88212" lon="4.72712">
        <ele>342.325152</ele>
        <time>2011-03-12T11:01:27Z</time>
      </trkpt>
      <trkpt lat="46.88204" lon="4.72704">
        <ele>343.811221</ele>
        <time>2011-03-12T11:01:29Z</time>
      </trkpt>
      <trkpt lat="46.88197" lon="4.72696">
        <ele>346.547298</ele>
        <time>2011-03-12T11:01:31Z</time>
      </trkpt>
      <trkpt lat="46.88186" lon="4.72684">
        <ele>350.143675</ele>
        <time>2011-03-12T11:01:34Z</time>
      </trkpt>
      <trkpt lat="46.88177" lon="4.72671">
        <ele>353.173635</ele>
        <time>2011-03-12T11:01:37Z</time>
      </trkpt>
      <trkpt lat="46.88165" lon="4.72659">
        <ele>355.014041</ele>
        <time>2011-03-12T11:01:40Z</time>
      </trkpt>
      <trkpt lat="46.88158" lon="4.72647">
        <ele>355.924979</ele>
        <time>2011-03-12T11:01:42Z</time>
      </trkpt>
      <trkpt lat="46.88156" lon="4.7263">
        <ele>356.295333</ele>
        <time>2011-03-12T11:01:45Z</time>
      </trkpt>
      <trkpt lat="46.88157" lon="4.72617">
        <ele>356.37464</ele>
        <time>2011-03-12T11:01:48Z</time>
      </trkpt>
      <trkpt lat="46.88162" lon="4.72605">
        <ele>356.328754</ele>
        <time>2011-03-12T11:01:52Z</time>
      </trkpt>
      <trkpt lat="46.88171" lon="4.72594">
        <ele>356.208489</ele>
        <time>2011-03-12T11:01:57Z</time>
      </trkpt>
      <trkpt lat="46.88177" lon="4.72584">
        <ele>356.006279</ele>
        <time>2011-03-12T11:02:01Z</time>
      </trkpt>
      <trkpt lat="46.88185" lon="4.72576">
        <ele>355.801997</ele>
        <time>2011-03-12T11:02:07Z</time>
      </trkpt>
      <trkpt lat="46.8819" lon="4.72566">
        <ele>355.67426</ele>
        <time>2011-03-12T11:02:12Z</time>
      </trkpt>
      <trkpt lat="46.88193" lon="4.72553">
        <ele>355.613573</ele>
        <time>2011-03-12T11:02:17Z</time>
      </trkpt>
      <trkpt lat="46.88194" lon="4.72538">
        <ele>355.59677</ele>
        <time>2011-03-12T11:02:22Z</time>
      </trkpt>
      <trkpt lat="46.882" lon="4.72527">
        <ele>355.601425</ele>
        <time>2011-03-12T11:02:27Z</time>
      </trkpt>
      <trkpt lat="46.88204" lon="4.72513">
        <ele>355.64117</ele>
        <time>2011-03-12T11:02:33Z</time>
      </trkpt>
      <trkpt lat="46.88214" lon="4.72518">
        <ele>355.755297</ele>
        <time>2011-03-12T11:02:41Z</time>
      </trkpt>
      <trkpt lat="46.88221" lon="4.72528">
        <ele>355.921746</ele>
        <time>2011-03-12T11:02:47Z</time>
      </trkpt>
      <trkpt lat="46.8823" lon="4.72537">
        <ele>356.0601</ele>
        <time>2011-03-12T11:02:52Z</time>
      </trkpt>
      <trkpt lat="46.88239" lon="4.72545">
        <ele>356.126656</ele>
        <time>2011-03-12T11:02:56Z</time>
      </trkpt>
      <trkpt lat="46.88245" lon="4.72558">
        <ele>356.137284</ele>
        <time>2011-03-12T11:03:00Z</time>
      </trkpt>
      <trkpt lat="46.88249" lon="4.72571">
        <ele>356.089453</ele>
        <time>2011-03-12T11:03:03Z</time>
      </trkpt>
      <trkpt lat="46.88254" lon="4.72583">
        <ele>355.95095</ele>
        <time>2011-03-12T11:03:06Z</time>
      </trkpt>
      <trkpt lat="46.8826" lon="4.72598">
        <ele>355.729746</ele>
        <time>2011-03-12T11:03:10Z</time>
      </trkpt>
      <trkpt lat="46.88264" lon="4.7261">
        <ele>355.487214</ele>
        <time>2011-03-12T11:03:13Z</time>
      </trkpt>
      <trkpt lat="46.88274" lon="4.72621">
        <ele>355.298954</ele>
        <time>2011-03-12T11:03:17Z</time>
      </trkpt>
      <trkpt lat="46.8828" lon="4.72631">
        <ele>355.208718</ele>
        <time>2011-03-12T11:03:20Z</time>
      </trkpt>
      <trkpt lat="46.88284" lon="4.72643">
        <ele>355.194502</ele>
        <time>2011-03-12T11:03:23Z</time>
      </trkpt>
      <trkpt lat="46.88286" lon="4.72657">
        <ele>355.21705</ele>
        <time>2011-03-12T11:03:26Z</time>
      </trkpt>
      <trkpt lat="46.8829" lon="4.72671">
        <ele>355.26886</ele>
        <time>2011-03-12T11:03:28Z</time>
      </trkpt>
      <trkpt lat="46.88302" lon="4.72683">
        <ele>355.355777</ele>
        <time>2011-03-12T11:03:31Z</time>
      </trkpt>
      <trkpt lat="46.8831" lon="4.72686">
        <ele>355.532969</ele>
        <time>2011-03-12T11:03:33Z</time>
      </trkpt>
      <trkpt lat="46.88325" lon="4.7269">
        <ele>355.944506</ele>
        <time>2011-03-12T11:03:36Z</time>
      </trkpt>
      <trkpt lat="46.88335" lon="4.72693">
        <ele>356.539495</ele>
        <time>2011-03-12T11:03:38Z</time>
      </trkpt>
      <trkpt lat="46.88347" lon="4.72696">
        <ele>357.007415</ele>
        <time>2011-03-12T11:03:41Z</time>
      </trkpt>
      <trkpt lat="46.88357" lon="4.72693">
        <ele>357.189749</ele>
        <time>2011-03-12T11:03:44Z</time>
      </trkpt>
      <trkpt lat="46.88368" lon="4.72691">
        <ele>357.133599</ele>
        <time>2011-03-12T11:03:47Z</time>
      </trkpt>
      <trkpt lat="46.88379" lon="4.72689">
        <ele>356.882584</ele>
        <time>2011-03-12T11:03:51Z</time>
      </trkpt>
      <trkpt lat="46.88387" lon="4.72698">
        <ele>356.553631</ele>
        <time>2011-03-12T11:03:54Z</time>
      </trkpt>
      <trkpt lat="46.88387" lon="4.72698">
        <ele>356.295748</ele>
        <time>2011-03-12T11:03:57Z</time>
      </trkpt>
      <trkpt lat="46.88387" lon="4.72698">
        <ele>356.154542</ele>
        <time>2011-03-12T11:04:25Z</time>
      </trkpt>
      <trkpt lat="46.88399" lon="4.72721">
        <ele>356.103732</ele>
        <time>2011-03-12T11:05:14Z</time>
      </trkpt>
      <trkpt lat="46.88407" lon="4.72739">
        <ele>356.104135</ele>
        <time>2011-03-12T11:05:17Z</time>
      </trkpt>
      <trkpt lat="46.88414" lon="4.72754">
        <ele>356.120265</ele>
        <time>2011-03-12T11:05:19Z</time>
      </trkpt>
      <trkpt lat="46.88425" lon="4.72768">
        <ele>356.135051</ele>
        <time>2011-03-12T11:05:21Z</time>
      </trkpt>
      <trkpt lat="46.88443" lon="4.72784">
        <ele>356.66327</ele>
        <time>2011-03-12T11:05:24Z</time>
      </trkpt>
      <trkpt lat="46.88455" lon="4.72794">
        <ele>358.202731</ele>
        <time>2011-03-12T11:05:26Z</time>
      </trkpt>
      <trkpt lat="46.88479" lon="4.72809">
        <ele>360.092561</ele>
        <time>2011-03-12T11:05:29Z</time>
      </trkpt>
      <trkpt lat="46.88499" lon="4.72821">
        <ele>361.301843</ele>
        <time>2011-03-12T11:05:31Z</time>
      </trkpt>
      <trkpt lat="46.88529" lon="4.72842">
        <ele>361.696303</ele>
        <time>2011-03-12T11:05:34Z</time>
      </trkpt>
      <trkpt lat="46.8856" lon="4.72868">
        <ele>361.648372</ele>
        <time>2011-03-12T11:05:37Z</time>
      </trkpt>
      <trkpt lat="46.88578" lon="4.72885">
        <ele>361.476746</ele>
        <time>2011-03-12T11:05:39Z</time>
      </trkpt>
      <trkpt lat="46.88594" lon="4.72905">
        <ele>361.085237</ele>
        <time>2011-03-12T11:05:42Z</time>
      </trkpt>
      <trkpt lat="46.88603" lon="4.72911">
        <ele>360.168206</ele>
        <time>2011-03-12T11:05:46Z</time>
      </trkpt>
      <trkpt lat="46.88603" lon="4.72911">
        <ele>358.956097</ele>
        <time>2011-03-12T11:05:47Z</time>
      </trkpt>
      <trkpt lat="46.886" lon="4.72888">
        <ele>357.948367</ele>
        <time>2011-03-12T11:05:56Z</time>
      </trkpt>
      <trkpt lat="46.886" lon="4.72874">
        <ele>356.986338</ele>
        <time>2011-03-12T11:05:59Z</time>
      </trkpt>
      <trkpt lat="46.88601" lon="4.72857">
        <ele>355.850361</ele>
        <time>2011-03-12T11:06:02Z</time>
      </trkpt>
      <trkpt lat="46.88603" lon="4.72841">
        <ele>354.686902</ele>
        <time>2011-03-12T11:06:05Z</time>
      </trkpt>
      <trkpt lat="46.88605" lon="4.72823">
        <ele>353.534943</ele>
        <time>2011-03-12T11:06:08Z</time>
      </trkpt>
      <trkpt lat="46.88606" lon="4.72808">
        <ele>352.43204</ele>
        <time>2011-03-12T11:06:10Z</time>
      </trkpt>
      <trkpt lat="46.88606" lon="4.72793">
        <ele>350.76152</ele>
        <time>2011-03-12T11:06:12Z</time>
      </trkpt>
      <trkpt lat="46.88604" lon="4.72771">
        <ele>347.808714</ele>
        <time>2011-03-12T11:06:15Z</time>
      </trkpt>
      <trkpt lat="46.88601" lon="4.72754">
        <ele>344.411654</ele>
        <time>2011-03-12T11:06:18Z</time>
      </trkpt>
      <trkpt lat="46.88598" lon="4.72738">
        <ele>341.799406</ele>
        <time>2011-03-12T11:06:21Z</time>
      </trkpt>
      <trkpt lat="46.88596" lon="4.72723">
        <ele>340.075973</ele>
        <time>2011-03-12T11:06:24Z</time>
      </trkpt>
      <trkpt lat="46.88594" lon="4.72707">
        <ele>338.964322</ele>
        <time>2011-03-12T11:06:28Z</time>
      </trkpt>
      <trkpt lat="46.88593" lon="4.72692">
        <ele>338.284135</ele>
        <time>2011-03-12T11:06:33Z</time>
      </trkpt>
      <trkpt lat="46.88595" lon="4.72676">
        <ele>337.934084</ele>
        <time>2011-03-12T11:06:37Z</time>
      </trkpt>
      <trkpt lat="46.88602" lon="4.72664">
        <ele>337.803734</ele>
        <time>2011-03-12T11:06:40Z</time>
      </trkpt>
      <trkpt lat="46.88611" lon="4.72654">
        <ele>337.753818</ele>
        <time>2011-03-12T11:06:44Z</time>
      </trkpt>
      <trkpt lat="46.88611" lon="4.72654">
        <ele>337.65813</ele>
        <time>2011-03-12T11:06:45Z</time>
      </trkpt>
      <trkpt lat="46.88606" lon="4.7263">
        <ele>337.509305</ele>
        <time>2011-03-12T11:06:52Z</time>
      </trkpt>
      <trkpt lat="46.88601" lon="4.72613">
        <ele>337.183703</ele>
        <time>2011-03-12T11:06:55Z</time>
      </trkpt>
      <trkpt lat="46.88595" lon="4.72599">
        <ele>336.553476</ele>
        <time>2011-03-12T11:06:58Z</time>
      </trkpt>
      <trkpt lat="46.88586" lon="4.72588">
        <ele>335.691889</ele>
        <time>2011-03-12T11:07:01Z</time>
      </trkpt>
      <trkpt lat="46.88577" lon="4.72577">
        <ele>334.759886</ele>
        <time>2011-03-12T11:07:05Z</time>
      </trkpt>
      <trkpt lat="46.88568" lon="4.72567">
        <ele>333.929392</ele>
        <time>2011-03-12T11:07:08Z</time>
      </trkpt>
      <trkpt lat="46.88559" lon="4.72558">
        <ele>333.328825</ele>
        <time>2011-03-12T11:07:11Z</time>
      </trkpt>
      <trkpt lat="46.88552" lon="4.7255">
        <ele>332.86244</ele>
        <time>2011-03-12T11:07:14Z</time>
      </trkpt>
      <trkpt lat="46.88543" lon="4.72543">
        <ele>332.418973</ele>
        <time>2011-03-12T11:07:17Z</time>
      </trkpt>
      <trkpt lat="46.88531" lon="4.72535">
        <ele>331.975365</ele>
        <time>2011-03-12T11:07:20Z</time>
      </trkpt>
      <trkpt lat="46.88519" lon="4.72527">
        <ele>331.557292</ele>
        <time>2011-03-12T11:07:23Z</time>
      </trkpt>
      <trkpt lat="46.88509" lon="4.72516">
        <ele>331.174662</ele>
        <time>2011-03-12T11:07:26Z</time>
      </trkpt>
      <trkpt lat="46.885" lon="4.72505">
        <ele>330.60812</ele>
        <time>2011-03-12T11:07:29Z</time>
      </trkpt>
      <trkpt lat="46.88488" lon="4.72491">
        <ele>329.636553</ele>
        <time>2011-03-12T11:07:32Z</time>
      </trkpt>
      <trkpt lat="46.88475" lon="4.7247">
        <ele>328.575578</ele>
        <time>2011-03-12T11:07:35Z</time>
      </trkpt>
      <trkpt lat="46.88453" lon="4.72456">
        <ele>327.929531</ele>
        <time>2011-03-12T11:07:38Z</time>
      </trkpt>
      <trkpt lat="46.88427" lon="4.72445">
        <ele>327.728318</ele>
        <time>2011-03-12T11:07:41Z</time>
      </trkpt>
      <trkpt lat="46.88414" lon="4.7244">
        <ele>327.698765</ele>
        <time>2011-03-12T11:07:43Z</time>
      </trkpt>
      <trkpt lat="46.88404" lon="4.72436">
        <ele>327.66147</ele>
        <time>2011-03-12T11:07:45Z</time>
      </trkpt>
      <trkpt lat="46.88395" lon="4.72431">
        <ele>327.612318</ele>
        <time>2011-03-12T11:07:47Z</time>
      </trkpt>
      <trkpt lat="46.88382" lon="4.72422">
        <ele>327.555805</ele>
        <time>2011-03-12T11:07:50Z</time>
      </trkpt>
      <trkpt lat="46.88369" lon="4.72413">
        <ele>327.471401</ele>
        <time>2011-03-12T11:07:53Z</time>
      </trkpt>
      <trkpt lat="46.8836" lon="4.72406">
        <ele>327.393855</ele>
        <time>2011-03-12T11:07:56Z</time>
      </trkpt>
      <trkpt lat="46.88351" lon="4.724">
        <ele>327.359591</ele>
        <time>2011-03-12T11:07:59Z</time>
      </trkpt>
      <trkpt lat="46.88342" lon="4.72397">
        <ele>327.415758</ele>
        <time>2011-03-12T11:08:03Z</time>
      </trkpt>
      <trkpt lat="46.88332" lon="4.724">
        <ele>327.578609</ele>
        <time>2011-03-12T11:08:08Z</time>
      </trkpt>
      <trkpt lat="46.88323" lon="4.72397">
        <ele>327.744902</ele>
        <time>2011-03-12T11:08:14Z</time>
      </trkpt>
      <trkpt lat="46.88313" lon="4.72392">
        <ele>327.823549</ele>
        <time>2011-03-12T11:08:19Z</time>
      </trkpt>
      <trkpt lat="46.88304" lon="4.72385">
        <ele>327.820634</ele>
        <time>2011-03-12T11:08:23Z</time>
      </trkpt>
      <trkpt lat="46.88297" lon="4.72377">
        <ele>327.730882</ele>
        <time>2011-03-12T11:08:26Z</time>
      </trkpt>
      <trkpt lat="46.88288" lon="4.72369">
        <ele>327.558988</ele>
        <time>2011-03-12T11:08:29Z</time>
      </trkpt>
      <trkpt lat="46.88279" lon="4.72361">
        <ele>327.366891</ele>
        <time>2011-03-12T11:08:32Z</time>
      </trkpt>
      <trkpt lat="46.8827" lon="4.72353">
        <ele>327.219522</ele>
        <time>2011-03-12T11:08:35Z</time>
      </trkpt>
      <trkpt lat="46.88262" lon="4.72346">
        <ele>327.13632</ele>
        <time>2011-03-12T11:08:38Z</time>
      </trkpt>
      <trkpt lat="46.88253" lon="4.72341">
        <ele>327.108106</ele>
        <time>2011-03-12T11:08:41Z</time>
      </trkpt>
      <trkpt lat="46.88243" lon="4.72337">
        <ele>327.110597</ele>
        <time>2011-03-12T11:08:44Z</time>
      </trkpt>
      <trkpt lat="46.88234" lon="4.72342">
        <ele>327.120686</ele>
        <time>2011-03-12T11:08:47Z</time>
      </trkpt>
      <trkpt lat="46.88234" lon="4.72342">
        <ele>327.127891</ele>
        <time>2011-03-12T11:08:51Z</time>
      </trkpt>
      <trkpt lat="46.88215" lon="4.72343">
        <ele>327.143886</ele>
        <time>2011-03-12T11:08:55Z</time>
      </trkpt>
      <trkpt lat="46.88206" lon="4.7234">
        <ele>327.195616</ele>
        <time>2011-03-12T11:08:58Z</time>
      </trkpt>
      <trkpt lat="46.88197" lon="4.72335">
        <ele>327.285975</ele>
        <time>2011-03-12T11:09:01Z</time>
      </trkpt>
      <trkpt lat="46.88188" lon="4.72329">
        <ele>327.433515</ele>
        <time>2011-03-12T11:09:05Z</time>
      </trkpt>
      <trkpt lat="46.88188" lon="4.72329">
        <ele>327.635055</ele>
        <time>2011-03-12T11:09:12Z</time>
      </trkpt>
      <trkpt lat="46.88151" lon="4.72324">
        <ele>327.843829</ele>
        <time>2011-03-12T11:09:44Z</time>
      </trkpt>
      <trkpt lat="46.88143" lon="4.72317">
        <ele>328.064155</ele>
        <time>2011-03-12T11:09:49Z</time>
      </trkpt>
      <trkpt lat="46.88132" lon="4.72311">
        <ele>328.328794</ele>
        <time>2011-03-12T11:09:53Z</time>
      </trkpt>
      <trkpt lat="46.88124" lon="4.72304">
        <ele>328.892153</ele>
        <time>2011-03-12T11:09:56Z</time>
      </trkpt>
      <trkpt lat="46.88114" lon="4.72297">
        <ele>329.951428</ele>
        <time>2011-03-12T11:10:00Z</time>
      </trkpt>
      <trkpt lat="46.88104" lon="4.72292">
        <ele>331.137459</ele>
        <time>2011-03-12T11:10:04Z</time>
      </trkpt>
      <trkpt lat="46.88094" lon="4.72286">
        <ele>331.991671</ele>
        <time>2011-03-12T11:10:07Z</time>
      </trkpt>
      <trkpt lat="46.88085" lon="4.72279">
        <ele>332.499516</ele>
        <time>2011-03-12T11:10:10Z</time>
      </trkpt>
      <trkpt lat="46.88076" lon="4.72273">
        <ele>332.777205</ele>
        <time>2011-03-12T11:10:13Z</time>
      </trkpt>
      <trkpt lat="46.88067" lon="4.72266">
        <ele>332.897975</ele>
        <time>2011-03-12T11:10:17Z</time>
      </trkpt>
      <trkpt lat="46.88071" lon="4.72248">
        <ele>332.925906</ele>
        <time>2011-03-12T11:10:21Z</time>
      </trkpt>
      <trkpt lat="46.88077" lon="4.72233">
        <ele>332.955268</ele>
        <time>2011-03-12T11:10:23Z</time>
      </trkpt>
      <trkpt lat="46.88086" lon="4.72213">
        <ele>333.084206</ele>
        <time>2011-03-12T11:10:25Z</time>
      </trkpt>
      <trkpt lat="46.881" lon="4.72177">
        <ele>333.702385</ele>
        <time>2011-03-12T11:10:28Z</time>
      </trkpt>
      <trkpt lat="46.88109" lon="4.72149">
        <ele>335.017609</ele>
        <time>2011-03-12T11:10:30Z</time>
      </trkpt>
      <trkpt lat="46.88124" lon="4.72106">
        <ele>336.406046</ele>
        <time>2011-03-12T11:10:33Z</time>
      </trkpt>
      <trkpt lat="46.88137" lon="4.72079">
        <ele>337.174067</ele>
        <time>2011-03-12T11:10:36Z</time>
      </trkpt>
      <trkpt lat="46.88154" lon="4.72072">
        <ele>337.355996</ele>
        <time>2011-03-12T11:10:39Z</time>
      </trkpt>
      <trkpt lat="46.88168" lon="4.72072">
        <ele>337.216856</ele>
        <time>2011-03-12T11:10:41Z</time>
      </trkpt>
      <trkpt lat="46.88184" lon="4.72075">
        <ele>336.776963</ele>
        <time>2011-03-12T11:10:43Z</time>
      </trkpt>
      <trkpt lat="46.88209" lon="4.72083">
        <ele>335.938613</ele>
        <time>2011-03-12T11:10:46Z</time>
      </trkpt>
      <trkpt lat="46.88234" lon="4.72093">
        <ele>334.926417</ele>
        <time>2011-03-12T11:10:49Z</time>
      </trkpt>
      <trkpt lat="46.8826" lon="4.72105">
        <ele>334.165897</ele>
        <time>2011-03-12T11:10:52Z</time>
      </trkpt>
      <trkpt lat="46.88285" lon="4.72118">
        <ele>333.690024</ele>
        <time>2011-03-12T11:10:55Z</time>
      </trkpt>
      <trkpt lat="46.88309" lon="4.72131">
        <ele>333.15693</ele>
        <time>2011-03-12T11:10:58Z</time>
      </trkpt>
      <trkpt lat="46.88332" lon="4.72148">
        <ele>332.503429</ele>
        <time>2011-03-12T11:11:01Z</time>
      </trkpt>
      <trkpt lat="46.88347" lon="4.72159">
        <ele>331.889513</ele>
        <time>2011-03-12T11:11:03Z</time>
      </trkpt>
      <trkpt lat="46.88368" lon="4.72174">
        <ele>331.111675</ele>
        <time>2011-03-12T11:11:06Z</time>
      </trkpt>
      <trkpt lat="46.88386" lon="4.72189">
        <ele>329.898758</ele>
        <time>2011-03-12T11:11:09Z</time>
      </trkpt>
      <trkpt lat="46.884" lon="4.72206">
        <ele>328.506421</ele>
        <time>2011-03-12T11:11:12Z</time>
      </trkpt>
      <trkpt lat="46.8841" lon="4.72216">
        <ele>327.448998</ele>
        <time>2011-03-12T11:11:14Z</time>
      </trkpt>
      <trkpt lat="46.88422" lon="4.72226">
        <ele>326.81366</ele>
        <time>2011-03-12T11:11:16Z</time>
      </trkpt>
      <trkpt lat="46.88434" lon="4.72238">
        <ele>325.880312</ele>
        <time>2011-03-12T11:11:18Z</time>
      </trkpt>
      <trkpt lat="46.88448" lon="4.72248">
        <ele>323.94229</ele>
        <time>2011-03-12T11:11:20Z</time>
      </trkpt>
      <trkpt lat="46.88467" lon="4.72261">
        <ele>321.264097</ele>
        <time>2011-03-12T11:11:23Z</time>
      </trkpt>
      <trkpt lat="46.88481" lon="4.72269">
        <ele>318.624813</ele>
        <time>2011-03-12T11:11:25Z</time>
      </trkpt>
      <trkpt lat="46.88502" lon="4.72281">
        <ele>316.512293</ele>
        <time>2011-03-12T11:11:28Z</time>
      </trkpt>
      <trkpt lat="46.88526" lon="4.72296">
        <ele>314.969941</ele>
        <time>2011-03-12T11:11:31Z</time>
      </trkpt>
      <trkpt lat="46.88552" lon="4.72316">
        <ele>313.826549</ele>
        <time>2011-03-12T11:11:34Z</time>
      </trkpt>
      <trkpt lat="46.8858" lon="4.7234">
        <ele>312.867959</ele>
        <time>2011-03-12T11:11:37Z</time>
      </trkpt>
      <trkpt lat="46.88598" lon="4.72358">
        <ele>311.763758</ele>
        <time>2011-03-12T11:11:39Z</time>
      </trkpt>
      <trkpt lat="46.88616" lon="4.72376">
        <ele>310.335284</ele>
        <time>2011-03-12T11:11:41Z</time>
      </trkpt>
      <trkpt lat="46.88642" lon="4.72404">
        <ele>308.714539</ele>
        <time>2011-03-12T11:11:44Z</time>
      </trkpt>
      <trkpt lat="46.8866" lon="4.72423">
        <ele>307.058219</ele>
        <time>2011-03-12T11:11:46Z</time>
      </trkpt>
      <trkpt lat="46.88678" lon="4.72441">
        <ele>305.439557</ele>
        <time>2011-03-12T11:11:48Z</time>
      </trkpt>
      <trkpt lat="46.88706" lon="4.72465">
        <ele>303.845771</ele>
        <time>2011-03-12T11:11:51Z</time>
      </trkpt>
      <trkpt lat="46.88737" lon="4.72485">
        <ele>302.275479</ele>
        <time>2011-03-12T11:11:54Z</time>
      </trkpt>
      <trkpt lat="46.88759" lon="4.72491">
        <ele>300.849952</ele>
        <time>2011-03-12T11:11:56Z</time>
      </trkpt>
      <trkpt lat="46.88791" lon="4.72499">
        <ele>299.544911</ele>
        <time>2011-03-12T11:11:59Z</time>
      </trkpt>
      <trkpt lat="46.88818" lon="4.72515">
        <ele>298.195203</ele>
        <time>2011-03-12T11:12:02Z</time>
      </trkpt>
      <trkpt lat="46.88834" lon="4.72531">
        <ele>296.900913</ele>
        <time>2011-03-12T11:12:04Z</time>
      </trkpt>
      <trkpt lat="46.88849" lon="4.72543">
        <ele>295.965655</ele>
        <time>2011-03-12T11:12:06Z</time>
      </trkpt>
      <trkpt lat="46.88864" lon="4.72551">
        <ele>295.257226</ele>
        <time>2011-03-12T11:12:08Z</time>
      </trkpt>
      <trkpt lat="46.88879" lon="4.72559">
        <ele>294.299385</ele>
        <time>2011-03-12T11:12:10Z</time>
      </trkpt>
      <trkpt lat="46.88895" lon="4.72567">
        <ele>292.963761</ele>
        <time>2011-03-12T11:12:12Z</time>
      </trkpt>
      <trkpt lat="46.88909" lon="4.72578">
        <ele>291.435091</ele>
        <time>2011-03-12T11:12:14Z</time>
      </trkpt>
      <trkpt lat="46.88922" lon="4.7259">
        <ele>289.802274</ele>
        <time>2011-03-12T11:12:16Z</time>
      </trkpt>
      <trkpt lat="46.88944" lon="4.72604">
        <ele>288.116848</ele>
        <time>2011-03-12T11:12:19Z</time>
      </trkpt>
      <trkpt lat="46.88959" lon="4.72615">
        <ele>286.401494</ele>
        <time>2011-03-12T11:12:21Z</time>
      </trkpt>
      <trkpt lat="46.88983" lon="4.72637">
        <ele>284.651829</ele>
        <time>2011-03-12T11:12:24Z</time>
      </trkpt>
      <trkpt lat="46.88992" lon="4.72648">
        <ele>282.931115</ele>
        <time>2011-03-12T11:12:26Z</time>
      </trkpt>
      <trkpt lat="46.89002" lon="4.72648">
        <ele>281.426862</ele>
        <time>2011-03-12T11:12:30Z</time>
      </trkpt>
      <trkpt lat="46.89011" lon="4.72632">
        <ele>280.277243</ele>
        <time>2011-03-12T11:12:33Z</time>
      </trkpt>
      <trkpt lat="46.89015" lon="4.72614">
        <ele>279.351608</ele>
        <time>2011-03-12T11:12:35Z</time>
      </trkpt>
      <trkpt lat="46.89021" lon="4.72585">
        <ele>278.418991</ele>
        <time>2011-03-12T11:12:38Z</time>
      </trkpt>
      <trkpt lat="46.89027" lon="4.72564">
        <ele>277.318874</ele>
        <time>2011-03-12T11:12:40Z</time>
      </trkpt>
      <trkpt lat="46.89035" lon="4.72529">
        <ele>276.050689</ele>
        <time>2011-03-12T11:12:43Z</time>
      </trkpt>
      <trkpt lat="46.89043" lon="4.72497">
        <ele>274.808558</ele>
        <time>2011-03-12T11:12:46Z</time>
      </trkpt>
      <trkpt lat="46.89049" lon="4.72478">
        <ele>273.809551</ele>
        <time>2011-03-12T11:12:48Z</time>
      </trkpt>
      <trkpt lat="46.89058" lon="4.72463">
        <ele>273.142774</ele>
        <time>2011-03-12T11:12:50Z</time>
      </trkpt>
      <trkpt lat="46.8907" lon="4.7245">
        <ele>272.714889</ele>
        <time>2011-03-12T11:12:52Z</time>
      </trkpt>
      <trkpt lat="46.89093" lon="4.72441">
        <ele>272.333013</ele>
        <time>2011-03-12T11:12:55Z</time>
      </trkpt>
      <trkpt lat="46.89106" lon="4.7244">
        <ele>271.861125</ele>
        <time>2011-03-12T11:12:57Z</time>
      </trkpt>
      <trkpt lat="46.8912" lon="4.72437">
        <ele>271.117449</ele>
        <time>2011-03-12T11:13:00Z</time>
      </trkpt>
      <trkpt lat="46.89136" lon="4.72424">
        <ele>269.908371</ele>
        <time>2011-03-12T11:13:03Z</time>
      </trkpt>
      <trkpt lat="46.89142" lon="4.72414">
        <ele>268.34434</ele>
        <time>2011-03-12T11:13:05Z</time>
      </trkpt>
      <trkpt lat="46.89148" lon="4.72401">
        <ele>266.72907</ele>
        <time>2011-03-12T11:13:08Z</time>
      </trkpt>
      <trkpt lat="46.89155" lon="4.72382">
        <ele>265.154096</ele>
        <time>2011-03-12T11:13:11Z</time>
      </trkpt>
      <trkpt lat="46.89161" lon="4.72364">
        <ele>263.611418</ele>
        <time>2011-03-12T11:13:13Z</time>
      </trkpt>
      <trkpt lat="46.8917" lon="4.72337">
        <ele>262.347364</ele>
        <time>2011-03-12T11:13:16Z</time>
      </trkpt>
      <trkpt lat="46.89176" lon="4.7232">
        <ele>261.367793</ele>
        <time>2011-03-12T11:13:18Z</time>
      </trkpt>
      <trkpt lat="46.89181" lon="4.72306">
        <ele>260.330079</ele>
        <time>2011-03-12T11:13:20Z</time>
      </trkpt>
      <trkpt lat="46.89187" lon="4.72291">
        <ele>259.049722</ele>
        <time>2011-03-12T11:13:23Z</time>
      </trkpt>
      <trkpt lat="46.8919" lon="4.72276">
        <ele>257.634944</ele>
        <time>2011-03-12T11:13:28Z</time>
      </trkpt>
      <trkpt lat="46.89194" lon="4.72263">
        <ele>256.297386</ele>
        <time>2011-03-12T11:13:33Z</time>
      </trkpt>
      <trkpt lat="46.89198" lon="4.7225">
        <ele>255.21482</ele>
        <time>2011-03-12T11:13:39Z</time>
      </trkpt>
      <trkpt lat="46.89201" lon="4.72237">
        <ele>254.42353</ele>
        <time>2011-03-12T11:13:46Z</time>
      </trkpt>
      <trkpt lat="46.89208" lon="4.72226">
        <ele>253.918457</ele>
        <time>2011-03-12T11:13:55Z</time>
      </trkpt>
      <trkpt lat="46.89208" lon="4.72226">
        <ele>253.647766</ele>
        <time>2011-03-12T11:14:00Z</time>
      </trkpt>
      <trkpt lat="46.89208" lon="4.72226">
        <ele>253.509798</ele>
        <time>2011-03-12T11:14:49Z</time>
      </trkpt>
      <trkpt lat="46.89227" lon="4.7219">
        <ele>253.390961</ele>
        <time>2011-03-12T11:14:55Z</time>
      </trkpt>
      <trkpt lat="46.89227" lon="4.7219">
        <ele>253.246041</ele>
        <time>2011-03-12T11:14:55Z</time>
      </trkpt>
      <trkpt lat="46.89227" lon="4.7219">
        <ele>253.111347</ele>
        <time>2011-03-12T11:14:56Z</time>
      </trkpt>
      <trkpt lat="46.89227" lon="4.7219">
        <ele>253.009481</ele>
        <time>2011-03-12T11:14:56Z</time>
      </trkpt>
      <trkpt lat="46.89227" lon="4.7219">
        <ele>252.951234</ele>
        <time>2011-03-12T11:14:57Z</time>
      </trkpt>
      <trkpt lat="46.89227" lon="4.7219">
        <ele>252.917846</ele>
        <time>2011-03-12T11:14:57Z</time>
      </trkpt>
      <trkpt lat="46.89257" lon="4.72192">
        <ele>252.874855</ele>
        <time>2011-03-12T11:15:25Z</time>
      </trkpt>
      <trkpt lat="46.89266" lon="4.72196">
        <ele>252.852041</ele>
        <time>2011-03-12T11:15:34Z</time>
      </trkpt>
      <trkpt lat="46.89276" lon="4.72201">
        <ele>252.881614</ele>
        <time>2011-03-12T11:15:41Z</time>
      </trkpt>
      <trkpt lat="46.89276" lon="4.72201">
        <ele>252.910353</ele>
        <time>2011-03-12T11:15:58Z</time>
      </trkpt>
      <trkpt lat="46.89307" lon="4.72221">
        <ele>253.166755</ele>
        <time>2011-03-12T11:16:16Z</time>
      </trkpt>
      <trkpt lat="46.89316" lon="4.72223">
        <ele>253.969242</ele>
        <time>2011-03-12T11:16:25Z</time>
      </trkpt>
      <trkpt lat="46.89324" lon="4.72215">
        <ele>255.125183</ele>
        <time>2011-03-12T11:16:38Z</time>
      </trkpt>
      <trkpt lat="46.89333" lon="4.7222">
        <ele>256.65166</ele>
        <time>2011-03-12T11:16:46Z</time>
      </trkpt>
      <trkpt lat="46.89342" lon="4.72226">
        <ele>258.809027</ele>
        <time>2011-03-12T11:16:57Z</time>
      </trkpt>
      <trkpt lat="46.89342" lon="4.72226">
        <ele>260.942068</ele>
        <time>2011-03-12T11:17:11Z</time>
      </trkpt>
      <trkpt lat="46.89374" lon="4.7223">
        <ele>262.251923</ele>
        <time>2011-03-12T11:17:48Z</time>
      </trkpt>
      <trkpt lat="46.89383" lon="4.72236">
        <ele>262.968755</ele>
        <time>2011-03-12T11:17:57Z</time>
      </trkpt>
      <trkpt lat="46.89392" lon="4.72238">
        <ele>263.769781</ele>
        <time>2011-03-12T11:18:13Z</time>
      </trkpt>
      <trkpt lat="46.89392" lon="4.72238">
        <ele>264.785596</ele>
        <time>2011-03-12T11:18:23Z</time>
      </trkpt>
      <trkpt lat="46.89422" lon="4.72218">
        <ele>266.782192</ele>
        <time>2011-03-12T11:19:13Z</time>
      </trkpt>
      <trkpt lat="46.89422" lon="4.72218">
        <ele>270.236227</ele>
        <time>2011-03-12T11:19:17Z</time>
      </trkpt>
      <trkpt lat="46.89449" lon="4.72226">
        <ele>273.795886</ele>
        <time>2011-03-12T11:19:42Z</time>
      </trkpt>
      <trkpt lat="46.89459" lon="4.72226">
        <ele>276.476</ele>
        <time>2011-03-12T11:19:48Z</time>
      </trkpt>
      <trkpt lat="46.89469" lon="4.72226">
        <ele>279.710844</ele>
        <time>2011-03-12T11:19:53Z</time>
      </trkpt>
      <trkpt lat="46.89478" lon="4.72228">
        <ele>284.569915</ele>
        <time>2011-03-12T11:19:57Z</time>
      </trkpt>
      <trkpt lat="46.89488" lon="4.7223">
        <ele>289.730368</ele>
        <time>2011-03-12T11:20:03Z</time>
      </trkpt>
      <trkpt lat="46.89498" lon="4.72233">
        <ele>293.130099</ele>
        <time>2011-03-12T11:20:08Z</time>
      </trkpt>
      <trkpt lat="46.89508" lon="4.72235">
        <ele>294.499249</ele>
        <time>2011-03-12T11:20:13Z</time>
      </trkpt>
      <trkpt lat="46.89518" lon="4.72233">
        <ele>294.720054</ele>
        <time>2011-03-12T11:20:20Z</time>
      </trkpt>
      <trkpt lat="46.89527" lon="4.72239">
        <ele>294.586675</ele>
        <time>2011-03-12T11:20:27Z</time>
      </trkpt>
      <trkpt lat="46.89536" lon="4.72239">
        <ele>294.453498</ele>
        <time>2011-03-12T11:20:35Z</time>
      </trkpt>
      <trkpt lat="46.89545" lon="4.72233">
        <ele>294.392216</ele>
        <time>2011-03-12T11:20:40Z</time>
      </trkpt>
      <trkpt lat="46.89555" lon="4.72227">
        <ele>294.390973</ele>
        <time>2011-03-12T11:20:44Z</time>
      </trkpt>
      <trkpt lat="46.89564" lon="4.7222">
        <ele>294.423762</ele>
        <time>2011-03-12T11:20:53Z</time>
      </trkpt>
      <trkpt lat="46.89571" lon="4.72207">
        <ele>294.512262</ele>
        <time>2011-03-12T11:21:07Z</time>
      </trkpt>
      <trkpt lat="46.89572" lon="4.72193">
        <ele>294.810827</ele>
        <time>2011-03-12T11:21:19Z</time>
      </trkpt>
      <trkpt lat="46.8957" lon="4.72179">
        <ele>295.697328</ele>
        <time>2011-03-12T11:21:29Z</time>
      </trkpt>
      <trkpt lat="46.89564" lon="4.72169">
        <ele>297.509615</ele>
        <time>2011-03-12T11:21:40Z</time>
      </trkpt>
      <trkpt lat="46.89563" lon="4.72155">
        <ele>300.044377</ele>
        <time>2011-03-12T11:21:46Z</time>
      </trkpt>
      <trkpt lat="46.89564" lon="4.72141">
        <ele>302.700461</ele>
        <time>2011-03-12T11:21:53Z</time>
      </trkpt>
      <trkpt lat="46.89566" lon="4.72127">
        <ele>304.971983</ele>
        <time>2011-03-12T11:22:01Z</time>
      </trkpt>
      <trkpt lat="46.89567" lon="4.72113">
        <ele>306.689345</ele>
        <time>2011-03-12T11:22:07Z</time>
      </trkpt>
      <trkpt lat="46.89572" lon="4.721">
        <ele>308.089832</ele>
        <time>2011-03-12T11:22:14Z</time>
      </trkpt>
      <trkpt lat="46.89577" lon="4.72089">
        <ele>309.507818</ele>
        <time>2011-03-12T11:22:20Z</time>
      </trkpt>
      <trkpt lat="46.89582" lon="4.72076">
        <ele>310.947937</ele>
        <time>2011-03-12T11:22:26Z</time>
      </trkpt>
      <trkpt lat="46.89585" lon="4.72063">
        <ele>312.250816</ele>
        <time>2011-03-12T11:22:32Z</time>
      </trkpt>
      <trkpt lat="46.89589" lon="4.72051">
        <ele>313.368073</ele>
        <time>2011-03-12T11:22:38Z</time>
      </trkpt>
      <trkpt lat="46.89592" lon="4.72036">
        <ele>314.339348</ele>
        <time>2011-03-12T11:22:43Z</time>
      </trkpt>
      <trkpt lat="46.89594" lon="4.72022">
        <ele>315.223579</ele>
        <time>2011-03-12T11:22:49Z</time>
      </trkpt>
      <trkpt lat="46.89599" lon="4.72011">
        <ele>316.093072</ele>
        <time>2011-03-12T11:22:55Z</time>
      </trkpt>
      <trkpt lat="46.89599" lon="4.72011">
        <ele>316.855625</ele>
        <time>2011-03-12T11:23:06Z</time>
      </trkpt>
      <trkpt lat="46.89599" lon="4.72011">
        <ele>317.306613</ele>
        <time>2011-03-12T11:23:25Z</time>
      </trkpt>
      <trkpt lat="46.89623" lon="4.72005">
        <ele>317.536078</ele>
        <time>2011-03-12T11:28:45Z</time>
      </trkpt>
      <trkpt lat="46.89635" lon="4.72006">
        <ele>317.924026</ele>
        <time>2011-03-12T11:28:49Z</time>
      </trkpt>
      <trkpt lat="46.89649" lon="4.72012">
        <ele>318.677322</ele>
        <time>2011-03-12T11:28:52Z</time>
      </trkpt>
      <trkpt lat="46.89661" lon="4.72019">
        <ele>322.043459</ele>
        <time>2011-03-12T11:28:54Z</time>
      </trkpt>
      <trkpt lat="46.8968" lon="4.72027">
        <ele>329.115099</ele>
        <time>2011-03-12T11:28:57Z</time>
      </trkpt>
      <trkpt lat="46.89697" lon="4.72041">
        <ele>335.958539</ele>
        <time>2011-03-12T11:29:00Z</time>
      </trkpt>
      <trkpt lat="46.89707" lon="4.72054">
        <ele>339.089707</ele>
        <time>2011-03-12T11:29:02Z</time>
      </trkpt>
      <trkpt lat="46.89724" lon="4.72074">
        <ele>339.346753</ele>
        <time>2011-03-12T11:29:05Z</time>
      </trkpt>
      <trkpt lat="46.89738" lon="4.72084">
        <ele>338.287246</ele>
        <time>2011-03-12T11:29:07Z</time>
      </trkpt>
      <trkpt lat="46.89755" lon="4.72088">
        <ele>337.020515</ele>
        <time>2011-03-12T11:29:09Z</time>
      </trkpt>
      <trkpt lat="46.89775" lon="4.72093">
        <ele>335.948153</ele>
        <time>2011-03-12T11:29:12Z</time>
      </trkpt>
      <trkpt lat="46.89775" lon="4.72093">
        <ele>335.096191</ele>
        <time>2011-03-12T11:29:14Z</time>
      </trkpt>
      <trkpt lat="46.89751" lon="4.72075">
        <ele>334.393674</ele>
        <time>2011-03-12T11:29:41Z</time>
      </trkpt>
      <trkpt lat="46.89749" lon="4.72062">
        <ele>333.614355</ele>
        <time>2011-03-12T11:29:45Z</time>
      </trkpt>
      <trkpt lat="46.89743" lon="4.7205">
        <ele>332.588525</ele>
        <time>2011-03-12T11:29:50Z</time>
      </trkpt>
      <trkpt lat="46.89737" lon="4.72035">
        <ele>331.460802</ele>
        <time>2011-03-12T11:29:54Z</time>
      </trkpt>
      <trkpt lat="46.8973" lon="4.72">
        <ele>330.552435</ele>
        <time>2011-03-12T11:29:57Z</time>
      </trkpt>
      <trkpt lat="46.89725" lon="4.71977">
        <ele>330.091218</ele>
        <time>2011-03-12T11:29:59Z</time>
      </trkpt>
      <trkpt lat="46.8972" lon="4.71957">
        <ele>329.932853</ele>
        <time>2011-03-12T11:30:01Z</time>
      </trkpt>
      <trkpt lat="46.89719" lon="4.71933">
        <ele>329.782408</ele>
        <time>2011-03-12T11:30:03Z</time>
      </trkpt>
      <trkpt lat="46.89724" lon="4.71898">
        <ele>329.355776</ele>
        <time>2011-03-12T11:30:06Z</time>
      </trkpt>
      <trkpt lat="46.89735" lon="4.71871">
        <ele>328.482262</ele>
        <time>2011-03-12T11:30:09Z</time>
      </trkpt>
      <trkpt lat="46.89751" lon="4.71853">
        <ele>327.278137</ele>
        <time>2011-03-12T11:30:12Z</time>
      </trkpt>
      <trkpt lat="46.89763" lon="4.7184">
        <ele>325.836799</ele>
        <time>2011-03-12T11:30:14Z</time>
      </trkpt>
      <trkpt lat="46.89769" lon="4.71829">
        <ele>323.94969</ele>
        <time>2011-03-12T11:30:16Z</time>
      </trkpt>
      <trkpt lat="46.89774" lon="4.71815">
        <ele>321.524369</ele>
        <time>2011-03-12T11:30:19Z</time>
      </trkpt>
      <trkpt lat="46.8978" lon="4.71794">
        <ele>318.7742</ele>
        <time>2011-03-12T11:30:22Z</time>
      </trkpt>
      <trkpt lat="46.89785" lon="4.71771">
        <ele>315.867953</ele>
        <time>2011-03-12T11:30:25Z</time>
      </trkpt>
      <trkpt lat="46.89784" lon="4.71744">
        <ele>313.193199</ele>
        <time>2011-03-12T11:30:28Z</time>
      </trkpt>
      <trkpt lat="46.89784" lon="4.71744">
        <ele>311.437764</ele>
        <time>2011-03-12T11:30:31Z</time>
      </trkpt>
      <trkpt lat="46.89785" lon="4.71715">
        <ele>310.167025</ele>
        <time>2011-03-12T11:30:35Z</time>
      </trkpt>
      <trkpt lat="46.8979" lon="4.71699">
        <ele>308.13688</ele>
        <time>2011-03-12T11:30:39Z</time>
      </trkpt>
      <trkpt lat="46.89789" lon="4.71682">
        <ele>305.283037</ele>
        <time>2011-03-12T11:30:42Z</time>
      </trkpt>
      <trkpt lat="46.89787" lon="4.71664">
        <ele>302.547771</ele>
        <time>2011-03-12T11:30:45Z</time>
      </trkpt>
      <trkpt lat="46.89787" lon="4.7165">
        <ele>300.502983</ele>
        <time>2011-03-12T11:30:47Z</time>
      </trkpt>
      <trkpt lat="46.89787" lon="4.71628">
        <ele>299.102663</ele>
        <time>2011-03-12T11:30:50Z</time>
      </trkpt>
      <trkpt lat="46.89787" lon="4.71611">
        <ele>296.983751</ele>
        <time>2011-03-12T11:30:53Z</time>
      </trkpt>
      <trkpt lat="46.89789" lon="4.71594">
        <ele>292.685138</ele>
        <time>2011-03-12T11:30:56Z</time>
      </trkpt>
      <trkpt lat="46.89794" lon="4.7158">
        <ele>286.618403</ele>
        <time>2011-03-12T11:30:59Z</time>
      </trkpt>
      <trkpt lat="46.89788" lon="4.71568">
        <ele>280.691845</ele>
        <time>2011-03-12T11:31:04Z</time>
      </trkpt>
      <trkpt lat="46.8978" lon="4.7156">
        <ele>276.355508</ele>
        <time>2011-03-12T11:31:07Z</time>
      </trkpt>
      <trkpt lat="46.89773" lon="4.7155">
        <ele>273.729143</ele>
        <time>2011-03-12T11:31:10Z</time>
      </trkpt>
      <trkpt lat="46.89767" lon="4.71539">
        <ele>272.077908</ele>
        <time>2011-03-12T11:31:13Z</time>
      </trkpt>
      <trkpt lat="46.89767" lon="4.71539">
        <ele>271.067854</ele>
        <time>2011-03-12T11:31:14Z</time>
      </trkpt>
      <trkpt lat="46.89739" lon="4.71514">
        <ele>270.570248</ele>
        <time>2011-03-12T11:31:27Z</time>
      </trkpt>
      <trkpt lat="46.89739" lon="4.71514">
        <ele>270.341856</ele>
        <time>2011-03-12T11:31:30Z</time>
      </trkpt>
      <trkpt lat="46.89712" lon="4.715">
        <ele>270.171417</ele>
        <time>2011-03-12T11:31:40Z</time>
      </trkpt>
      <trkpt lat="46.89701" lon="4.71493">
        <ele>269.959352</ele>
        <time>2011-03-12T11:31:45Z</time>
      </trkpt>
      <trkpt lat="46.89692" lon="4.71486">
        <ele>269.72615</ele>
        <time>2011-03-12T11:31:49Z</time>
      </trkpt>
      <trkpt lat="46.89684" lon="4.7148">
        <ele>269.625963</ele>
        <time>2011-03-12T11:31:53Z</time>
      </trkpt>
      <trkpt lat="46.89675" lon="4.71474">
        <ele>269.704378</ele>
        <time>2011-03-12T11:31:57Z</time>
      </trkpt>
      <trkpt lat="46.89666" lon="4.71468">
        <ele>269.886582</ele>
        <time>2011-03-12T11:32:01Z</time>
      </trkpt>
      <trkpt lat="46.89656" lon="4.71463">
        <ele>270.103785</ele>
        <time>2011-03-12T11:32:05Z</time>
      </trkpt>
      <trkpt lat="46.89645" lon="4.71458">
        <ele>270.357457</ele>
        <time>2011-03-12T11:32:09Z</time>
      </trkpt>
      <trkpt lat="46.89632" lon="4.71447">
        <ele>270.681671</ele>
        <time>2011-03-12T11:32:15Z</time>
      </trkpt>
      <trkpt lat="46.89623" lon="4.71439">
        <ele>271.068674</ele>
        <time>2011-03-12T11:32:19Z</time>
      </trkpt>
      <trkpt lat="46.89614" lon="4.7143">
        <ele>271.451527</ele>
        <time>2011-03-12T11:32:23Z</time>
      </trkpt>
      <trkpt lat="46.89606" lon="4.71423">
        <ele>271.835409</ele>
        <time>2011-03-12T11:32:27Z</time>
      </trkpt>
      <trkpt lat="46.89596" lon="4.71416">
        <ele>272.252949</ele>
        <time>2011-03-12T11:32:31Z</time>
      </trkpt>
      <trkpt lat="46.89586" lon="4.7141">
        <ele>272.675418</ele>
        <time>2011-03-12T11:32:35Z</time>
      </trkpt>
      <trkpt lat="46.89576" lon="4.71403">
        <ele>273.07167</ele>
        <time>2011-03-12T11:32:39Z</time>
      </trkpt>
      <trkpt lat="46.89565" lon="4.71397">
        <ele>273.469271</ele>
        <time>2011-03-12T11:32:43Z</time>
      </trkpt>
      <trkpt lat="46.89565" lon="4.71397">
        <ele>273.832163</ele>
        <time>2011-03-12T11:32:46Z</time>
      </trkpt>
      <trkpt lat="46.89549" lon="4.71388">
        <ele>274.131814</ele>
        <time>2011-03-12T11:32:50Z</time>
      </trkpt>
      <trkpt lat="46.89538" lon="4.71381">
        <ele>274.471166</ele>
        <time>2011-03-12T11:32:54Z</time>
      </trkpt>
      <trkpt lat="46.89528" lon="4.71375">
        <ele>274.939027</ele>
        <time>2011-03-12T11:32:58Z</time>
      </trkpt>
      <trkpt lat="46.89517" lon="4.7137">
        <ele>275.556774</ele>
        <time>2011-03-12T11:33:02Z</time>
      </trkpt>
      <trkpt lat="46.89508" lon="4.71366">
        <ele>276.316984</ele>
        <time>2011-03-12T11:33:05Z</time>
      </trkpt>
      <trkpt lat="46.89499" lon="4.71361">
        <ele>277.115559</ele>
        <time>2011-03-12T11:33:08Z</time>
      </trkpt>
      <trkpt lat="46.89489" lon="4.71355">
        <ele>277.849771</ele>
        <time>2011-03-12T11:33:12Z</time>
      </trkpt>
      <trkpt lat="46.89479" lon="4.71349">
        <ele>278.489278</ele>
        <time>2011-03-12T11:33:16Z</time>
      </trkpt>
      <trkpt lat="46.89469" lon="4.71343">
        <ele>279.021956</ele>
        <time>2011-03-12T11:33:20Z</time>
      </trkpt>
      <trkpt lat="46.8946" lon="4.71339">
        <ele>279.489337</ele>
        <time>2011-03-12T11:33:23Z</time>
      </trkpt>
      <trkpt lat="46.89452" lon="4.71334">
        <ele>279.96311</ele>
        <time>2011-03-12T11:33:26Z</time>
      </trkpt>
      <trkpt lat="46.89441" lon="4.71328">
        <ele>280.462351</ele>
        <time>2011-03-12T11:33:30Z</time>
      </trkpt>
      <trkpt lat="46.8943" lon="4.71323">
        <ele>280.944016</ele>
        <time>2011-03-12T11:33:34Z</time>
      </trkpt>
      <trkpt lat="46.89421" lon="4.7132">
        <ele>281.366073</ele>
        <time>2011-03-12T11:33:37Z</time>
      </trkpt>
      <trkpt lat="46.89409" lon="4.71317">
        <ele>281.748682</ele>
        <time>2011-03-12T11:33:41Z</time>
      </trkpt>
      <trkpt lat="46.894" lon="4.71314">
        <ele>282.151295</ele>
        <time>2011-03-12T11:33:44Z</time>
      </trkpt>
      <trkpt lat="46.89389" lon="4.7131">
        <ele>282.583241</ele>
        <time>2011-03-12T11:33:48Z</time>
      </trkpt>
      <trkpt lat="46.89379" lon="4.71306">
        <ele>283.017325</ele>
        <time>2011-03-12T11:33:52Z</time>
      </trkpt>
      <trkpt lat="46.89369" lon="4.71301">
        <ele>283.436762</ele>
        <time>2011-03-12T11:33:56Z</time>
      </trkpt>
      <trkpt lat="46.89359" lon="4.71296">
        <ele>283.845993</ele>
        <time>2011-03-12T11:34:00Z</time>
      </trkpt>
      <trkpt lat="46.89349" lon="4.71291">
        <ele>284.27226</ele>
        <time>2011-03-12T11:34:04Z</time>
      </trkpt>
      <trkpt lat="46.89339" lon="4.71286">
        <ele>284.749608</ele>
        <time>2011-03-12T11:34:07Z</time>
      </trkpt>
      <trkpt lat="46.8933" lon="4.71281">
        <ele>285.295602</ele>
        <time>2011-03-12T11:34:10Z</time>
      </trkpt>
      <trkpt lat="46.89321" lon="4.71277">
        <ele>285.917809</ele>
        <time>2011-03-12T11:34:13Z</time>
      </trkpt>
      <trkpt lat="46.89311" lon="4.71272">
        <ele>286.58476</ele>
        <time>2011-03-12T11:34:16Z</time>
      </trkpt>
      <trkpt lat="46.89302" lon="4.71268">
        <ele>287.234561</ele>
        <time>2011-03-12T11:34:19Z</time>
      </trkpt>
      <trkpt lat="46.89291" lon="4.71264">
        <ele>287.837954</ele>
        <time>2011-03-12T11:34:23Z</time>
      </trkpt>
      <trkpt lat="46.89281" lon="4.71261">
        <ele>288.428881</ele>
        <time>2011-03-12T11:34:26Z</time>
      </trkpt>
      <trkpt lat="46.89272" lon="4.71257">
        <ele>289.055467</ele>
        <time>2011-03-12T11:34:29Z</time>
      </trkpt>
      <trkpt lat="46.89262" lon="4.71252">
        <ele>289.760064</ele>
        <time>2011-03-12T11:34:32Z</time>
      </trkpt>
      <trkpt lat="46.89253" lon="4.71247">
        <ele>290.530415</ele>
        <time>2011-03-12T11:34:35Z</time>
      </trkpt>
      <trkpt lat="46.89243" lon="4.71243">
        <ele>291.28177</ele>
        <time>2011-03-12T11:34:38Z</time>
      </trkpt>
      <trkpt lat="46.89231" lon="4.7124">
        <ele>291.953127</ele>
        <time>2011-03-12T11:34:41Z</time>
      </trkpt>
      <trkpt lat="46.8922" lon="4.71236">
        <ele>292.562196</ele>
        <time>2011-03-12T11:34:44Z</time>
      </trkpt>
      <trkpt lat="46.89209" lon="4.71232">
        <ele>293.140837</ele>
        <time>2011-03-12T11:34:47Z</time>
      </trkpt>
      <trkpt lat="46.89198" lon="4.71228">
        <ele>293.699902</ele>
        <time>2011-03-12T11:34:50Z</time>
      </trkpt>
      <trkpt lat="46.89187" lon="4.71223">
        <ele>294.23206</ele>
        <time>2011-03-12T11:34:53Z</time>
      </trkpt>
      <trkpt lat="46.89176" lon="4.7122">
        <ele>294.734561</ele>
        <time>2011-03-12T11:34:56Z</time>
      </trkpt>
      <trkpt lat="46.89163" lon="4.71216">
        <ele>295.21521</ele>
        <time>2011-03-12T11:34:59Z</time>
      </trkpt>
      <trkpt lat="46.89151" lon="4.71212">
        <ele>295.678065</ele>
        <time>2011-03-12T11:35:02Z</time>
      </trkpt>
      <trkpt lat="46.8914" lon="4.71208">
        <ele>296.122372</ele>
        <time>2011-03-12T11:35:05Z</time>
      </trkpt>
      <trkpt lat="46.89129" lon="4.71205">
        <ele>296.556467</ele>
        <time>2011-03-12T11:35:08Z</time>
      </trkpt>
      <trkpt lat="46.89119" lon="4.71203">
        <ele>296.99061</ele>
        <time>2011-03-12T11:35:11Z</time>
      </trkpt>
      <trkpt lat="46.89109" lon="4.71203">
        <ele>297.419043</ele>
        <time>2011-03-12T11:35:14Z</time>
      </trkpt>
      <trkpt lat="46.891" lon="4.71202">
        <ele>297.829337</ele>
        <time>2011-03-12T11:35:17Z</time>
      </trkpt>
      <trkpt lat="46.89091" lon="4.71197">
        <ele>298.217717</ele>
        <time>2011-03-12T11:35:20Z</time>
      </trkpt>
      <trkpt lat="46.8908" lon="4.71193">
        <ele>298.58225</ele>
        <time>2011-03-12T11:35:24Z</time>
      </trkpt>
      <trkpt lat="46.8907" lon="4.7119">
        <ele>298.920866</ele>
        <time>2011-03-12T11:35:27Z</time>
      </trkpt>
      <trkpt lat="46.89061" lon="4.71187">
        <ele>299.246736</ele>
        <time>2011-03-12T11:35:30Z</time>
      </trkpt>
      <trkpt lat="46.89052" lon="4.71182">
        <ele>299.602989</ele>
        <time>2011-03-12T11:35:33Z</time>
      </trkpt>
      <trkpt lat="46.89041" lon="4.71177">
        <ele>300.005022</ele>
        <time>2011-03-12T11:35:37Z</time>
      </trkpt>
      <trkpt lat="46.89031" lon="4.7117">
        <ele>300.406172</ele>
        <time>2011-03-12T11:35:41Z</time>
      </trkpt>
      <trkpt lat="46.89021" lon="4.71164">
        <ele>300.774682</ele>
        <time>2011-03-12T11:35:45Z</time>
      </trkpt>
      <trkpt lat="46.89013" lon="4.71157">
        <ele>301.152169</ele>
        <time>2011-03-12T11:35:49Z</time>
      </trkpt>
      <trkpt lat="46.89003" lon="4.71152">
        <ele>301.602154</ele>
        <time>2011-03-12T11:35:53Z</time>
      </trkpt>
      <trkpt lat="46.88992" lon="4.71146">
        <ele>302.149796</ele>
        <time>2011-03-12T11:35:57Z</time>
      </trkpt>
      <trkpt lat="46.88982" lon="4.71139">
        <ele>302.767623</ele>
        <time>2011-03-12T11:36:01Z</time>
      </trkpt>
      <trkpt lat="46.88973" lon="4.71133">
        <ele>303.425376</ele>
        <time>2011-03-12T11:36:04Z</time>
      </trkpt>
      <trkpt lat="46.88965" lon="4.71128">
        <ele>304.113841</ele>
        <time>2011-03-12T11:36:07Z</time>
      </trkpt>
      <trkpt lat="46.88956" lon="4.7112">
        <ele>304.822276</ele>
        <time>2011-03-12T11:36:10Z</time>
      </trkpt>
      <trkpt lat="46.88947" lon="4.7111">
        <ele>305.50718</ele>
        <time>2011-03-12T11:36:13Z</time>
      </trkpt>
      <trkpt lat="46.88936" lon="4.71101">
        <ele>306.114777</ele>
        <time>2011-03-12T11:36:16Z</time>
      </trkpt>
      <trkpt lat="46.88927" lon="4.71094">
        <ele>306.645429</ele>
        <time>2011-03-12T11:36:19Z</time>
      </trkpt>
      <trkpt lat="46.88919" lon="4.71087">
        <ele>307.165077</ele>
        <time>2011-03-12T11:36:22Z</time>
      </trkpt>
      <trkpt lat="46.88908" lon="4.7108">
        <ele>307.724012</ele>
        <time>2011-03-12T11:36:26Z</time>
      </trkpt>
      <trkpt lat="46.88897" lon="4.71074">
        <ele>308.310264</ele>
        <time>2011-03-12T11:36:30Z</time>
      </trkpt>
      <trkpt lat="46.88889" lon="4.71068">
        <ele>308.889535</ele>
        <time>2011-03-12T11:36:33Z</time>
      </trkpt>
      <trkpt lat="46.8888" lon="4.71063">
        <ele>309.485948</ele>
        <time>2011-03-12T11:36:36Z</time>
      </trkpt>
      <trkpt lat="46.88872" lon="4.71057">
        <ele>310.165613</ele>
        <time>2011-03-12T11:36:39Z</time>
      </trkpt>
      <trkpt lat="46.88864" lon="4.71051">
        <ele>310.915688</ele>
        <time>2011-03-12T11:36:42Z</time>
      </trkpt>
      <trkpt lat="46.88855" lon="4.71045">
        <ele>311.642493</ele>
        <time>2011-03-12T11:36:45Z</time>
      </trkpt>
      <trkpt lat="46.88847" lon="4.71038">
        <ele>312.294699</ele>
        <time>2011-03-12T11:36:48Z</time>
      </trkpt>
      <trkpt lat="46.88838" lon="4.71032">
        <ele>312.889134</ele>
        <time>2011-03-12T11:36:51Z</time>
      </trkpt>
      <trkpt lat="46.88828" lon="4.71026">
        <ele>313.454257</ele>
        <time>2011-03-12T11:36:54Z</time>
      </trkpt>
      <trkpt lat="46.88818" lon="4.71019">
        <ele>314.004026</ele>
        <time>2011-03-12T11:36:57Z</time>
      </trkpt>
      <trkpt lat="46.88809" lon="4.71011">
        <ele>314.535244</ele>
        <time>2011-03-12T11:37:00Z</time>
      </trkpt>
      <trkpt lat="46.88801" lon="4.71004">
        <ele>315.032911</ele>
        <time>2011-03-12T11:37:03Z</time>
      </trkpt>
      <trkpt lat="46.88791" lon="4.70994">
        <ele>315.480258</ele>
        <time>2011-03-12T11:37:07Z</time>
      </trkpt>
      <trkpt lat="46.88782" lon="4.70987">
        <ele>315.87179</ele>
        <time>2011-03-12T11:37:10Z</time>
      </trkpt>
      <trkpt lat="46.88771" lon="4.7098">
        <ele>316.217913</ele>
        <time>2011-03-12T11:37:13Z</time>
      </trkpt>
      <trkpt lat="46.88761" lon="4.70973">
        <ele>316.551291</ele>
        <time>2011-03-12T11:37:16Z</time>
      </trkpt>
      <trkpt lat="46.8875" lon="4.70963">
        <ele>316.899403</ele>
        <time>2011-03-12T11:37:19Z</time>
      </trkpt>
      <trkpt lat="46.88739" lon="4.70954">
        <ele>317.258307</ele>
        <time>2011-03-12T11:37:22Z</time>
      </trkpt>
      <trkpt lat="46.88729" lon="4.70945">
        <ele>317.612336</ele>
        <time>2011-03-12T11:37:25Z</time>
      </trkpt>
      <trkpt lat="46.88719" lon="4.70937">
        <ele>317.948372</ele>
        <time>2011-03-12T11:37:28Z</time>
      </trkpt>
      <trkpt lat="46.88709" lon="4.70929">
        <ele>318.343571</ele>
        <time>2011-03-12T11:37:31Z</time>
      </trkpt>
      <trkpt lat="46.88698" lon="4.70919">
        <ele>318.845273</ele>
        <time>2011-03-12T11:37:34Z</time>
      </trkpt>
      <trkpt lat="46.88688" lon="4.7091">
        <ele>319.474955</ele>
        <time>2011-03-12T11:37:37Z</time>
      </trkpt>
      <trkpt lat="46.88677" lon="4.70902">
        <ele>320.375422</ele>
        <time>2011-03-12T11:37:40Z</time>
      </trkpt>
      <trkpt lat="46.88666" lon="4.70893">
        <ele>321.581801</ele>
        <time>2011-03-12T11:37:43Z</time>
      </trkpt>
      <trkpt lat="46.88656" lon="4.70884">
        <ele>322.831921</ele>
        <time>2011-03-12T11:37:46Z</time>
      </trkpt>
      <trkpt lat="46.88647" lon="4.70874">
        <ele>323.833915</ele>
        <time>2011-03-12T11:37:49Z</time>
      </trkpt>
      <trkpt lat="46.88638" lon="4.70865">
        <ele>324.439847</ele>
        <time>2011-03-12T11:37:52Z</time>
      </trkpt>
      <trkpt lat="46.88629" lon="4.70857">
        <ele>324.721409</ele>
        <time>2011-03-12T11:37:55Z</time>
      </trkpt>
      <trkpt lat="46.88619" lon="4.70847">
        <ele>324.842281</ele>
        <time>2011-03-12T11:37:58Z</time>
      </trkpt>
      <trkpt lat="46.8861" lon="4.70839">
        <ele>324.888307</ele>
        <time>2011-03-12T11:38:01Z</time>
      </trkpt>
      <trkpt lat="46.88601" lon="4.70831">
        <ele>324.888478</ele>
        <time>2011-03-12T11:38:04Z</time>
      </trkpt>
      <trkpt lat="46.88591" lon="4.70822">
        <ele>324.794166</ele>
        <time>2011-03-12T11:38:07Z</time>
      </trkpt>
      <trkpt lat="46.88581" lon="4.70814">
        <ele>324.572534</ele>
        <time>2011-03-12T11:38:10Z</time>
      </trkpt>
      <trkpt lat="46.88571" lon="4.70807">
        <ele>324.351419</ele>
        <time>2011-03-12T11:38:13Z</time>
      </trkpt>
      <trkpt lat="46.88562" lon="4.708">
        <ele>324.248297</ele>
        <time>2011-03-12T11:38:16Z</time>
      </trkpt>
      <trkpt lat="46.88552" lon="4.70792">
        <ele>324.265771</ele>
        <time>2011-03-12T11:38:19Z</time>
      </trkpt>
      <trkpt lat="46.88544" lon="4.70785">
        <ele>324.417188</ele>
        <time>2011-03-12T11:38:22Z</time>
      </trkpt>
      <trkpt lat="46.88535" lon="4.70778">
        <ele>324.708579</ele>
        <time>2011-03-12T11:38:25Z</time>
      </trkpt>
      <trkpt lat="46.88527" lon="4.7077">
        <ele>325.106292</ele>
        <time>2011-03-12T11:38:28Z</time>
      </trkpt>
      <trkpt lat="46.88517" lon="4.70763">
        <ele>325.561286</ele>
        <time>2011-03-12T11:38:31Z</time>
      </trkpt>
      <trkpt lat="46.88508" lon="4.70757">
        <ele>326.030872</ele>
        <time>2011-03-12T11:38:34Z</time>
      </trkpt>
      <trkpt lat="46.88499" lon="4.70754">
        <ele>326.493249</ele>
        <time>2011-03-12T11:38:37Z</time>
      </trkpt>
      <trkpt lat="46.8849" lon="4.70749">
        <ele>326.951522</ele>
        <time>2011-03-12T11:38:40Z</time>
      </trkpt>
      <trkpt lat="46.8848" lon="4.70743">
        <ele>327.418859</ele>
        <time>2011-03-12T11:38:43Z</time>
      </trkpt>
      <trkpt lat="46.88471" lon="4.70737">
        <ele>327.8948</ele>
        <time>2011-03-12T11:38:46Z</time>
      </trkpt>
      <trkpt lat="46.88463" lon="4.70727">
        <ele>328.356545</ele>
        <time>2011-03-12T11:38:49Z</time>
      </trkpt>
      <trkpt lat="46.88454" lon="4.70715">
        <ele>328.782567</ele>
        <time>2011-03-12T11:38:52Z</time>
      </trkpt>
      <trkpt lat="46.88445" lon="4.707">
        <ele>329.15638</ele>
        <time>2011-03-12T11:38:55Z</time>
      </trkpt>
      <trkpt lat="46.88437" lon="4.70685">
        <ele>329.844911</ele>
        <time>2011-03-12T11:38:58Z</time>
      </trkpt>
      <trkpt lat="46.8843" lon="4.70671">
        <ele>331.547949</ele>
        <time>2011-03-12T11:39:01Z</time>
      </trkpt>
      <trkpt lat="46.88422" lon="4.70659">
        <ele>334.293863</ele>
        <time>2011-03-12T11:39:04Z</time>
      </trkpt>
      <trkpt lat="46.88413" lon="4.70646">
        <ele>337.178716</ele>
        <time>2011-03-12T11:39:07Z</time>
      </trkpt>
      <trkpt lat="46.88405" lon="4.70632">
        <ele>339.268513</ele>
        <time>2011-03-12T11:39:10Z</time>
      </trkpt>
      <trkpt lat="46.88396" lon="4.70618">
        <ele>340.251155</ele>
        <time>2011-03-12T11:39:13Z</time>
      </trkpt>
      <trkpt lat="46.88388" lon="4.70607">
        <ele>340.549176</ele>
        <time>2011-03-12T11:39:16Z</time>
      </trkpt>
      <trkpt lat="46.88377" lon="4.70594">
        <ele>340.724244</ele>
        <time>2011-03-12T11:39:19Z</time>
      </trkpt>
      <trkpt lat="46.88366" lon="4.70582">
        <ele>340.912486</ele>
        <time>2011-03-12T11:39:22Z</time>
      </trkpt>
      <trkpt lat="46.88353" lon="4.70571">
        <ele>341.039945</ele>
        <time>2011-03-12T11:39:25Z</time>
      </trkpt>
      <trkpt lat="46.88341" lon="4.70561">
        <ele>341.118779</ele>
        <time>2011-03-12T11:39:28Z</time>
      </trkpt>
      <trkpt lat="46.88329" lon="4.70552">
        <ele>341.182696</ele>
        <time>2011-03-12T11:39:31Z</time>
      </trkpt>
      <trkpt lat="46.88319" lon="4.70544">
        <ele>341.306193</ele>
        <time>2011-03-12T11:39:34Z</time>
      </trkpt>
      <trkpt lat="46.8831" lon="4.70538">
        <ele>341.558513</ele>
        <time>2011-03-12T11:39:37Z</time>
      </trkpt>
      <trkpt lat="46.883" lon="4.70533">
        <ele>341.872464</ele>
        <time>2011-03-12T11:39:41Z</time>
      </trkpt>
      <trkpt lat="46.883" lon="4.70533">
        <ele>342.10332</ele>
        <time>2011-03-12T11:39:45Z</time>
      </trkpt>
      <trkpt lat="46.883" lon="4.70533">
        <ele>342.202578</ele>
        <time>2011-03-12T11:40:11Z</time>
      </trkpt>
      <trkpt lat="46.88277" lon="4.70534">
        <ele>342.23061</ele>
        <time>2011-03-12T11:41:08Z</time>
      </trkpt>
      <trkpt lat="46.88267" lon="4.70543">
        <ele>342.294087</ele>
        <time>2011-03-12T11:41:11Z</time>
      </trkpt>
      <trkpt lat="46.88255" lon="4.70555">
        <ele>342.427757</ele>
        <time>2011-03-12T11:41:14Z</time>
      </trkpt>
      <trkpt lat="46.88242" lon="4.70571">
        <ele>342.849733</ele>
        <time>2011-03-12T11:41:17Z</time>
      </trkpt>
      <trkpt lat="46.88234" lon="4.7058">
        <ele>343.769372</ele>
        <time>2011-03-12T11:41:19Z</time>
      </trkpt>
      <trkpt lat="46.8822" lon="4.70598">
        <ele>344.812319</ele>
        <time>2011-03-12T11:41:22Z</time>
      </trkpt>
      <trkpt lat="46.88205" lon="4.70619">
        <ele>345.434446</ele>
        <time>2011-03-12T11:41:25Z</time>
      </trkpt>
      <trkpt lat="46.88196" lon="4.70636">
        <ele>345.605107</ele>
        <time>2011-03-12T11:41:27Z</time>
      </trkpt>
      <trkpt lat="46.88187" lon="4.70655">
        <ele>345.413822</ele>
        <time>2011-03-12T11:41:29Z</time>
      </trkpt>
      <trkpt lat="46.88178" lon="4.70674">
        <ele>344.604404</ele>
        <time>2011-03-12T11:41:31Z</time>
      </trkpt>
      <trkpt lat="46.88167" lon="4.70692">
        <ele>342.933415</ele>
        <time>2011-03-12T11:41:33Z</time>
      </trkpt>
      <trkpt lat="46.88147" lon="4.70708">
        <ele>340.704944</ele>
        <time>2011-03-12T11:41:36Z</time>
      </trkpt>
      <trkpt lat="46.88136" lon="4.70711">
        <ele>338.533493</ele>
        <time>2011-03-12T11:41:38Z</time>
      </trkpt>
      <trkpt lat="46.88128" lon="4.70701">
        <ele>336.858223</ele>
        <time>2011-03-12T11:41:42Z</time>
      </trkpt>
      <trkpt lat="46.88129" lon="4.70684">
        <ele>335.800909</ele>
        <time>2011-03-12T11:41:46Z</time>
      </trkpt>
      <trkpt lat="46.88123" lon="4.7067">
        <ele>335.155993</ele>
        <time>2011-03-12T11:41:49Z</time>
      </trkpt>
      <trkpt lat="46.88113" lon="4.70657">
        <ele>334.682313</ele>
        <time>2011-03-12T11:41:52Z</time>
      </trkpt>
      <trkpt lat="46.88103" lon="4.70645">
        <ele>334.354871</ele>
        <time>2011-03-12T11:41:55Z</time>
      </trkpt>
      <trkpt lat="46.88096" lon="4.70636">
        <ele>334.164257</ele>
        <time>2011-03-12T11:41:57Z</time>
      </trkpt>
      <trkpt lat="46.8809" lon="4.70626">
        <ele>333.905345</ele>
        <time>2011-03-12T11:41:59Z</time>
      </trkpt>
      <trkpt lat="46.88083" lon="4.7061">
        <ele>333.499239</ele>
        <time>2011-03-12T11:42:02Z</time>
      </trkpt>
      <trkpt lat="46.88078" lon="4.70595">
        <ele>333.146897</ele>
        <time>2011-03-12T11:42:05Z</time>
      </trkpt>
      <trkpt lat="46.88073" lon="4.70578">
        <ele>332.997657</ele>
        <time>2011-03-12T11:42:08Z</time>
      </trkpt>
      <trkpt lat="46.88069" lon="4.7056">
        <ele>333.019799</ele>
        <time>2011-03-12T11:42:11Z</time>
      </trkpt>
      <trkpt lat="46.88068" lon="4.70541">
        <ele>333.354902</ele>
        <time>2011-03-12T11:42:14Z</time>
      </trkpt>
      <trkpt lat="46.88067" lon="4.70524">
        <ele>334.225857</ele>
        <time>2011-03-12T11:42:17Z</time>
      </trkpt>
      <trkpt lat="46.88064" lon="4.70508">
        <ele>335.469379</ele>
        <time>2011-03-12T11:42:20Z</time>
      </trkpt>
      <trkpt lat="46.88062" lon="4.70491">
        <ele>336.603961</ele>
        <time>2011-03-12T11:42:23Z</time>
      </trkpt>
      <trkpt lat="46.88058" lon="4.70475">
        <ele>337.32985</ele>
        <time>2011-03-12T11:42:26Z</time>
      </trkpt>
      <trkpt lat="46.88054" lon="4.70458">
        <ele>337.645659</ele>
        <time>2011-03-12T11:42:29Z</time>
      </trkpt>
      <trkpt lat="46.88051" lon="4.70442">
        <ele>337.697834</ele>
        <time>2011-03-12T11:42:32Z</time>
      </trkpt>
      <trkpt lat="46.88049" lon="4.70424">
        <ele>337.647086</ele>
        <time>2011-03-12T11:42:35Z</time>
      </trkpt>
      <trkpt lat="46.88046" lon="4.70407">
        <ele>337.43217</ele>
        <time>2011-03-12T11:42:38Z</time>
      </trkpt>
      <trkpt lat="46.88044" lon="4.70392">
        <ele>336.956022</ele>
        <time>2011-03-12T11:42:41Z</time>
      </trkpt>
      <trkpt lat="46.88041" lon="4.70377">
        <ele>336.443439</ele>
        <time>2011-03-12T11:42:44Z</time>
      </trkpt>
      <trkpt lat="46.88038" lon="4.70363">
        <ele>336.164576</ele>
        <time>2011-03-12T11:42:47Z</time>
      </trkpt>
      <trkpt lat="46.88035" lon="4.7035">
        <ele>336.100927</ele>
        <time>2011-03-12T11:42:50Z</time>
      </trkpt>
      <trkpt lat="46.88032" lon="4.70333">
        <ele>336.142306</ele>
        <time>2011-03-12T11:42:54Z</time>
      </trkpt>
      <trkpt lat="46.88029" lon="4.7032">
        <ele>336.221602</ele>
        <time>2011-03-12T11:42:57Z</time>
      </trkpt>
      <trkpt lat="46.88024" lon="4.70304">
        <ele>336.3135</ele>
        <time>2011-03-12T11:43:01Z</time>
      </trkpt>
      <trkpt lat="46.88021" lon="4.70291">
        <ele>336.427259</ele>
        <time>2011-03-12T11:43:05Z</time>
      </trkpt>
      <trkpt lat="46.88019" lon="4.70277">
        <ele>336.587565</ele>
        <time>2011-03-12T11:43:09Z</time>
      </trkpt>
      <trkpt lat="46.88016" lon="4.70263">
        <ele>336.798278</ele>
        <time>2011-03-12T11:43:13Z</time>
      </trkpt>
      <trkpt lat="46.88013" lon="4.7025">
        <ele>337.055453</ele>
        <time>2011-03-12T11:43:17Z</time>
      </trkpt>
      <trkpt lat="46.88013" lon="4.7025">
        <ele>337.312374</ele>
        <time>2011-03-12T11:43:20Z</time>
      </trkpt>
      <trkpt lat="46.88008" lon="4.70223">
        <ele>337.53748</ele>
        <time>2011-03-12T11:43:24Z</time>
      </trkpt>
      <trkpt lat="46.88005" lon="4.70208">
        <ele>337.796333</ele>
        <time>2011-03-12T11:43:27Z</time>
      </trkpt>
      <trkpt lat="46.88002" lon="4.70195">
        <ele>338.132783</ele>
        <time>2011-03-12T11:43:29Z</time>
      </trkpt>
      <trkpt lat="46.87998" lon="4.70183">
        <ele>338.500054</ele>
        <time>2011-03-12T11:43:31Z</time>
      </trkpt>
      <trkpt lat="46.87989" lon="4.70164">
        <ele>338.862178</ele>
        <time>2011-03-12T11:43:34Z</time>
      </trkpt>
      <trkpt lat="46.87983" lon="4.70149">
        <ele>339.484554</ele>
        <time>2011-03-12T11:43:36Z</time>
      </trkpt>
      <trkpt lat="46.87972" lon="4.70123">
        <ele>340.913444</ele>
        <time>2011-03-12T11:43:39Z</time>
      </trkpt>
      <trkpt lat="46.87961" lon="4.70106">
        <ele>343.262231</ele>
        <time>2011-03-12T11:43:41Z</time>
      </trkpt>
      <trkpt lat="46.87945" lon="4.70079">
        <ele>345.78602</ele>
        <time>2011-03-12T11:43:44Z</time>
      </trkpt>
      <trkpt lat="46.87934" lon="4.70044">
        <ele>347.545247</ele>
        <time>2011-03-12T11:43:47Z</time>
      </trkpt>
      <trkpt lat="46.87922" lon="4.70003">
        <ele>348.249343</ele>
        <time>2011-03-12T11:43:50Z</time>
      </trkpt>
      <trkpt lat="46.87915" lon="4.69958">
        <ele>348.277557</ele>
        <time>2011-03-12T11:43:53Z</time>
      </trkpt>
      <trkpt lat="46.87912" lon="4.69926">
        <ele>348.041518</ele>
        <time>2011-03-12T11:43:55Z</time>
      </trkpt>
      <trkpt lat="46.87903" lon="4.69878">
        <ele>347.578707</ele>
        <time>2011-03-12T11:43:58Z</time>
      </trkpt>
      <trkpt lat="46.87897" lon="4.69841">
        <ele>346.803186</ele>
        <time>2011-03-12T11:44:01Z</time>
      </trkpt>
      <trkpt lat="46.87897" lon="4.69841">
        <ele>345.9594</ele>
        <time>2011-03-12T11:44:04Z</time>
      </trkpt>
      <trkpt lat="46.87878" lon="4.69798">
        <ele>345.34917</ele>
        <time>2011-03-12T11:44:24Z</time>
      </trkpt>
      <trkpt lat="46.87873" lon="4.69786">
        <ele>344.893399</ele>
        <time>2011-03-12T11:44:27Z</time>
      </trkpt>
      <trkpt lat="46.87867" lon="4.69774">
        <ele>344.324186</ele>
        <time>2011-03-12T11:44:30Z</time>
      </trkpt>
      <trkpt lat="46.87859" lon="4.69765">
        <ele>342.926729</ele>
        <time>2011-03-12T11:44:34Z</time>
      </trkpt>
      <trkpt lat="46.87851" lon="4.69757">
        <ele>340.433356</ele>
        <time>2011-03-12T11:44:38Z</time>
      </trkpt>
      <trkpt lat="46.87842" lon="4.69749">
        <ele>337.925322</ele>
        <time>2011-03-12T11:44:42Z</time>
      </trkpt>
      <trkpt lat="46.87833" lon="4.69741">
        <ele>336.294574</ele>
        <time>2011-03-12T11:44:46Z</time>
      </trkpt>
      <trkpt lat="46.87824" lon="4.69735">
        <ele>335.244585</ele>
        <time>2011-03-12T11:44:50Z</time>
      </trkpt>
      <trkpt lat="46.87814" lon="4.69728">
        <ele>334.334044</ele>
        <time>2011-03-12T11:44:55Z</time>
      </trkpt>
      <trkpt lat="46.87806" lon="4.69721">
        <ele>333.35421</ele>
        <time>2011-03-12T11:44:59Z</time>
      </trkpt>
      <trkpt lat="46.87798" lon="4.69713">
        <ele>332.275556</ele>
        <time>2011-03-12T11:45:03Z</time>
      </trkpt>
      <trkpt lat="46.87789" lon="4.69706">
        <ele>331.117785</ele>
        <time>2011-03-12T11:45:06Z</time>
      </trkpt>
      <trkpt lat="46.87778" lon="4.69698">
        <ele>329.933019</ele>
        <time>2011-03-12T11:45:09Z</time>
      </trkpt>
      <trkpt lat="46.87767" lon="4.69689">
        <ele>328.82567</ele>
        <time>2011-03-12T11:45:12Z</time>
      </trkpt>
      <trkpt lat="46.87757" lon="4.69679">
        <ele>327.879159</ele>
        <time>2011-03-12T11:45:15Z</time>
      </trkpt>
      <trkpt lat="46.87747" lon="4.69671">
        <ele>327.076446</ele>
        <time>2011-03-12T11:45:18Z</time>
      </trkpt>
      <trkpt lat="46.87736" lon="4.69665">
        <ele>325.98019</ele>
        <time>2011-03-12T11:45:22Z</time>
      </trkpt>
      <trkpt lat="46.87727" lon="4.6966">
        <ele>324.325598</ele>
        <time>2011-03-12T11:45:25Z</time>
      </trkpt>
      <trkpt lat="46.87719" lon="4.69654">
        <ele>322.683886</ele>
        <time>2011-03-12T11:45:28Z</time>
      </trkpt>
      <trkpt lat="46.87711" lon="4.69648">
        <ele>321.583714</ele>
        <time>2011-03-12T11:45:31Z</time>
      </trkpt>
      <trkpt lat="46.87703" lon="4.69641">
        <ele>320.88734</ele>
        <time>2011-03-12T11:45:34Z</time>
      </trkpt>
      <trkpt lat="46.87694" lon="4.69632">
        <ele>320.376925</ele>
        <time>2011-03-12T11:45:38Z</time>
      </trkpt>
      <trkpt lat="46.87685" lon="4.69623">
        <ele>319.932604</ele>
        <time>2011-03-12T11:45:42Z</time>
      </trkpt>
      <trkpt lat="46.87685" lon="4.69623">
        <ele>319.559739</ele>
        <time>2011-03-12T11:45:45Z</time>
      </trkpt>
      <trkpt lat="46.87657" lon="4.69598">
        <ele>319.292178</ele>
        <time>2011-03-12T11:45:53Z</time>
      </trkpt>
      <trkpt lat="46.87649" lon="4.69591">
        <ele>319.088545</ele>
        <time>2011-03-12T11:45:56Z</time>
      </trkpt>
      <trkpt lat="46.87649" lon="4.69591">
        <ele>318.91367</ele>
        <time>2011-03-12T11:45:57Z</time>
      </trkpt>
      <trkpt lat="46.87631" lon="4.69572">
        <ele>318.790739</ele>
        <time>2011-03-12T11:46:02Z</time>
      </trkpt>
      <trkpt lat="46.87623" lon="4.69564">
        <ele>318.748124</ele>
        <time>2011-03-12T11:46:05Z</time>
      </trkpt>
      <trkpt lat="46.87616" lon="4.69556">
        <ele>318.879992</ele>
        <time>2011-03-12T11:46:08Z</time>
      </trkpt>
      <trkpt lat="46.87607" lon="4.69549">
        <ele>319.203405</ele>
        <time>2011-03-12T11:46:11Z</time>
      </trkpt>
      <trkpt lat="46.87598" lon="4.69542">
        <ele>319.581227</ele>
        <time>2011-03-12T11:46:14Z</time>
      </trkpt>
      <trkpt lat="46.87589" lon="4.69536">
        <ele>319.921451</ele>
        <time>2011-03-12T11:46:17Z</time>
      </trkpt>
      <trkpt lat="46.8758" lon="4.69529">
        <ele>320.246019</ele>
        <time>2011-03-12T11:46:20Z</time>
      </trkpt>
      <trkpt lat="46.8757" lon="4.69522">
        <ele>320.57458</ele>
        <time>2011-03-12T11:46:23Z</time>
      </trkpt>
      <trkpt lat="46.87561" lon="4.69516">
        <ele>320.934735</ele>
        <time>2011-03-12T11:46:26Z</time>
      </trkpt>
      <trkpt lat="46.87553" lon="4.6951">
        <ele>321.335067</ele>
        <time>2011-03-12T11:46:29Z</time>
      </trkpt>
      <trkpt lat="46.87553" lon="4.6951">
        <ele>321.695334</ele>
        <time>2011-03-12T11:46:31Z</time>
      </trkpt>
      <trkpt lat="46.87525" lon="4.69497">
        <ele>321.939577</ele>
        <time>2011-03-12T11:46:38Z</time>
      </trkpt>
      <trkpt lat="46.87514" lon="4.69494">
        <ele>322.125929</ele>
        <time>2011-03-12T11:46:41Z</time>
      </trkpt>
      <trkpt lat="46.87502" lon="4.6949">
        <ele>322.357645</ele>
        <time>2011-03-12T11:46:44Z</time>
      </trkpt>
      <trkpt lat="46.8749" lon="4.69485">
        <ele>322.79561</ele>
        <time>2011-03-12T11:46:47Z</time>
      </trkpt>
      <trkpt lat="46.8749" lon="4.69485">
        <ele>323.450006</ele>
        <time>2011-03-12T11:46:51Z</time>
      </trkpt>
      <trkpt lat="46.87467" lon="4.69475">
        <ele>324.060718</ele>
        <time>2011-03-12T11:46:54Z</time>
      </trkpt>
      <trkpt lat="46.87467" lon="4.69475">
        <ele>324.44101</ele>
        <time>2011-03-12T11:46:58Z</time>
      </trkpt>
      <trkpt lat="46.87447" lon="4.69467">
        <ele>324.645346</ele>
        <time>2011-03-12T11:47:01Z</time>
      </trkpt>
      <trkpt lat="46.87438" lon="4.69463">
        <ele>324.781007</ele>
        <time>2011-03-12T11:47:04Z</time>
      </trkpt>
      <trkpt lat="46.87438" lon="4.69463">
        <ele>324.908678</ele>
        <time>2011-03-12T11:47:06Z</time>
      </trkpt>
      <trkpt lat="46.87438" lon="4.69463">
        <ele>324.928667</ele>
        <time>2011-03-12T11:47:42Z</time>
      </trkpt>
      <trkpt lat="46.87405" lon="4.69447">
        <ele>324.925759</ele>
        <time>2011-03-12T11:48:04Z</time>
      </trkpt>
      <trkpt lat="46.87399" lon="4.69437">
        <ele>325.182681</ele>
        <time>2011-03-12T11:48:08Z</time>
      </trkpt>
      <trkpt lat="46.87392" lon="4.69425">
        <ele>325.697308</ele>
        <time>2011-03-12T11:48:10Z</time>
      </trkpt>
      <trkpt lat="46.8738" lon="4.694">
        <ele>326.737082</ele>
        <time>2011-03-12T11:48:13Z</time>
      </trkpt>
      <trkpt lat="46.87363" lon="4.69376">
        <ele>328.56993</ele>
        <time>2011-03-12T11:48:16Z</time>
      </trkpt>
      <trkpt lat="46.8735" lon="4.69362">
        <ele>330.613149</ele>
        <time>2011-03-12T11:48:18Z</time>
      </trkpt>
      <trkpt lat="46.87331" lon="4.69327">
        <ele>332.434397</ele>
        <time>2011-03-12T11:48:21Z</time>
      </trkpt>
      <trkpt lat="46.87318" lon="4.69304">
        <ele>334.02683</ele>
        <time>2011-03-12T11:48:23Z</time>
      </trkpt>
      <trkpt lat="46.87295" lon="4.69279">
        <ele>335.028071</ele>
        <time>2011-03-12T11:48:26Z</time>
      </trkpt>
      <trkpt lat="46.87273" lon="4.69253">
        <ele>335.32725</ele>
        <time>2011-03-12T11:48:29Z</time>
      </trkpt>
      <trkpt lat="46.87252" lon="4.69227">
        <ele>335.203209</ele>
        <time>2011-03-12T11:48:32Z</time>
      </trkpt>
      <trkpt lat="46.87232" lon="4.69202">
        <ele>334.764583</ele>
        <time>2011-03-12T11:48:35Z</time>
      </trkpt>
      <trkpt lat="46.87213" lon="4.6918">
        <ele>333.957622</ele>
        <time>2011-03-12T11:48:38Z</time>
      </trkpt>
      <trkpt lat="46.87197" lon="4.69161">
        <ele>332.842602</ele>
        <time>2011-03-12T11:48:41Z</time>
      </trkpt>
      <trkpt lat="46.87189" lon="4.69153">
        <ele>331.5435</ele>
        <time>2011-03-12T11:48:43Z</time>
      </trkpt>
      <trkpt lat="46.8718" lon="4.69142">
        <ele>329.896581</ele>
        <time>2011-03-12T11:48:46Z</time>
      </trkpt>
      <trkpt lat="46.87171" lon="4.69133">
        <ele>327.528778</ele>
        <time>2011-03-12T11:48:49Z</time>
      </trkpt>
      <trkpt lat="46.87162" lon="4.69123">
        <ele>324.648346</ele>
        <time>2011-03-12T11:48:52Z</time>
      </trkpt>
      <trkpt lat="46.87154" lon="4.69114">
        <ele>322.127873</ele>
        <time>2011-03-12T11:48:55Z</time>
      </trkpt>
      <trkpt lat="46.87145" lon="4.69105">
        <ele>320.619703</ele>
        <time>2011-03-12T11:48:58Z</time>
      </trkpt>
      <trkpt lat="46.87133" lon="4.69099">
        <ele>320.084084</ele>
        <time>2011-03-12T11:49:01Z</time>
      </trkpt>
      <trkpt lat="46.87124" lon="4.69093">
        <ele>320.098119</ele>
        <time>2011-03-12T11:49:04Z</time>
      </trkpt>
      <trkpt lat="46.87116" lon="4.69088">
        <ele>320.245635</ele>
        <time>2011-03-12T11:49:07Z</time>
      </trkpt>
      <trkpt lat="46.87116" lon="4.69088">
        <ele>320.34406</ele>
        <time>2011-03-12T11:49:08Z</time>
      </trkpt>
      <trkpt lat="46.87103" lon="4.69073">
        <ele>320.376042</ele>
        <time>2011-03-12T11:49:12Z</time>
      </trkpt>
      <trkpt lat="46.87094" lon="4.69063">
        <ele>320.376987</ele>
        <time>2011-03-12T11:49:15Z</time>
      </trkpt>
      <trkpt lat="46.87085" lon="4.69056">
        <ele>320.370059</ele>
        <time>2011-03-12T11:49:18Z</time>
      </trkpt>
      <trkpt lat="46.87073" lon="4.6905">
        <ele>320.359609</ele>
        <time>2011-03-12T11:49:21Z</time>
      </trkpt>
      <trkpt lat="46.87064" lon="4.69045">
        <ele>320.346354</ele>
        <time>2011-03-12T11:49:23Z</time>
      </trkpt>
      <trkpt lat="46.87048" lon="4.69036">
        <ele>320.332078</ele>
        <time>2011-03-12T11:49:26Z</time>
      </trkpt>
      <trkpt lat="46.87032" lon="4.6903">
        <ele>320.320366</ele>
        <time>2011-03-12T11:49:29Z</time>
      </trkpt>
      <trkpt lat="46.87018" lon="4.69023">
        <ele>320.299983</ele>
        <time>2011-03-12T11:49:32Z</time>
      </trkpt>
      <trkpt lat="46.8701" lon="4.69018">
        <ele>320.058059</ele>
        <time>2011-03-12T11:49:34Z</time>
      </trkpt>
      <trkpt lat="46.86998" lon="4.6901">
        <ele>319.479558</ele>
        <time>2011-03-12T11:49:37Z</time>
      </trkpt>
      <trkpt lat="46.86987" lon="4.69">
        <ele>318.882714</ele>
        <time>2011-03-12T11:49:40Z</time>
      </trkpt>
      <trkpt lat="46.86978" lon="4.68991">
        <ele>318.573493</ele>
        <time>2011-03-12T11:49:43Z</time>
      </trkpt>
      <trkpt lat="46.86969" lon="4.68979">
        <ele>318.423955</ele>
        <time>2011-03-12T11:49:46Z</time>
      </trkpt>
      <trkpt lat="46.86959" lon="4.68967">
        <ele>318.163865</ele>
        <time>2011-03-12T11:49:49Z</time>
      </trkpt>
      <trkpt lat="46.86951" lon="4.68955">
        <ele>317.751255</ele>
        <time>2011-03-12T11:49:52Z</time>
      </trkpt>
      <trkpt lat="46.86941" lon="4.68941">
        <ele>317.384763</ele>
        <time>2011-03-12T11:49:55Z</time>
      </trkpt>
      <trkpt lat="46.8693" lon="4.6893">
        <ele>317.185033</ele>
        <time>2011-03-12T11:49:58Z</time>
      </trkpt>
      <trkpt lat="46.86915" lon="4.68917">
        <ele>317.119447</ele>
        <time>2011-03-12T11:50:01Z</time>
      </trkpt>
      <trkpt lat="46.86895" lon="4.68904">
        <ele>317.123481</ele>
        <time>2011-03-12T11:50:04Z</time>
      </trkpt>
      <trkpt lat="46.8688" lon="4.68893">
        <ele>317.139778</ele>
        <time>2011-03-12T11:50:06Z</time>
      </trkpt>
      <trkpt lat="46.86854" lon="4.68874">
        <ele>317.129309</ele>
        <time>2011-03-12T11:50:09Z</time>
      </trkpt>
      <trkpt lat="46.86837" lon="4.68858">
        <ele>317.068607</ele>
        <time>2011-03-12T11:50:11Z</time>
      </trkpt>
      <trkpt lat="46.86821" lon="4.68842">
        <ele>316.961343</ele>
        <time>2011-03-12T11:50:13Z</time>
      </trkpt>
      <trkpt lat="46.86802" lon="4.68823">
        <ele>316.753687</ele>
        <time>2011-03-12T11:50:16Z</time>
      </trkpt>
      <trkpt lat="46.86792" lon="4.68813">
        <ele>316.389833</ele>
        <time>2011-03-12T11:50:18Z</time>
      </trkpt>
      <trkpt lat="46.86781" lon="4.68805">
        <ele>315.95261</ele>
        <time>2011-03-12T11:50:20Z</time>
      </trkpt>
      <trkpt lat="46.86764" lon="4.68797">
        <ele>315.437488</ele>
        <time>2011-03-12T11:50:23Z</time>
      </trkpt>
      <trkpt lat="46.86748" lon="4.6879">
        <ele>314.705356</ele>
        <time>2011-03-12T11:50:26Z</time>
      </trkpt>
      <trkpt lat="46.86731" lon="4.68781">
        <ele>313.814488</ele>
        <time>2011-03-12T11:50:29Z</time>
      </trkpt>
      <trkpt lat="46.8672" lon="4.68776">
        <ele>312.943816</ele>
        <time>2011-03-12T11:50:31Z</time>
      </trkpt>
      <trkpt lat="46.86703" lon="4.68766">
        <ele>312.205768</ele>
        <time>2011-03-12T11:50:34Z</time>
      </trkpt>
      <trkpt lat="46.86693" lon="4.68761">
        <ele>311.652269</ele>
        <time>2011-03-12T11:50:36Z</time>
      </trkpt>
      <trkpt lat="46.86683" lon="4.68761">
        <ele>311.253572</ele>
        <time>2011-03-12T11:50:38Z</time>
      </trkpt>
      <trkpt lat="46.86673" lon="4.6877">
        <ele>310.979187</ele>
        <time>2011-03-12T11:50:41Z</time>
      </trkpt>
      <trkpt lat="46.86673" lon="4.6877">
        <ele>310.832521</ele>
        <time>2011-03-12T11:50:42Z</time>
      </trkpt>
      <trkpt lat="46.86648" lon="4.68794">
        <ele>310.773929</ele>
        <time>2011-03-12T11:50:57Z</time>
      </trkpt>
      <trkpt lat="46.86648" lon="4.68794">
        <ele>310.749621</ele>
        <time>2011-03-12T11:51:00Z</time>
      </trkpt>
      <trkpt lat="46.86619" lon="4.68798">
        <ele>310.72073</ele>
        <time>2011-03-12T11:51:10Z</time>
      </trkpt>
      <trkpt lat="46.86619" lon="4.68798">
        <ele>310.64571</ele>
        <time>2011-03-12T11:51:14Z</time>
      </trkpt>
      <trkpt lat="46.86588" lon="4.68791">
        <ele>310.530455</ele>
        <time>2011-03-12T11:51:24Z</time>
      </trkpt>
      <trkpt lat="46.86578" lon="4.6879">
        <ele>310.4368</ele>
        <time>2011-03-12T11:51:28Z</time>
      </trkpt>
      <trkpt lat="46.86569" lon="4.6879">
        <ele>310.399213</ele>
        <time>2011-03-12T11:51:32Z</time>
      </trkpt>
      <trkpt lat="46.86558" lon="4.6879">
        <ele>310.672698</ele>
        <time>2011-03-12T11:51:37Z</time>
      </trkpt>
      <trkpt lat="46.86547" lon="4.68791">
        <ele>311.503031</ele>
        <time>2011-03-12T11:51:41Z</time>
      </trkpt>
      <trkpt lat="46.86529" lon="4.6879">
        <ele>312.622644</ele>
        <time>2011-03-12T11:51:49Z</time>
      </trkpt>
      <trkpt lat="46.86519" lon="4.6879">
        <ele>313.662321</ele>
        <time>2011-03-12T11:51:54Z</time>
      </trkpt>
      <trkpt lat="46.8651" lon="4.68788">
        <ele>314.604602</ele>
        <time>2011-03-12T11:51:59Z</time>
      </trkpt>
      <trkpt lat="46.865" lon="4.68787">
        <ele>315.642894</ele>
        <time>2011-03-12T11:52:05Z</time>
      </trkpt>
      <trkpt lat="46.86491" lon="4.68791">
        <ele>316.924426</ele>
        <time>2011-03-12T11:52:11Z</time>
      </trkpt>
      <trkpt lat="46.86482" lon="4.68796">
        <ele>318.302901</ele>
        <time>2011-03-12T11:52:16Z</time>
      </trkpt>
      <trkpt lat="46.86472" lon="4.68797">
        <ele>319.585158</ele>
        <time>2011-03-12T11:52:22Z</time>
      </trkpt>
      <trkpt lat="46.86458" lon="4.68807">
        <ele>320.777659</ele>
        <time>2011-03-12T11:52:31Z</time>
      </trkpt>
      <trkpt lat="46.86449" lon="4.68812">
        <ele>321.882468</ele>
        <time>2011-03-12T11:52:36Z</time>
      </trkpt>
      <trkpt lat="46.86437" lon="4.68823">
        <ele>322.885258</ele>
        <time>2011-03-12T11:52:46Z</time>
      </trkpt>
      <trkpt lat="46.86437" lon="4.68823">
        <ele>323.701576</ele>
        <time>2011-03-12T11:52:58Z</time>
      </trkpt>
      <trkpt lat="46.86437" lon="4.68823">
        <ele>324.169922</ele>
        <time>2011-03-12T11:53:16Z</time>
      </trkpt>
      <trkpt lat="46.8641" lon="4.6883">
        <ele>324.541686</ele>
        <time>2011-03-12T11:53:59Z</time>
      </trkpt>
      <trkpt lat="46.864" lon="4.68835">
        <ele>325.301712</ele>
        <time>2011-03-12T11:54:05Z</time>
      </trkpt>
      <trkpt lat="46.86391" lon="4.68846">
        <ele>326.52253</ele>
        <time>2011-03-12T11:54:13Z</time>
      </trkpt>
      <trkpt lat="46.86383" lon="4.68852">
        <ele>328.513488</ele>
        <time>2011-03-12T11:54:17Z</time>
      </trkpt>
      <trkpt lat="46.86374" lon="4.68857">
        <ele>331.44347</ele>
        <time>2011-03-12T11:54:22Z</time>
      </trkpt>
      <trkpt lat="46.86365" lon="4.68859">
        <ele>334.414834</ele>
        <time>2011-03-12T11:54:27Z</time>
      </trkpt>
      <trkpt lat="46.86356" lon="4.68865">
        <ele>336.49076</ele>
        <time>2011-03-12T11:54:33Z</time>
      </trkpt>
      <trkpt lat="46.86348" lon="4.68874">
        <ele>337.600284</ele>
        <time>2011-03-12T11:54:38Z</time>
      </trkpt>
      <trkpt lat="46.86342" lon="4.68884">
        <ele>338.056361</ele>
        <time>2011-03-12T11:54:43Z</time>
      </trkpt>
      <trkpt lat="46.86334" lon="4.68893">
        <ele>338.272813</ele>
        <time>2011-03-12T11:54:47Z</time>
      </trkpt>
      <trkpt lat="46.86327" lon="4.68901">
        <ele>338.521824</ele>
        <time>2011-03-12T11:54:51Z</time>
      </trkpt>
      <trkpt lat="46.86319" lon="4.6891">
        <ele>338.868589</ele>
        <time>2011-03-12T11:54:55Z</time>
      </trkpt>
      <trkpt lat="46.8631" lon="4.68921">
        <ele>339.252457</ele>
        <time>2011-03-12T11:54:59Z</time>
      </trkpt>
      <trkpt lat="46.86303" lon="4.6893">
        <ele>339.616439</ele>
        <time>2011-03-12T11:55:03Z</time>
      </trkpt>
      <trkpt lat="46.86296" lon="4.68941">
        <ele>339.942464</ele>
        <time>2011-03-12T11:55:08Z</time>
      </trkpt>
      <trkpt lat="46.8629" lon="4.68954">
        <ele>340.2342</ele>
        <time>2011-03-12T11:55:13Z</time>
      </trkpt>
      <trkpt lat="46.86284" lon="4.68968">
        <ele>340.518569</ele>
        <time>2011-03-12T11:55:18Z</time>
      </trkpt>
      <trkpt lat="46.86279" lon="4.68981">
        <ele>340.848402</ele>
        <time>2011-03-12T11:55:23Z</time>
      </trkpt>
      <trkpt lat="46.86274" lon="4.68992">
        <ele>341.271348</ele>
        <time>2011-03-12T11:55:27Z</time>
      </trkpt>
      <trkpt lat="46.86267" lon="4.69002">
        <ele>341.811448</ele>
        <time>2011-03-12T11:55:31Z</time>
      </trkpt>
      <trkpt lat="46.86258" lon="4.6901">
        <ele>342.475961</ele>
        <time>2011-03-12T11:55:35Z</time>
      </trkpt>
      <trkpt lat="46.86248" lon="4.69019">
        <ele>343.225817</ele>
        <time>2011-03-12T11:55:39Z</time>
      </trkpt>
      <trkpt lat="46.8624" lon="4.69026">
        <ele>343.985012</ele>
        <time>2011-03-12T11:55:42Z</time>
      </trkpt>
      <trkpt lat="46.8623" lon="4.69034">
        <ele>344.707561</ele>
        <time>2011-03-12T11:55:45Z</time>
      </trkpt>
      <trkpt lat="46.86221" lon="4.69041">
        <ele>345.418172</ele>
        <time>2011-03-12T11:55:48Z</time>
      </trkpt>
      <trkpt lat="46.86213" lon="4.69048">
        <ele>346.150513</ele>
        <time>2011-03-12T11:55:51Z</time>
      </trkpt>
      <trkpt lat="46.86205" lon="4.69056">
        <ele>346.896572</ele>
        <time>2011-03-12T11:55:54Z</time>
      </trkpt>
      <trkpt lat="46.86197" lon="4.69066">
        <ele>347.635358</ele>
        <time>2011-03-12T11:55:57Z</time>
      </trkpt>
      <trkpt lat="46.8619" lon="4.69079">
        <ele>348.351225</ele>
        <time>2011-03-12T11:56:00Z</time>
      </trkpt>
      <trkpt lat="46.86184" lon="4.69093">
        <ele>349.019958</ele>
        <time>2011-03-12T11:56:03Z</time>
      </trkpt>
      <trkpt lat="46.86182" lon="4.69111">
        <ele>349.630876</ele>
        <time>2011-03-12T11:56:06Z</time>
      </trkpt>
      <trkpt lat="46.86176" lon="4.6913">
        <ele>350.185241</ele>
        <time>2011-03-12T11:56:09Z</time>
      </trkpt>
      <trkpt lat="46.8617" lon="4.69141">
        <ele>350.68775</ele>
        <time>2011-03-12T11:56:11Z</time>
      </trkpt>
      <trkpt lat="46.86163" lon="4.69155">
        <ele>351.161114</ele>
        <time>2011-03-12T11:56:14Z</time>
      </trkpt>
      <trkpt lat="46.86157" lon="4.69167">
        <ele>352.031449</ele>
        <time>2011-03-12T11:56:17Z</time>
      </trkpt>
      <trkpt lat="46.8615" lon="4.69179">
        <ele>353.508048</ele>
        <time>2011-03-12T11:56:20Z</time>
      </trkpt>
      <trkpt lat="46.86143" lon="4.69189">
        <ele>354.928146</ele>
        <time>2011-03-12T11:56:23Z</time>
      </trkpt>
      <trkpt lat="46.86137" lon="4.692">
        <ele>355.713941</ele>
        <time>2011-03-12T11:56:26Z</time>
      </trkpt>
      <trkpt lat="46.86132" lon="4.69212">
        <ele>356.027794</ele>
        <time>2011-03-12T11:56:29Z</time>
      </trkpt>
      <trkpt lat="46.86124" lon="4.69223">
        <ele>356.138016</ele>
        <time>2011-03-12T11:56:32Z</time>
      </trkpt>
      <trkpt lat="46.86117" lon="4.69235">
        <ele>356.199427</ele>
        <time>2011-03-12T11:56:35Z</time>
      </trkpt>
      <trkpt lat="46.86112" lon="4.69247">
        <ele>356.250987</ele>
        <time>2011-03-12T11:56:38Z</time>
      </trkpt>
      <trkpt lat="46.86106" lon="4.69259">
        <ele>356.288804</ele>
        <time>2011-03-12T11:56:41Z</time>
      </trkpt>
      <trkpt lat="46.861" lon="4.69274">
        <ele>356.32029</ele>
        <time>2011-03-12T11:56:44Z</time>
      </trkpt>
      <trkpt lat="46.86094" lon="4.69286">
        <ele>356.36831</ele>
        <time>2011-03-12T11:56:47Z</time>
      </trkpt>
      <trkpt lat="46.86086" lon="4.69297">
        <ele>356.467815</ele>
        <time>2011-03-12T11:56:51Z</time>
      </trkpt>
      <trkpt lat="46.86075" lon="4.69303">
        <ele>356.66965</ele>
        <time>2011-03-12T11:56:55Z</time>
      </trkpt>
      <trkpt lat="46.86065" lon="4.69307">
        <ele>356.994156</ele>
        <time>2011-03-12T11:56:58Z</time>
      </trkpt>
      <trkpt lat="46.86053" lon="4.69308">
        <ele>357.410802</ele>
        <time>2011-03-12T11:57:02Z</time>
      </trkpt>
      <trkpt lat="46.86044" lon="4.6931">
        <ele>357.893869</ele>
        <time>2011-03-12T11:57:05Z</time>
      </trkpt>
      <trkpt lat="46.86034" lon="4.69314">
        <ele>358.438834</ele>
        <time>2011-03-12T11:57:08Z</time>
      </trkpt>
      <trkpt lat="46.86025" lon="4.69317">
        <ele>359.046946</ele>
        <time>2011-03-12T11:57:12Z</time>
      </trkpt>
      <trkpt lat="46.86014" lon="4.69314">
        <ele>359.699309</ele>
        <time>2011-03-12T11:57:17Z</time>
      </trkpt>
      <trkpt lat="46.86003" lon="4.69309">
        <ele>360.337321</ele>
        <time>2011-03-12T11:57:21Z</time>
      </trkpt>
      <trkpt lat="46.85994" lon="4.69304">
        <ele>360.93852</ele>
        <time>2011-03-12T11:57:24Z</time>
      </trkpt>
      <trkpt lat="46.85984" lon="4.69297">
        <ele>361.569469</ele>
        <time>2011-03-12T11:57:27Z</time>
      </trkpt>
      <trkpt lat="46.85974" lon="4.69292">
        <ele>362.26697</ele>
        <time>2011-03-12T11:57:30Z</time>
      </trkpt>
      <trkpt lat="46.85962" lon="4.69288">
        <ele>362.954427</ele>
        <time>2011-03-12T11:57:33Z</time>
      </trkpt>
      <trkpt lat="46.8595" lon="4.69282">
        <ele>363.534114</ele>
        <time>2011-03-12T11:57:36Z</time>
      </trkpt>
      <trkpt lat="46.85939" lon="4.69274">
        <ele>363.982076</ele>
        <time>2011-03-12T11:57:39Z</time>
      </trkpt>
      <trkpt lat="46.85928" lon="4.69265">
        <ele>364.318667</ele>
        <time>2011-03-12T11:57:42Z</time>
      </trkpt>
      <trkpt lat="46.85917" lon="4.69258">
        <ele>364.572346</ele>
        <time>2011-03-12T11:57:45Z</time>
      </trkpt>
      <trkpt lat="46.85902" lon="4.69247">
        <ele>364.776337</ele>
        <time>2011-03-12T11:57:48Z</time>
      </trkpt>
      <trkpt lat="46.85891" lon="4.69238">
        <ele>364.947154</ele>
        <time>2011-03-12T11:57:51Z</time>
      </trkpt>
      <trkpt lat="46.85881" lon="4.69229">
        <ele>365.085724</ele>
        <time>2011-03-12T11:57:54Z</time>
      </trkpt>
      <trkpt lat="46.85873" lon="4.69221">
        <ele>365.443968</ele>
        <time>2011-03-12T11:57:57Z</time>
      </trkpt>
      <trkpt lat="46.85865" lon="4.69212">
        <ele>366.351327</ele>
        <time>2011-03-12T11:58:00Z</time>
      </trkpt>
      <trkpt lat="46.85856" lon="4.69202">
        <ele>367.586087</ele>
        <time>2011-03-12T11:58:03Z</time>
      </trkpt>
      <trkpt lat="46.85847" lon="4.69196">
        <ele>368.555979</ele>
        <time>2011-03-12T11:58:06Z</time>
      </trkpt>
      <trkpt lat="46.85847" lon="4.69196">
        <ele>369.010893</ele>
        <time>2011-03-12T11:58:10Z</time>
      </trkpt>
      <trkpt lat="46.85828" lon="4.69182">
        <ele>369.094989</ele>
        <time>2011-03-12T11:58:14Z</time>
      </trkpt>
      <trkpt lat="46.85817" lon="4.69176">
        <ele>369.041407</ele>
        <time>2011-03-12T11:58:18Z</time>
      </trkpt>
      <trkpt lat="46.85808" lon="4.69172">
        <ele>368.984061</ele>
        <time>2011-03-12T11:58:21Z</time>
      </trkpt>
      <trkpt lat="46.85798" lon="4.69167">
        <ele>368.94418</ele>
        <time>2011-03-12T11:58:24Z</time>
      </trkpt>
      <trkpt lat="46.85787" lon="4.69158">
        <ele>368.891639</ele>
        <time>2011-03-12T11:58:27Z</time>
      </trkpt>
      <trkpt lat="46.85775" lon="4.69149">
        <ele>368.803317</ele>
        <time>2011-03-12T11:58:30Z</time>
      </trkpt>
      <trkpt lat="46.85764" lon="4.69141">
        <ele>368.703068</ele>
        <time>2011-03-12T11:58:33Z</time>
      </trkpt>
      <trkpt lat="46.85764" lon="4.69141">
        <ele>368.629247</ele>
        <time>2011-03-12T11:58:36Z</time>
      </trkpt>
      <trkpt lat="46.85741" lon="4.69128">
        <ele>368.581227</ele>
        <time>2011-03-12T11:58:42Z</time>
      </trkpt>
      <trkpt lat="46.85731" lon="4.69122">
        <ele>368.536495</ele>
        <time>2011-03-12T11:58:45Z</time>
      </trkpt>
      <trkpt lat="46.85721" lon="4.69116">
        <ele>368.49536</ele>
        <time>2011-03-12T11:58:48Z</time>
      </trkpt>
      <trkpt lat="46.8571" lon="4.6911">
        <ele>368.467053</ele>
        <time>2011-03-12T11:58:51Z</time>
      </trkpt>
      <trkpt lat="46.85701" lon="4.69104">
        <ele>368.45123</ele>
        <time>2011-03-12T11:58:54Z</time>
      </trkpt>
      <trkpt lat="46.85691" lon="4.69099">
        <ele>368.443819</ele>
        <time>2011-03-12T11:58:57Z</time>
      </trkpt>
      <trkpt lat="46.85681" lon="4.69092">
        <ele>368.442755</ele>
        <time>2011-03-12T11:59:00Z</time>
      </trkpt>
      <trkpt lat="46.85669" lon="4.69088">
        <ele>368.445097</ele>
        <time>2011-03-12T11:59:03Z</time>
      </trkpt>
      <trkpt lat="46.85657" lon="4.69088">
        <ele>368.447718</ele>
        <time>2011-03-12T11:59:05Z</time>
      </trkpt>
      <trkpt lat="46.85641" lon="4.69084">
        <ele>368.454027</ele>
        <time>2011-03-12T11:59:08Z</time>
      </trkpt>
      <trkpt lat="46.85628" lon="4.69081">
        <ele>368.500712</ele>
        <time>2011-03-12T11:59:11Z</time>
      </trkpt>
      <trkpt lat="46.85617" lon="4.69078">
        <ele>368.647862</ele>
        <time>2011-03-12T11:59:14Z</time>
      </trkpt>
      <trkpt lat="46.85606" lon="4.69076">
        <ele>368.9489</ele>
        <time>2011-03-12T11:59:17Z</time>
      </trkpt>
      <trkpt lat="46.85595" lon="4.69072">
        <ele>369.422904</ele>
        <time>2011-03-12T11:59:20Z</time>
      </trkpt>
      <trkpt lat="46.85585" lon="4.69069">
        <ele>370.041907</ele>
        <time>2011-03-12T11:59:23Z</time>
      </trkpt>
      <trkpt lat="46.85575" lon="4.69068">
        <ele>370.755451</ele>
        <time>2011-03-12T11:59:26Z</time>
      </trkpt>
      <trkpt lat="46.85564" lon="4.69068">
        <ele>371.515394</ele>
        <time>2011-03-12T11:59:29Z</time>
      </trkpt>
      <trkpt lat="46.85553" lon="4.69065">
        <ele>372.272743</ele>
        <time>2011-03-12T11:59:32Z</time>
      </trkpt>
      <trkpt lat="46.85542" lon="4.69062">
        <ele>372.997936</ele>
        <time>2011-03-12T11:59:35Z</time>
      </trkpt>
      <trkpt lat="46.85531" lon="4.69058">
        <ele>373.689488</ele>
        <time>2011-03-12T11:59:38Z</time>
      </trkpt>
      <trkpt lat="46.85519" lon="4.69055">
        <ele>374.356779</ele>
        <time>2011-03-12T11:59:41Z</time>
      </trkpt>
      <trkpt lat="46.85508" lon="4.69051">
        <ele>375.005395</ele>
        <time>2011-03-12T11:59:44Z</time>
      </trkpt>
      <trkpt lat="46.85496" lon="4.69046">
        <ele>376.110046</ele>
        <time>2011-03-12T11:59:47Z</time>
      </trkpt>
      <trkpt lat="46.85484" lon="4.69041">
        <ele>378.101878</ele>
        <time>2011-03-12T11:59:50Z</time>
      </trkpt>
      <trkpt lat="46.85472" lon="4.69037">
        <ele>380.458354</ele>
        <time>2011-03-12T11:59:53Z</time>
      </trkpt>
      <trkpt lat="46.8546" lon="4.69032">
        <ele>382.555153</ele>
        <time>2011-03-12T11:59:56Z</time>
      </trkpt>
      <trkpt lat="46.85451" lon="4.69029">
        <ele>384.349127</ele>
        <time>2011-03-12T11:59:58Z</time>
      </trkpt>
      <trkpt lat="46.85437" lon="4.69023">
        <ele>385.740471</ele>
        <time>2011-03-12T12:00:01Z</time>
      </trkpt>
      <trkpt lat="46.85423" lon="4.69017">
        <ele>386.636543</ele>
        <time>2011-03-12T12:00:04Z</time>
      </trkpt>
      <trkpt lat="46.85407" lon="4.6901">
        <ele>387.138547</ele>
        <time>2011-03-12T12:00:07Z</time>
      </trkpt>
      <trkpt lat="46.85396" lon="4.69004">
        <ele>387.391693</ele>
        <time>2011-03-12T12:00:09Z</time>
      </trkpt>
      <trkpt lat="46.85379" lon="4.68996">
        <ele>387.537896</ele>
        <time>2011-03-12T12:00:12Z</time>
      </trkpt>
      <trkpt lat="46.85364" lon="4.68987">
        <ele>387.653168</ele>
        <time>2011-03-12T12:00:15Z</time>
      </trkpt>
      <trkpt lat="46.85354" lon="4.68983">
        <ele>387.732417</ele>
        <time>2011-03-12T12:00:17Z</time>
      </trkpt>
      <trkpt lat="46.8534" lon="4.68979">
        <ele>387.769873</ele>
        <time>2011-03-12T12:00:20Z</time>
      </trkpt>
      <trkpt lat="46.85332" lon="4.68976">
        <ele>387.794437</ele>
        <time>2011-03-12T12:00:22Z</time>
      </trkpt>
      <trkpt lat="46.85317" lon="4.68973">
        <ele>387.824314</ele>
        <time>2011-03-12T12:00:25Z</time>
      </trkpt>
      <trkpt lat="46.85303" lon="4.68966">
        <ele>387.849114</ele>
        <time>2011-03-12T12:00:28Z</time>
      </trkpt>
      <trkpt lat="46.8529" lon="4.68956">
        <ele>387.859251</ele>
        <time>2011-03-12T12:00:31Z</time>
      </trkpt>
      <trkpt lat="46.85275" lon="4.68948">
        <ele>387.841531</ele>
        <time>2011-03-12T12:00:34Z</time>
      </trkpt>
      <trkpt lat="46.85259" lon="4.6894">
        <ele>387.77474</ele>
        <time>2011-03-12T12:00:37Z</time>
      </trkpt>
      <trkpt lat="46.85244" lon="4.68931">
        <ele>387.660655</ele>
        <time>2011-03-12T12:00:40Z</time>
      </trkpt>
      <trkpt lat="46.85227" lon="4.68921">
        <ele>387.527499</ele>
        <time>2011-03-12T12:00:43Z</time>
      </trkpt>
      <trkpt lat="46.85211" lon="4.6891">
        <ele>387.383275</ele>
        <time>2011-03-12T12:00:46Z</time>
      </trkpt>
      <trkpt lat="46.85197" lon="4.689">
        <ele>387.190839</ele>
        <time>2011-03-12T12:00:49Z</time>
      </trkpt>
      <trkpt lat="46.85188" lon="4.68893">
        <ele>386.927744</ele>
        <time>2011-03-12T12:00:51Z</time>
      </trkpt>
      <trkpt lat="46.85173" lon="4.68886">
        <ele>386.659974</ele>
        <time>2011-03-12T12:00:54Z</time>
      </trkpt>
      <trkpt lat="46.85159" lon="4.6888">
        <ele>386.481053</ele>
        <time>2011-03-12T12:00:57Z</time>
      </trkpt>
      <trkpt lat="46.85145" lon="4.6887">
        <ele>386.397708</ele>
        <time>2011-03-12T12:01:00Z</time>
      </trkpt>
      <trkpt lat="46.85137" lon="4.68862">
        <ele>386.350248</ele>
        <time>2011-03-12T12:01:02Z</time>
      </trkpt>
      <trkpt lat="46.85129" lon="4.68848">
        <ele>386.22097</ele>
        <time>2011-03-12T12:01:05Z</time>
      </trkpt>
      <trkpt lat="46.85126" lon="4.68832">
        <ele>385.861404</ele>
        <time>2011-03-12T12:01:08Z</time>
      </trkpt>
      <trkpt lat="46.85122" lon="4.68811">
        <ele>385.28411</ele>
        <time>2011-03-12T12:01:11Z</time>
      </trkpt>
      <trkpt lat="46.85119" lon="4.68788">
        <ele>384.659795</ele>
        <time>2011-03-12T12:01:14Z</time>
      </trkpt>
      <trkpt lat="46.85117" lon="4.68761">
        <ele>384.088288</ele>
        <time>2011-03-12T12:01:17Z</time>
      </trkpt>
      <trkpt lat="46.85118" lon="4.68741">
        <ele>383.595006</ele>
        <time>2011-03-12T12:01:19Z</time>
      </trkpt>
      <trkpt lat="46.85119" lon="4.68721">
        <ele>383.229384</ele>
        <time>2011-03-12T12:01:21Z</time>
      </trkpt>
      <trkpt lat="46.8512" lon="4.68693">
        <ele>383.019551</ele>
        <time>2011-03-12T12:01:24Z</time>
      </trkpt>
      <trkpt lat="46.85115" lon="4.68678">
        <ele>382.923279</ele>
        <time>2011-03-12T12:01:26Z</time>
      </trkpt>
      <trkpt lat="46.851" lon="4.68666">
        <ele>382.879358</ele>
        <time>2011-03-12T12:01:29Z</time>
      </trkpt>
      <trkpt lat="46.8509" lon="4.68663">
        <ele>382.809893</ele>
        <time>2011-03-12T12:01:31Z</time>
      </trkpt>
      <trkpt lat="46.85074" lon="4.68664">
        <ele>382.636421</ele>
        <time>2011-03-12T12:01:34Z</time>
      </trkpt>
      <trkpt lat="46.85062" lon="4.68666">
        <ele>382.282474</ele>
        <time>2011-03-12T12:01:37Z</time>
      </trkpt>
      <trkpt lat="46.8505" lon="4.68668">
        <ele>381.673509</ele>
        <time>2011-03-12T12:01:40Z</time>
      </trkpt>
      <trkpt lat="46.85037" lon="4.68671">
        <ele>380.826631</ele>
        <time>2011-03-12T12:01:43Z</time>
      </trkpt>
      <trkpt lat="46.85024" lon="4.68674">
        <ele>379.923603</ele>
        <time>2011-03-12T12:01:46Z</time>
      </trkpt>
      <trkpt lat="46.85014" lon="4.68675">
        <ele>379.196846</ele>
        <time>2011-03-12T12:01:48Z</time>
      </trkpt>
      <trkpt lat="46.85005" lon="4.68677">
        <ele>378.763306</ele>
        <time>2011-03-12T12:01:50Z</time>
      </trkpt>
      <trkpt lat="46.84992" lon="4.6868">
        <ele>378.575254</ele>
        <time>2011-03-12T12:01:53Z</time>
      </trkpt>
      <trkpt lat="46.84978" lon="4.68681">
        <ele>378.530351</ele>
        <time>2011-03-12T12:01:56Z</time>
      </trkpt>
      <trkpt lat="46.84967" lon="4.68682">
        <ele>378.537121</ele>
        <time>2011-03-12T12:01:58Z</time>
      </trkpt>
      <trkpt lat="46.84952" lon="4.6868">
        <ele>378.540033</ele>
        <time>2011-03-12T12:02:01Z</time>
      </trkpt>
      <trkpt lat="46.84937" lon="4.68675">
        <ele>378.509507</ele>
        <time>2011-03-12T12:02:04Z</time>
      </trkpt>
      <trkpt lat="46.84923" lon="4.68666">
        <ele>378.398344</ele>
        <time>2011-03-12T12:02:07Z</time>
      </trkpt>
      <trkpt lat="46.84914" lon="4.68657">
        <ele>378.174076</ele>
        <time>2011-03-12T12:02:09Z</time>
      </trkpt>
      <trkpt lat="46.84902" lon="4.68643">
        <ele>377.878613</ele>
        <time>2011-03-12T12:02:12Z</time>
      </trkpt>
      <trkpt lat="46.84894" lon="4.68635">
        <ele>377.559797</ele>
        <time>2011-03-12T12:02:14Z</time>
      </trkpt>
      <trkpt lat="46.84881" lon="4.68628">
        <ele>377.222658</ele>
        <time>2011-03-12T12:02:17Z</time>
      </trkpt>
      <trkpt lat="46.84872" lon="4.68624">
        <ele>376.848681</ele>
        <time>2011-03-12T12:02:19Z</time>
      </trkpt>
      <trkpt lat="46.8486" lon="4.68619">
        <ele>376.462689</ele>
        <time>2011-03-12T12:02:22Z</time>
      </trkpt>
      <trkpt lat="46.84851" lon="4.68614">
        <ele>376.147201</ele>
        <time>2011-03-12T12:02:24Z</time>
      </trkpt>
      <trkpt lat="46.84838" lon="4.68606">
        <ele>375.955008</ele>
        <time>2011-03-12T12:02:27Z</time>
      </trkpt>
      <trkpt lat="46.84828" lon="4.686">
        <ele>375.828291</ele>
        <time>2011-03-12T12:02:29Z</time>
      </trkpt>
      <trkpt lat="46.84817" lon="4.68595">
        <ele>375.684291</ele>
        <time>2011-03-12T12:02:31Z</time>
      </trkpt>
      <trkpt lat="46.848" lon="4.68586">
        <ele>375.514989</ele>
        <time>2011-03-12T12:02:34Z</time>
      </trkpt>
      <trkpt lat="46.8479" lon="4.68579">
        <ele>375.375355</ele>
        <time>2011-03-12T12:02:36Z</time>
      </trkpt>
      <trkpt lat="46.84775" lon="4.68568">
        <ele>375.29203</ele>
        <time>2011-03-12T12:02:39Z</time>
      </trkpt>
      <trkpt lat="46.84766" lon="4.68562">
        <ele>375.221318</ele>
        <time>2011-03-12T12:02:41Z</time>
      </trkpt>
      <trkpt lat="46.84752" lon="4.68552">
        <ele>375.064751</ele>
        <time>2011-03-12T12:02:44Z</time>
      </trkpt>
      <trkpt lat="46.8474" lon="4.68543">
        <ele>374.699013</ele>
        <time>2011-03-12T12:02:46Z</time>
      </trkpt>
      <trkpt lat="46.84727" lon="4.68534">
        <ele>374.172718</ele>
        <time>2011-03-12T12:02:48Z</time>
      </trkpt>
      <trkpt lat="46.84708" lon="4.68522">
        <ele>373.744729</ele>
        <time>2011-03-12T12:02:51Z</time>
      </trkpt>
      <trkpt lat="46.84691" lon="4.6851">
        <ele>373.565435</ele>
        <time>2011-03-12T12:02:54Z</time>
      </trkpt>
      <trkpt lat="46.84677" lon="4.685">
        <ele>373.510632</ele>
        <time>2011-03-12T12:02:57Z</time>
      </trkpt>
      <trkpt lat="46.84661" lon="4.68497">
        <ele>373.442839</ele>
        <time>2011-03-12T12:03:00Z</time>
      </trkpt>
      <trkpt lat="46.84646" lon="4.68508">
        <ele>373.365552</ele>
        <time>2011-03-12T12:03:03Z</time>
      </trkpt>
      <trkpt lat="46.84642" lon="4.68523">
        <ele>373.32675</ele>
        <time>2011-03-12T12:03:05Z</time>
      </trkpt>
      <trkpt lat="46.8464" lon="4.68539">
        <ele>373.269936</ele>
        <time>2011-03-12T12:03:07Z</time>
      </trkpt>
      <trkpt lat="46.84638" lon="4.68564">
        <ele>373.091699</ele>
        <time>2011-03-12T12:03:10Z</time>
      </trkpt>
      <trkpt lat="46.8464" lon="4.68588">
        <ele>372.802193</ele>
        <time>2011-03-12T12:03:13Z</time>
      </trkpt>
      <trkpt lat="46.84646" lon="4.68602">
        <ele>372.491048</ele>
        <time>2011-03-12T12:03:15Z</time>
      </trkpt>
      <trkpt lat="46.8466" lon="4.68623">
        <ele>372.116064</ele>
        <time>2011-03-12T12:03:18Z</time>
      </trkpt>
      <trkpt lat="46.84669" lon="4.68636">
        <ele>371.541878</ele>
        <time>2011-03-12T12:03:20Z</time>
      </trkpt>
      <trkpt lat="46.8468" lon="4.68651">
        <ele>370.640935</ele>
        <time>2011-03-12T12:03:23Z</time>
      </trkpt>
      <trkpt lat="46.84682" lon="4.68668">
        <ele>369.107435</ele>
        <time>2011-03-12T12:03:26Z</time>
      </trkpt>
      <trkpt lat="46.84676" lon="4.68693">
        <ele>366.904144</ele>
        <time>2011-03-12T12:03:29Z</time>
      </trkpt>
      <trkpt lat="46.84669" lon="4.68724">
        <ele>364.598403</ele>
        <time>2011-03-12T12:03:32Z</time>
      </trkpt>
      <trkpt lat="46.84663" lon="4.6875">
        <ele>362.779948</ele>
        <time>2011-03-12T12:03:35Z</time>
      </trkpt>
      <trkpt lat="46.84659" lon="4.68762">
        <ele>361.686679</ele>
        <time>2011-03-12T12:03:39Z</time>
      </trkpt>
      <trkpt lat="46.84653" lon="4.68774">
        <ele>361.293198</ele>
        <time>2011-03-12T12:03:42Z</time>
      </trkpt>
      <trkpt lat="46.84646" lon="4.68787">
        <ele>361.305572</ele>
        <time>2011-03-12T12:03:44Z</time>
      </trkpt>
      <trkpt lat="46.84632" lon="4.6882">
        <ele>361.430228</ele>
        <time>2011-03-12T12:03:47Z</time>
      </trkpt>
      <trkpt lat="46.84619" lon="4.68851">
        <ele>361.533485</ele>
        <time>2011-03-12T12:03:49Z</time>
      </trkpt>
      <trkpt lat="46.84598" lon="4.68897">
        <ele>361.633337</ele>
        <time>2011-03-12T12:03:52Z</time>
      </trkpt>
      <trkpt lat="46.84588" lon="4.68919">
        <ele>361.762802</ele>
        <time>2011-03-12T12:03:54Z</time>
      </trkpt>
      <trkpt lat="46.84582" lon="4.68933">
        <ele>361.873136</ele>
        <time>2011-03-12T12:03:57Z</time>
      </trkpt>
      <trkpt lat="46.84582" lon="4.68933">
        <ele>361.919216</ele>
        <time>2011-03-12T12:04:00Z</time>
      </trkpt>
      <trkpt lat="46.84592" lon="4.68953">
        <ele>361.861028</ele>
        <time>2011-03-12T12:04:08Z</time>
      </trkpt>
      <trkpt lat="46.84601" lon="4.68967">
        <ele>361.566424</ele>
        <time>2011-03-12T12:04:10Z</time>
      </trkpt>
      <trkpt lat="46.84612" lon="4.69001">
        <ele>360.852507</ele>
        <time>2011-03-12T12:04:13Z</time>
      </trkpt>
      <trkpt lat="46.84624" lon="4.6904">
        <ele>358.739481</ele>
        <time>2011-03-12T12:04:16Z</time>
      </trkpt>
      <trkpt lat="46.84617" lon="4.69072">
        <ele>354.494834</ele>
        <time>2011-03-12T12:04:19Z</time>
      </trkpt>
      <trkpt lat="46.84602" lon="4.69087">
        <ele>349.133542</ele>
        <time>2011-03-12T12:04:21Z</time>
      </trkpt>
      <trkpt lat="46.84584" lon="4.69102">
        <ele>344.128475</ele>
        <time>2011-03-12T12:04:23Z</time>
      </trkpt>
      <trkpt lat="46.84565" lon="4.69116">
        <ele>339.966812</ele>
        <time>2011-03-12T12:04:25Z</time>
      </trkpt>
      <trkpt lat="46.84545" lon="4.69125">
        <ele>336.846004</ele>
        <time>2011-03-12T12:04:27Z</time>
      </trkpt>
      <trkpt lat="46.84513" lon="4.69125">
        <ele>334.90308</ele>
        <time>2011-03-12T12:04:30Z</time>
      </trkpt>
      <trkpt lat="46.84479" lon="4.69112">
        <ele>333.932989</ele>
        <time>2011-03-12T12:04:33Z</time>
      </trkpt>
      <trkpt lat="46.84455" lon="4.69106">
        <ele>333.363056</ele>
        <time>2011-03-12T12:04:35Z</time>
      </trkpt>
      <trkpt lat="46.84418" lon="4.69109">
        <ele>332.658421</ele>
        <time>2011-03-12T12:04:38Z</time>
      </trkpt>
      <trkpt lat="46.84387" lon="4.69122">
        <ele>331.368947</ele>
        <time>2011-03-12T12:04:41Z</time>
      </trkpt>
      <trkpt lat="46.84369" lon="4.69134">
        <ele>329.490356</ele>
        <time>2011-03-12T12:04:43Z</time>
      </trkpt>
      <trkpt lat="46.84341" lon="4.69155">
        <ele>327.603643</ele>
        <time>2011-03-12T12:04:46Z</time>
      </trkpt>
      <trkpt lat="46.84323" lon="4.6917">
        <ele>326.180071</ele>
        <time>2011-03-12T12:04:48Z</time>
      </trkpt>
      <trkpt lat="46.84309" lon="4.69182">
        <ele>325.251922</ele>
        <time>2011-03-12T12:04:50Z</time>
      </trkpt>
      <trkpt lat="46.84303" lon="4.69196">
        <ele>324.642785</ele>
        <time>2011-03-12T12:04:52Z</time>
      </trkpt>
      <trkpt lat="46.843" lon="4.6923">
        <ele>324.140828</ele>
        <time>2011-03-12T12:04:55Z</time>
      </trkpt>
      <trkpt lat="46.84291" lon="4.69259">
        <ele>323.615224</ele>
        <time>2011-03-12T12:04:58Z</time>
      </trkpt>
      <trkpt lat="46.8428" lon="4.69269">
        <ele>322.970477</ele>
        <time>2011-03-12T12:05:00Z</time>
      </trkpt>
      <trkpt lat="46.84265" lon="4.69278">
        <ele>322.021423</ele>
        <time>2011-03-12T12:05:03Z</time>
      </trkpt>
      <trkpt lat="46.84256" lon="4.69277">
        <ele>320.614523</ele>
        <time>2011-03-12T12:05:05Z</time>
      </trkpt>
      <trkpt lat="46.84247" lon="4.69272">
        <ele>318.795392</ele>
        <time>2011-03-12T12:05:09Z</time>
      </trkpt>
      <trkpt lat="46.84239" lon="4.69264">
        <ele>316.400765</ele>
        <time>2011-03-12T12:05:14Z</time>
      </trkpt>
      <trkpt lat="46.84239" lon="4.69264">
        <ele>313.667022</ele>
        <time>2011-03-12T12:05:15Z</time>
      </trkpt>
      <trkpt lat="46.84225" lon="4.69256">
        <ele>311.433013</ele>
        <time>2011-03-12T12:05:22Z</time>
      </trkpt>
      <trkpt lat="46.84216" lon="4.69251">
        <ele>309.892543</ele>
        <time>2011-03-12T12:05:26Z</time>
      </trkpt>
      <trkpt lat="46.84207" lon="4.69248">
        <ele>308.672196</ele>
        <time>2011-03-12T12:05:30Z</time>
      </trkpt>
      <trkpt lat="46.84197" lon="4.69247">
        <ele>307.644339</ele>
        <time>2011-03-12T12:05:35Z</time>
      </trkpt>
      <trkpt lat="46.84188" lon="4.69246">
        <ele>306.674422</ele>
        <time>2011-03-12T12:05:40Z</time>
      </trkpt>
      <trkpt lat="46.84175" lon="4.69238">
        <ele>305.713478</ele>
        <time>2011-03-12T12:05:46Z</time>
      </trkpt>
      <trkpt lat="46.84165" lon="4.69232">
        <ele>304.754403</ele>
        <time>2011-03-12T12:05:51Z</time>
      </trkpt>
      <trkpt lat="46.84154" lon="4.69232">
        <ele>303.721192</ele>
        <time>2011-03-12T12:05:55Z</time>
      </trkpt>
      <trkpt lat="46.84144" lon="4.69231">
        <ele>302.592567</ele>
        <time>2011-03-12T12:05:59Z</time>
      </trkpt>
      <trkpt lat="46.84134" lon="4.6923">
        <ele>301.419117</ele>
        <time>2011-03-12T12:06:03Z</time>
      </trkpt>
      <trkpt lat="46.84125" lon="4.6923">
        <ele>300.316714</ele>
        <time>2011-03-12T12:06:08Z</time>
      </trkpt>
      <trkpt lat="46.84115" lon="4.69232">
        <ele>299.387029</ele>
        <time>2011-03-12T12:06:13Z</time>
      </trkpt>
      <trkpt lat="46.84105" lon="4.69235">
        <ele>298.615001</ele>
        <time>2011-03-12T12:06:17Z</time>
      </trkpt>
      <trkpt lat="46.84096" lon="4.69239">
        <ele>297.902301</ele>
        <time>2011-03-12T12:06:21Z</time>
      </trkpt>
      <trkpt lat="46.84086" lon="4.69241">
        <ele>297.165636</ele>
        <time>2011-03-12T12:06:26Z</time>
      </trkpt>
      <trkpt lat="46.84071" lon="4.69243">
        <ele>296.406344</ele>
        <time>2011-03-12T12:06:36Z</time>
      </trkpt>
      <trkpt lat="46.8406" lon="4.69245">
        <ele>295.666278</ele>
        <time>2011-03-12T12:06:44Z</time>
      </trkpt>
      <trkpt lat="46.84049" lon="4.6925">
        <ele>294.932481</ele>
        <time>2011-03-12T12:06:49Z</time>
      </trkpt>
      <trkpt lat="46.84037" lon="4.69252">
        <ele>294.101145</ele>
        <time>2011-03-12T12:06:54Z</time>
      </trkpt>
      <trkpt lat="46.84027" lon="4.69255">
        <ele>293.239768</ele>
        <time>2011-03-12T12:07:00Z</time>
      </trkpt>
      <trkpt lat="46.84016" lon="4.69258">
        <ele>292.6455</ele>
        <time>2011-03-12T12:07:08Z</time>
      </trkpt>
      <trkpt lat="46.84006" lon="4.6926">
        <ele>292.440531</ele>
        <time>2011-03-12T12:07:14Z</time>
      </trkpt>
      <trkpt lat="46.83995" lon="4.69263">
        <ele>292.455722</ele>
        <time>2011-03-12T12:07:21Z</time>
      </trkpt>
      <trkpt lat="46.83986" lon="4.69268">
        <ele>292.624266</ele>
        <time>2011-03-12T12:07:26Z</time>
      </trkpt>
      <trkpt lat="46.83977" lon="4.6927">
        <ele>293.020089</ele>
        <time>2011-03-12T12:07:31Z</time>
      </trkpt>
      <trkpt lat="46.83967" lon="4.69274">
        <ele>293.668238</ele>
        <time>2011-03-12T12:07:36Z</time>
      </trkpt>
      <trkpt lat="46.83957" lon="4.69275">
        <ele>294.469284</ele>
        <time>2011-03-12T12:07:42Z</time>
      </trkpt>
      <trkpt lat="46.83948" lon="4.69282">
        <ele>295.275227</ele>
        <time>2011-03-12T12:07:48Z</time>
      </trkpt>
      <trkpt lat="46.83941" lon="4.6929">
        <ele>295.988732</ele>
        <time>2011-03-12T12:07:52Z</time>
      </trkpt>
      <trkpt lat="46.83933" lon="4.69301">
        <ele>296.642808</ele>
        <time>2011-03-12T12:07:56Z</time>
      </trkpt>
      <trkpt lat="46.83925" lon="4.69312">
        <ele>297.31154</ele>
        <time>2011-03-12T12:08:00Z</time>
      </trkpt>
      <trkpt lat="46.83916" lon="4.69319">
        <ele>297.970016</ele>
        <time>2011-03-12T12:08:04Z</time>
      </trkpt>
      <trkpt lat="46.83905" lon="4.69326">
        <ele>298.498017</ele>
        <time>2011-03-12T12:08:08Z</time>
      </trkpt>
      <trkpt lat="46.83896" lon="4.69332">
        <ele>298.827337</ele>
        <time>2011-03-12T12:08:11Z</time>
      </trkpt>
      <trkpt lat="46.83889" lon="4.6934">
        <ele>298.992596</ele>
        <time>2011-03-12T12:08:14Z</time>
      </trkpt>
      <trkpt lat="46.83881" lon="4.69349">
        <ele>299.09333</ele>
        <time>2011-03-12T12:08:18Z</time>
      </trkpt>
      <trkpt lat="46.83872" lon="4.69356">
        <ele>299.228822</ele>
        <time>2011-03-12T12:08:22Z</time>
      </trkpt>
      <trkpt lat="46.83872" lon="4.69356">
        <ele>299.395458</ele>
        <time>2011-03-12T12:08:25Z</time>
      </trkpt>
      <trkpt lat="46.83855" lon="4.69376">
        <ele>299.546191</ele>
        <time>2011-03-12T12:08:36Z</time>
      </trkpt>
      <trkpt lat="46.83843" lon="4.69389">
        <ele>299.706828</ele>
        <time>2011-03-12T12:08:39Z</time>
      </trkpt>
      <trkpt lat="46.83827" lon="4.69405">
        <ele>299.924988</ele>
        <time>2011-03-12T12:08:42Z</time>
      </trkpt>
      <trkpt lat="46.83814" lon="4.69419">
        <ele>300.438888</ele>
        <time>2011-03-12T12:08:44Z</time>
      </trkpt>
      <trkpt lat="46.83792" lon="4.69443">
        <ele>302.226023</ele>
        <time>2011-03-12T12:08:47Z</time>
      </trkpt>
      <trkpt lat="46.83777" lon="4.69461">
        <ele>305.964012</ele>
        <time>2011-03-12T12:08:49Z</time>
      </trkpt>
      <trkpt lat="46.83757" lon="4.69494">
        <ele>310.419187</ele>
        <time>2011-03-12T12:08:52Z</time>
      </trkpt>
      <trkpt lat="46.83743" lon="4.69517">
        <ele>313.620272</ele>
        <time>2011-03-12T12:08:54Z</time>
      </trkpt>
      <trkpt lat="46.83718" lon="4.69556">
        <ele>314.978164</ele>
        <time>2011-03-12T12:08:57Z</time>
      </trkpt>
      <trkpt lat="46.83707" lon="4.69591">
        <ele>315.122735</ele>
        <time>2011-03-12T12:08:59Z</time>
      </trkpt>
      <trkpt lat="46.83687" lon="4.69644">
        <ele>314.844553</ele>
        <time>2011-03-12T12:09:02Z</time>
      </trkpt>
      <trkpt lat="46.83652" lon="4.69683">
        <ele>314.55217</ele>
        <time>2011-03-12T12:09:05Z</time>
      </trkpt>
      <trkpt lat="46.83629" lon="4.69712">
        <ele>314.301877</ele>
        <time>2011-03-12T12:09:07Z</time>
      </trkpt>
      <trkpt lat="46.83606" lon="4.69746">
        <ele>313.966862</ele>
        <time>2011-03-12T12:09:09Z</time>
      </trkpt>
      <trkpt lat="46.83564" lon="4.69783">
        <ele>313.374306</ele>
        <time>2011-03-12T12:09:12Z</time>
      </trkpt>
      <trkpt lat="46.83532" lon="4.69799">
        <ele>312.582694</ele>
        <time>2011-03-12T12:09:14Z</time>
      </trkpt>
      <trkpt lat="46.83503" lon="4.69812">
        <ele>311.850153</ele>
        <time>2011-03-12T12:09:16Z</time>
      </trkpt>
      <trkpt lat="46.83466" lon="4.69829">
        <ele>311.220595</ele>
        <time>2011-03-12T12:09:19Z</time>
      </trkpt>
      <trkpt lat="46.8345" lon="4.6984">
        <ele>310.583232</ele>
        <time>2011-03-12T12:09:22Z</time>
      </trkpt>
      <trkpt lat="46.8345" lon="4.6984">
        <ele>310.022035</ele>
        <time>2011-03-12T12:09:28Z</time>
      </trkpt>
      <trkpt lat="46.8345" lon="4.6984">
        <ele>309.697894</ele>
        <time>2011-03-12T12:09:54Z</time>
      </trkpt>
      <trkpt lat="46.83456" lon="4.69873">
        <ele>309.556882</ele>
        <time>2011-03-12T12:10:10Z</time>
      </trkpt>
      <trkpt lat="46.83461" lon="4.69888">
        <ele>309.38016</ele>
        <time>2011-03-12T12:10:13Z</time>
      </trkpt>
      <trkpt lat="46.83466" lon="4.69905">
        <ele>308.82556</ele>
        <time>2011-03-12T12:10:16Z</time>
      </trkpt>
      <trkpt lat="46.8347" lon="4.69917">
        <ele>307.047329</ele>
        <time>2011-03-12T12:10:18Z</time>
      </trkpt>
      <trkpt lat="46.83476" lon="4.69938">
        <ele>303.908744</ele>
        <time>2011-03-12T12:10:21Z</time>
      </trkpt>
      <trkpt lat="46.83482" lon="4.69958">
        <ele>299.953921</ele>
        <time>2011-03-12T12:10:24Z</time>
      </trkpt>
      <trkpt lat="46.83488" lon="4.69979">
        <ele>295.282177</ele>
        <time>2011-03-12T12:10:27Z</time>
      </trkpt>
      <trkpt lat="46.83492" lon="4.69993">
        <ele>290.15138</ele>
        <time>2011-03-12T12:10:29Z</time>
      </trkpt>
      <trkpt lat="46.83497" lon="4.70013">
        <ele>285.420498</ele>
        <time>2011-03-12T12:10:32Z</time>
      </trkpt>
      <trkpt lat="46.835" lon="4.70027">
        <ele>281.645225</ele>
        <time>2011-03-12T12:10:34Z</time>
      </trkpt>
      <trkpt lat="46.83503" lon="4.70045">
        <ele>279.119315</ele>
        <time>2011-03-12T12:10:37Z</time>
      </trkpt>
      <trkpt lat="46.83506" lon="4.70058">
        <ele>277.650096</ele>
        <time>2011-03-12T12:10:39Z</time>
      </trkpt>
      <trkpt lat="46.83509" lon="4.70078">
        <ele>276.777311</ele>
        <time>2011-03-12T12:10:42Z</time>
      </trkpt>
      <trkpt lat="46.83514" lon="4.70098">
        <ele>276.115931</ele>
        <time>2011-03-12T12:10:45Z</time>
      </trkpt>
      <trkpt lat="46.83517" lon="4.70111">
        <ele>275.473517</ele>
        <time>2011-03-12T12:10:47Z</time>
      </trkpt>
      <trkpt lat="46.83519" lon="4.70124">
        <ele>274.808823</ele>
        <time>2011-03-12T12:10:49Z</time>
      </trkpt>
      <trkpt lat="46.83523" lon="4.70142">
        <ele>274.151114</ele>
        <time>2011-03-12T12:10:52Z</time>
      </trkpt>
      <trkpt lat="46.83526" lon="4.7016">
        <ele>273.537866</ele>
        <time>2011-03-12T12:10:55Z</time>
      </trkpt>
      <trkpt lat="46.83531" lon="4.70177">
        <ele>273.033266</ele>
        <time>2011-03-12T12:10:58Z</time>
      </trkpt>
      <trkpt lat="46.83536" lon="4.70194">
        <ele>272.661165</ele>
        <time>2011-03-12T12:11:01Z</time>
      </trkpt>
      <trkpt lat="46.83543" lon="4.70213">
        <ele>272.387652</ele>
        <time>2011-03-12T12:11:04Z</time>
      </trkpt>
      <trkpt lat="46.83544" lon="4.7023">
        <ele>272.157262</ele>
        <time>2011-03-12T12:11:07Z</time>
      </trkpt>
      <trkpt lat="46.83546" lon="4.70247">
        <ele>271.873454</ele>
        <time>2011-03-12T12:11:10Z</time>
      </trkpt>
      <trkpt lat="46.83549" lon="4.70262">
        <ele>271.529762</ele>
        <time>2011-03-12T12:11:13Z</time>
      </trkpt>
      <trkpt lat="46.83553" lon="4.70278">
        <ele>271.267595</ele>
        <time>2011-03-12T12:11:16Z</time>
      </trkpt>
      <trkpt lat="46.83557" lon="4.7029">
        <ele>271.16838</ele>
        <time>2011-03-12T12:11:18Z</time>
      </trkpt>
      <trkpt lat="46.83563" lon="4.70307">
        <ele>271.170272</ele>
        <time>2011-03-12T12:11:21Z</time>
      </trkpt>
      <trkpt lat="46.83569" lon="4.70326">
        <ele>271.227777</ele>
        <time>2011-03-12T12:11:24Z</time>
      </trkpt>
      <trkpt lat="46.83574" lon="4.70339">
        <ele>271.328695</ele>
        <time>2011-03-12T12:11:26Z</time>
      </trkpt>
      <trkpt lat="46.83581" lon="4.7036">
        <ele>271.469099</ele>
        <time>2011-03-12T12:11:29Z</time>
      </trkpt>
      <trkpt lat="46.83586" lon="4.70373">
        <ele>271.650925</ele>
        <time>2011-03-12T12:11:31Z</time>
      </trkpt>
      <trkpt lat="46.83591" lon="4.7039">
        <ele>271.841551</ele>
        <time>2011-03-12T12:11:34Z</time>
      </trkpt>
      <trkpt lat="46.83595" lon="4.70407">
        <ele>271.989864</ele>
        <time>2011-03-12T12:11:37Z</time>
      </trkpt>
      <trkpt lat="46.83598" lon="4.70427">
        <ele>272.093563</ele>
        <time>2011-03-12T12:11:40Z</time>
      </trkpt>
      <trkpt lat="46.83602" lon="4.70442">
        <ele>272.198293</ele>
        <time>2011-03-12T12:11:42Z</time>
      </trkpt>
      <trkpt lat="46.83606" lon="4.70456">
        <ele>272.37801</ele>
        <time>2011-03-12T12:11:44Z</time>
      </trkpt>
      <trkpt lat="46.83611" lon="4.7048">
        <ele>272.637687</ele>
        <time>2011-03-12T12:11:47Z</time>
      </trkpt>
      <trkpt lat="46.83614" lon="4.70497">
        <ele>272.881699</ele>
        <time>2011-03-12T12:11:49Z</time>
      </trkpt>
      <trkpt lat="46.83617" lon="4.70514">
        <ele>273.054922</ele>
        <time>2011-03-12T12:11:51Z</time>
      </trkpt>
      <trkpt lat="46.83621" lon="4.7053">
        <ele>273.214111</ele>
        <time>2011-03-12T12:11:53Z</time>
      </trkpt>
      <trkpt lat="46.83624" lon="4.70546">
        <ele>273.44719</ele>
        <time>2011-03-12T12:11:55Z</time>
      </trkpt>
      <trkpt lat="46.83629" lon="4.70568">
        <ele>273.73</ele>
        <time>2011-03-12T12:11:58Z</time>
      </trkpt>
      <trkpt lat="46.83634" lon="4.7059">
        <ele>273.934846</ele>
        <time>2011-03-12T12:12:01Z</time>
      </trkpt>
      <trkpt lat="46.83637" lon="4.70605">
        <ele>274.008802</ele>
        <time>2011-03-12T12:12:03Z</time>
      </trkpt>
      <trkpt lat="46.83642" lon="4.70627">
        <ele>274.005551</ele>
        <time>2011-03-12T12:12:06Z</time>
      </trkpt>
      <trkpt lat="46.83647" lon="4.70649">
        <ele>273.958389</ele>
        <time>2011-03-12T12:12:09Z</time>
      </trkpt>
      <trkpt lat="46.83651" lon="4.70669">
        <ele>273.826232</ele>
        <time>2011-03-12T12:12:12Z</time>
      </trkpt>
      <trkpt lat="46.83657" lon="4.70688">
        <ele>273.60737</ele>
        <time>2011-03-12T12:12:15Z</time>
      </trkpt>
      <trkpt lat="46.83661" lon="4.70707">
        <ele>273.402313</ele>
        <time>2011-03-12T12:12:18Z</time>
      </trkpt>
      <trkpt lat="46.83664" lon="4.7073">
        <ele>273.238236</ele>
        <time>2011-03-12T12:12:21Z</time>
      </trkpt>
      <trkpt lat="46.83668" lon="4.70755">
        <ele>273.056559</ele>
        <time>2011-03-12T12:12:24Z</time>
      </trkpt>
      <trkpt lat="46.83673" lon="4.70782">
        <ele>272.880203</ele>
        <time>2011-03-12T12:12:27Z</time>
      </trkpt>
      <trkpt lat="46.83678" lon="4.70814">
        <ele>272.772639</ele>
        <time>2011-03-12T12:12:30Z</time>
      </trkpt>
      <trkpt lat="46.8368" lon="4.70838">
        <ele>272.714715</ele>
        <time>2011-03-12T12:12:32Z</time>
      </trkpt>
      <trkpt lat="46.83685" lon="4.70879">
        <ele>272.617485</ele>
        <time>2011-03-12T12:12:35Z</time>
      </trkpt>
      <trkpt lat="46.83688" lon="4.7091">
        <ele>272.395751</ele>
        <time>2011-03-12T12:12:37Z</time>
      </trkpt>
      <trkpt lat="46.83694" lon="4.70962">
        <ele>272.032114</ele>
        <time>2011-03-12T12:12:40Z</time>
      </trkpt>
      <trkpt lat="46.83703" lon="4.71016">
        <ele>271.551533</ele>
        <time>2011-03-12T12:12:43Z</time>
      </trkpt>
      <trkpt lat="46.83709" lon="4.71054">
        <ele>270.990105</ele>
        <time>2011-03-12T12:12:45Z</time>
      </trkpt>
      <trkpt lat="46.83718" lon="4.71112">
        <ele>270.312085</ele>
        <time>2011-03-12T12:12:48Z</time>
      </trkpt>
      <trkpt lat="46.83724" lon="4.71152">
        <ele>269.397672</ele>
        <time>2011-03-12T12:12:50Z</time>
      </trkpt>
      <trkpt lat="46.83731" lon="4.71192">
        <ele>268.330723</ele>
        <time>2011-03-12T12:12:52Z</time>
      </trkpt>
      <trkpt lat="46.83737" lon="4.71245">
        <ele>267.436795</ele>
        <time>2011-03-12T12:12:55Z</time>
      </trkpt>
      <trkpt lat="46.83741" lon="4.71273">
        <ele>266.898543</ele>
        <time>2011-03-12T12:12:57Z</time>
      </trkpt>
      <trkpt lat="46.83746" lon="4.71301">
        <ele>266.664298</ele>
        <time>2011-03-12T12:13:00Z</time>
      </trkpt>
      <trkpt lat="46.83749" lon="4.71316">
        <ele>266.488165</ele>
        <time>2011-03-12T12:13:02Z</time>
      </trkpt>
      <trkpt lat="46.83751" lon="4.7134">
        <ele>266.012117</ele>
        <time>2011-03-12T12:13:05Z</time>
      </trkpt>
      <trkpt lat="46.8375" lon="4.71367">
        <ele>264.981038</ele>
        <time>2011-03-12T12:13:08Z</time>
      </trkpt>
      <trkpt lat="46.83749" lon="4.71385">
        <ele>263.47363</ele>
        <time>2011-03-12T12:13:10Z</time>
      </trkpt>
      <trkpt lat="46.8375" lon="4.71404">
        <ele>261.816823</ele>
        <time>2011-03-12T12:13:12Z</time>
      </trkpt>
      <trkpt lat="46.83751" lon="4.71435">
        <ele>260.310351</ele>
        <time>2011-03-12T12:13:15Z</time>
      </trkpt>
      <trkpt lat="46.83752" lon="4.71468">
        <ele>259.128233</ele>
        <time>2011-03-12T12:13:18Z</time>
      </trkpt>
      <trkpt lat="46.83752" lon="4.71501">
        <ele>258.336442</ele>
        <time>2011-03-12T12:13:21Z</time>
      </trkpt>
      <trkpt lat="46.83751" lon="4.71533">
        <ele>257.792551</ele>
        <time>2011-03-12T12:13:24Z</time>
      </trkpt>
      <trkpt lat="46.83748" lon="4.71555">
        <ele>257.308992</ele>
        <time>2011-03-12T12:13:26Z</time>
      </trkpt>
      <trkpt lat="46.83738" lon="4.71584">
        <ele>256.791045</ele>
        <time>2011-03-12T12:13:29Z</time>
      </trkpt>
      <trkpt lat="46.8373" lon="4.71602">
        <ele>256.174343</ele>
        <time>2011-03-12T12:13:31Z</time>
      </trkpt>
      <trkpt lat="46.83721" lon="4.71619">
        <ele>255.435869</ele>
        <time>2011-03-12T12:13:33Z</time>
      </trkpt>
      <trkpt lat="46.83712" lon="4.71636">
        <ele>254.696014</ele>
        <time>2011-03-12T12:13:35Z</time>
      </trkpt>
      <trkpt lat="46.83701" lon="4.71662">
        <ele>254.090411</ele>
        <time>2011-03-12T12:13:38Z</time>
      </trkpt>
      <trkpt lat="46.83691" lon="4.71688">
        <ele>253.621522</ele>
        <time>2011-03-12T12:13:41Z</time>
      </trkpt>
      <trkpt lat="46.83677" lon="4.71701">
        <ele>253.235034</ele>
        <time>2011-03-12T12:13:43Z</time>
      </trkpt>
      <trkpt lat="46.83663" lon="4.71714">
        <ele>252.929776</ele>
        <time>2011-03-12T12:13:45Z</time>
      </trkpt>
      <trkpt lat="46.83643" lon="4.71737">
        <ele>252.736616</ele>
        <time>2011-03-12T12:13:48Z</time>
      </trkpt>
      <trkpt lat="46.83625" lon="4.71759">
        <ele>252.655939</ele>
        <time>2011-03-12T12:13:51Z</time>
      </trkpt>
      <trkpt lat="46.83613" lon="4.71775">
        <ele>252.543</ele>
        <time>2011-03-12T12:13:53Z</time>
      </trkpt>
      <trkpt lat="46.83595" lon="4.71799">
        <ele>252.193132</ele>
        <time>2011-03-12T12:13:56Z</time>
      </trkpt>
      <trkpt lat="46.83577" lon="4.71826">
        <ele>251.616265</ele>
        <time>2011-03-12T12:13:59Z</time>
      </trkpt>
      <trkpt lat="46.83559" lon="4.71855">
        <ele>251.058187</ele>
        <time>2011-03-12T12:14:02Z</time>
      </trkpt>
      <trkpt lat="46.83547" lon="4.71876">
        <ele>250.720569</ele>
        <time>2011-03-12T12:14:04Z</time>
      </trkpt>
      <trkpt lat="46.83528" lon="4.71908">
        <ele>250.614876</ele>
        <time>2011-03-12T12:14:07Z</time>
      </trkpt>
      <trkpt lat="46.83516" lon="4.71928">
        <ele>250.631594</ele>
        <time>2011-03-12T12:14:09Z</time>
      </trkpt>
      <trkpt lat="46.83499" lon="4.71959">
        <ele>250.674279</ele>
        <time>2011-03-12T12:14:12Z</time>
      </trkpt>
      <trkpt lat="46.83487" lon="4.71978">
        <ele>250.701614</ele>
        <time>2011-03-12T12:14:14Z</time>
      </trkpt>
      <trkpt lat="46.8347" lon="4.72006">
        <ele>250.710007</ele>
        <time>2011-03-12T12:14:17Z</time>
      </trkpt>
      <trkpt lat="46.83453" lon="4.72035">
        <ele>250.58436</ele>
        <time>2011-03-12T12:14:20Z</time>
      </trkpt>
      <trkpt lat="46.83442" lon="4.72053">
        <ele>250.178115</ele>
        <time>2011-03-12T12:14:22Z</time>
      </trkpt>
      <trkpt lat="46.83426" lon="4.72079">
        <ele>249.560708</ele>
        <time>2011-03-12T12:14:25Z</time>
      </trkpt>
      <trkpt lat="46.8341" lon="4.72105">
        <ele>248.955186</ele>
        <time>2011-03-12T12:14:28Z</time>
      </trkpt>
      <trkpt lat="46.83395" lon="4.72131">
        <ele>248.525636</ele>
        <time>2011-03-12T12:14:31Z</time>
      </trkpt>
      <trkpt lat="46.8338" lon="4.72156">
        <ele>248.314947</ele>
        <time>2011-03-12T12:14:34Z</time>
      </trkpt>
      <trkpt lat="46.83369" lon="4.7217">
        <ele>248.224</ele>
        <time>2011-03-12T12:14:36Z</time>
      </trkpt>
      <trkpt lat="46.83351" lon="4.72188">
        <ele>248.120807</ele>
        <time>2011-03-12T12:14:39Z</time>
      </trkpt>
      <trkpt lat="46.83337" lon="4.7221">
        <ele>247.946979</ele>
        <time>2011-03-12T12:14:42Z</time>
      </trkpt>
      <trkpt lat="46.8333" lon="4.72228">
        <ele>247.714289</ele>
        <time>2011-03-12T12:14:44Z</time>
      </trkpt>
      <trkpt lat="46.83317" lon="4.72253">
        <ele>247.377103</ele>
        <time>2011-03-12T12:14:47Z</time>
      </trkpt>
      <trkpt lat="46.83308" lon="4.7227">
        <ele>246.859547</ele>
        <time>2011-03-12T12:14:49Z</time>
      </trkpt>
      <trkpt lat="46.83301" lon="4.72285">
        <ele>246.255456</ele>
        <time>2011-03-12T12:14:51Z</time>
      </trkpt>
      <trkpt lat="46.83291" lon="4.72307">
        <ele>245.791102</ele>
        <time>2011-03-12T12:14:54Z</time>
      </trkpt>
      <trkpt lat="46.83284" lon="4.7232">
        <ele>245.573616</ele>
        <time>2011-03-12T12:14:56Z</time>
      </trkpt>
      <trkpt lat="46.83279" lon="4.72331">
        <ele>245.539041</ele>
        <time>2011-03-12T12:14:58Z</time>
      </trkpt>
      <trkpt lat="46.83277" lon="4.72356">
        <ele>245.572697</ele>
        <time>2011-03-12T12:15:01Z</time>
      </trkpt>
      <trkpt lat="46.83274" lon="4.72384">
        <ele>245.599545</ele>
        <time>2011-03-12T12:15:04Z</time>
      </trkpt>
      <trkpt lat="46.83273" lon="4.72407">
        <ele>245.549295</ele>
        <time>2011-03-12T12:15:07Z</time>
      </trkpt>
      <trkpt lat="46.83273" lon="4.72407">
        <ele>245.407462</ele>
        <time>2011-03-12T12:15:09Z</time>
      </trkpt>
      <trkpt lat="46.83273" lon="4.72407">
        <ele>245.253322</ele>
        <time>2011-03-12T12:15:55Z</time>
      </trkpt>
      <trkpt lat="46.83286" lon="4.72395">
        <ele>245.085081</ele>
        <time>2011-03-12T12:18:50Z</time>
      </trkpt>
      <trkpt lat="46.8329" lon="4.7238">
        <ele>244.763719</ele>
        <time>2011-03-12T12:18:53Z</time>
      </trkpt>
      <trkpt lat="46.83293" lon="4.72363">
        <ele>244.186784</ele>
        <time>2011-03-12T12:18:56Z</time>
      </trkpt>
      <trkpt lat="46.83294" lon="4.72346">
        <ele>242.302859</ele>
        <time>2011-03-12T12:18:59Z</time>
      </trkpt>
      <trkpt lat="46.83289" lon="4.72334">
        <ele>238.698283</ele>
        <time>2011-03-12T12:19:03Z</time>
      </trkpt>
      <trkpt lat="46.83289" lon="4.72334">
        <ele>235.326181</ele>
        <time>2011-03-12T12:19:06Z</time>
      </trkpt>
      <trkpt lat="46.83273" lon="4.72366">
        <ele>233.796195</ele>
        <time>2011-03-12T12:19:29Z</time>
      </trkpt>
      <trkpt lat="46.83268" lon="4.72382">
        <ele>233.567018</ele>
        <time>2011-03-12T12:19:32Z</time>
      </trkpt>
      <trkpt lat="46.83262" lon="4.72396">
        <ele>233.809309</ele>
        <time>2011-03-12T12:19:35Z</time>
      </trkpt>
      <trkpt lat="46.83256" lon="4.7241">
        <ele>234.019774</ele>
        <time>2011-03-12T12:19:38Z</time>
      </trkpt>
      <trkpt lat="46.8325" lon="4.72435">
        <ele>234.032632</ele>
        <time>2011-03-12T12:19:41Z</time>
      </trkpt>
      <trkpt lat="46.83244" lon="4.72459">
        <ele>233.923837</ele>
        <time>2011-03-12T12:19:43Z</time>
      </trkpt>
      <trkpt lat="46.83235" lon="4.72491">
        <ele>233.810761</ele>
        <time>2011-03-12T12:19:45Z</time>
      </trkpt>
      <trkpt lat="46.83223" lon="4.72528">
        <ele>233.497892</ele>
        <time>2011-03-12T12:19:48Z</time>
      </trkpt>
      <trkpt lat="46.83181" lon="4.72629">
        <ele>232.670711</ele>
        <time>2011-03-12T12:19:50Z</time>
      </trkpt>
      <trkpt lat="46.83137" lon="4.72724">
        <ele>231.481473</ele>
        <time>2011-03-12T12:19:52Z</time>
      </trkpt>
      <trkpt lat="46.83092" lon="4.72803">
        <ele>230.439496</ele>
        <time>2011-03-12T12:19:55Z</time>
      </trkpt>
      <trkpt lat="46.83038" lon="4.72882">
        <ele>229.615644</ele>
        <time>2011-03-12T12:19:58Z</time>
      </trkpt>
      <trkpt lat="46.82954" lon="4.72989">
        <ele>228.613553</ele>
        <time>2011-03-12T12:20:01Z</time>
      </trkpt>
      <trkpt lat="46.82881" lon="4.73051">
        <ele>227.437631</ele>
        <time>2011-03-12T12:20:03Z</time>
      </trkpt>
      <trkpt lat="46.82843" lon="4.73104">
        <ele>226.6037</ele>
        <time>2011-03-12T12:20:05Z</time>
      </trkpt>
    </trkseg>
  </trk>
</gpx>